[[{"header":{"parameterUnit":"m.s-1","parameterCategory":1,"la1":30.6,"la2":29.2853,"lo1":-89.7004,"lo2":-87.6739,"dx":0.0162,"dy":0.0183,"nx":112,"ny":82,"refTime":"2023-02-02T18:00:00:Z","depth":0,"parameterNumber":2,"parameterNumberName":"U-component_of_WINDS"},"data":[0.0,0.0,0.0,0.0,0.0,0.0,0.0,0.0,0.0,0.0,0.0,0.0,0.0,0.0,0.0,0.0,0.0,0.0,0.0,0.0,0.0,0.0,0.0,0.0,0.0,0.0,0.0,0.0,0.0,0.0,0.0,0.0,0.0,0.0,0.0,0.0,0.0,0.0,0.0,0.0,0.0,0.0,0.0,0.0,0.0,0.0,0.0,0.0,0.0,0.0,0.0,0.0,0.0,0.0,0.0,0.0,0.0,0.0,0.0,0.0,0.0,0.0,0.0,0.0,0.0,0.0,0.0,0.0,0.0,0.0,0.0,0.0,0.0,0.0,0.0,0.0,0.0,0.0,0.0,0.0,0.0,0.0,0.0,0.0,0.0,0.0,0.0,0.0,0.0,0.0,0.0,-0.2796,-0.2918,-0.3053,-0.3172,-0.3373,-0.346,-0.3383,0.0,0.0,0.0,0.0,0.0,0.0,0.0,0.0,0.0,0.0,0.0,0.0,0.0,0.0,0.0,0.0,0.0,0.0,0.0,0.0,0.0,0.0,0.0,0.0,0.0,0.0,0.0,0.0,0.0,0.0,0.0,0.0,0.0,0.0,0.0,0.0,0.0,0.0,0.0,0.0,0.0,0.0,0.0,0.0,0.0,0.0,0.0,0.0,0.0,0.0,0.0,0.0,0.0,0.0,0.0,0.0,0.0,0.0,0.0,0.0,0.0,0.0,0.0,0.0,0.0,0.0,0.0,0.0,0.0,0.0,0.0,0.0,0.0,0.0,0.0,0.0,0.0,0.0,0.0,0.0,0.0,0.0,0.0,0.0,0.0,0.0,0.0,0.0,0.0,0.0,0.0,0.0,0.0,0.0,0.0,0.0,0.0,0.0,0.0,0.0,0.0,0.0,0.0,0.0,-0.2796,-0.2796,-0.2918,-0.3028,-0.3103,-0.3296,-0.3361,-0.3237,0.0,0.0,0.0,0.0,0.0,0.0,0.0,0.0,0.0,0.0,0.0,0.0,0.0,0.0,0.0,0.0,0.0,0.0,0.0,0.0,0.0,0.0,0.0,0.0,0.0,0.0,0.0,0.0,0.0,0.0,0.0,0.0,0.0,0.0,0.0,0.0,0.0,0.0,0.0,0.0,0.0,0.0,0.0,0.0,0.0,0.0,0.0,0.0,0.0,0.0,0.0,0.0,0.0,0.0,0.0,0.0,0.0,0.0,0.0,0.0,0.0,0.0,0.0,0.0,0.0,0.0,0.0,0.0,0.0,0.0,0.0,0.0,0.0,0.0,0.0,0.0,0.0,0.0,0.0,0.0,0.0,0.0,0.0,0.0,0.0,0.0,0.0,0.0,0.0,0.0,0.0,0.0,0.0,0.0,0.0,0.0,0.0,0.0,0.0,0.0,0.0,0.0,0.0,-0.2906,-0.2873,-0.2764,-0.2904,-0.3019,-0.3045,-0.3292,-0.3377,-0.3217,-0.338,0.0,0.0,0.0,0.0,0.0,0.0,0.0,0.0,0.0,0.0,0.0,0.0,0.0,0.0,0.0,0.0,0.0,0.0,0.0,0.0,0.0,0.0,0.0,0.0,0.0,0.0,0.0,0.0,0.0,0.0,0.0,0.0,0.0,0.0,0.0,0.0,0.0,0.0,0.0,0.0,0.0,0.0,0.0,0.0,0.0,0.0,0.0,0.0,0.0,0.0,0.0,0.0,0.0,0.0,0.0,0.0,0.0,0.0,0.0,0.0,0.0,0.0,0.0,0.0,0.0,0.0,0.0,0.0,0.0,0.0,0.0,0.0,0.0,0.0,0.0,0.0,0.0,0.0,0.0,0.0,0.0,0.0,0.0,0.0,0.0,0.0,0.0,0.0,0.0,0.0,0.0,0.0,0.0,0.0,0.0,0.0,0.0,0.0,0.0,0.0,0.0,0.0,-0.2681,-0.2661,-0.2507,-0.2771,-0.297,-0.3012,-0.3279,-0.3385,-0.325,-0.3389,0.0,0.0,0.0,0.0,0.0,0.0,0.0,0.0,0.0,0.0,0.0,0.0,0.0,0.0,0.0,0.0,0.0,0.0,0.0,0.0,0.0,0.0,0.0,0.0,0.0,0.0,0.0,0.0,0.0,0.0,0.0,0.0,0.0,0.0,0.0,0.0,0.0,0.0,0.0,0.0,0.0,0.0,0.0,0.0,0.0,0.0,0.0,0.0,0.0,0.0,0.0,0.0,0.0,0.0,0.0,0.0,0.0,0.0,0.0,0.0,0.0,0.0,0.0,0.0,0.0,0.0,0.0,0.0,0.0,0.0,0.0,0.0,0.0,0.0,0.0,0.0,0.0,0.0,0.0,0.0,0.0,0.0,0.0,0.0,0.0,0.0,0.0,0.0,0.0,0.0,0.0,0.0,0.0,0.0,0.0,0.0,0.0,0.0,0.0,0.0,0.0,0.0,-0.1986,-0.1883,-0.186,-0.2427,-0.2888,-0.3082,-0.3164,-0.3262,-0.3383,-0.3399,0.0,0.0,0.0,0.0,0.0,0.0,0.0,0.0,0.0,0.0,0.0,0.0,0.0,0.0,0.0,0.0,0.0,0.0,0.0,0.0,0.0,0.0,0.0,0.0,0.0,0.0,0.0,0.0,0.0,0.0,0.0,0.0,0.0,0.0,0.0,0.0,0.0,0.0,0.0,0.0,0.0,0.0,0.0,0.0,0.0,0.0,0.0,0.0,0.0,0.0,0.0,0.0,0.0,0.0,0.0,0.0,0.0,0.0,0.0,0.0,0.0,0.0,0.0,0.0,0.0,0.0,0.0,0.0,0.0,0.0,0.0,0.0,0.0,0.0,0.0,0.0,0.0,0.0,0.0,0.0,0.0,0.0,0.0,0.0,0.0,0.0,0.0,0.0,0.0,0.0,0.0,0.0,0.0,0.0,0.0,0.0,0.0,0.0,0.0,0.0,0.0,0.0,-0.1083,-0.1002,0.0,-0.1351,-0.1816,-0.2484,-0.2602,-0.2858,-0.336,0.0,0.0,0.0,0.0,0.0,0.0,0.0,0.0,0.0,0.0,0.0,0.0,0.0,0.0,0.0,0.0,0.0,0.0,0.0,0.0,0.0,0.0,0.0,0.0,0.0,0.0,0.0,0.0,0.0,0.0,0.0,0.0,0.0,0.0,0.0,0.0,0.0,0.0,0.0,0.0,0.0,0.0,0.0,0.0,0.0,0.0,0.0,0.0,0.0,0.0,0.0,0.0,0.0,0.0,0.0,0.0,0.0,0.0,0.0,0.0,0.0,0.0,0.0,0.0,0.0,0.0,0.0,0.0,0.0,0.0,0.0,0.0,0.0,0.0,0.0,0.0,0.0,0.0,0.0,0.0,0.0,0.0,0.0,0.0,0.0,0.0,0.0,0.0,0.0,0.0,0.0,0.0,0.0,0.0,0.0,0.0,0.0,0.0,0.0,0.0,0.0,0.0,-0.0323,-0.0348,-0.0401,0.0,-0.0881,-0.1428,-0.2142,-0.2225,-0.2524,-0.3207,0.0,0.0,0.0,0.0,0.0,0.0,0.0,0.0,0.0,0.0,0.0,0.0,0.0,0.0,0.0,0.0,0.0,0.0,0.0,0.0,0.0,0.0,0.0,0.0,0.0,0.0,0.0,0.0,0.0,0.0,0.0,0.0,0.0,0.0,0.0,0.0,0.0,0.0,0.0,0.0,0.0,0.0,0.0,0.0,0.0,0.0,0.0,0.0,0.0,0.0,0.0,0.0,0.0,0.0,0.0,0.0,0.0,0.0,0.0,0.0,0.0,0.0,0.0,0.0,0.0,0.0,0.0,0.0,0.0,0.0,0.0,0.0,0.0,0.0,0.0,0.0,0.0,0.0,0.0,0.0,0.0,0.0,0.0,0.0,0.0,0.0,0.0,0.0,0.0,0.0,0.0,0.0,0.0,0.0,0.0,0.0,0.0,0.0,0.0,0.0,0.0,0.0,0.0517,0.0177,-0.0095,-0.017,-0.1186,-0.1951,-0.2159,-0.212,-0.2325,0.0,0.0,0.0,0.0,0.0,0.0,0.0,0.0,0.0,0.0,0.0,0.0,0.0,0.0,0.0,0.0,0.0,0.0,0.0,0.0,0.0,0.0,0.0,0.0,0.0,0.0,0.0,0.0,0.0,0.0,0.0,0.0,0.0,0.0,0.0,0.0,0.0,0.0,0.0,0.0,0.0,0.0,0.0,0.0,0.0,0.0,0.0,0.0,0.0,0.0,0.0,0.0,0.0,0.0,0.0,0.0,0.0,0.0,0.0,0.0,0.0,0.0,0.0,0.0,0.0,0.0,0.0,0.0,0.0,0.0,0.0,0.0,0.0,0.0,0.0,0.0,0.0,0.0,0.0,0.0,0.0,0.0,0.0,0.0,0.0,0.0,0.0,0.0,0.0,0.0,0.0,0.0,0.0,0.0,0.0,0.0,0.0,0.0,0.0,0.0,0.0,0.0,0.0,0.1554,0.1529,0.1445,0.1227,0.0572,-0.0163,-0.0941,-0.1234,-0.1717,-0.2499,0.0,0.0,0.0,0.0,0.0,0.0,0.0,0.0,0.0,0.0,0.0,0.0,0.0,0.0,0.0,0.0,0.0,0.0,0.0,0.0,0.0,0.0,0.0,0.0,0.0,0.0,0.0,0.0,0.0,0.0,0.0,0.0,0.0,0.0,0.0,0.0,0.0,0.0,0.0,0.0,0.0,0.0,0.0,0.0,0.0,0.0,0.0,0.0,0.0,0.0,0.0,0.0,0.0,0.0,0.0,0.0,0.0,0.0,0.0,0.0,0.0,0.0,0.0,0.0,0.0,0.0,0.0,0.0,0.0,0.0,0.0,0.0,0.0,0.0,0.0,0.0,0.0,0.0,0.0,0.0,0.0,0.0,0.0,0.0,0.0,0.0,0.0,0.0,0.0,0.0,0.0,0.0,0.0,0.0,0.0,0.0,0.0,0.0,0.0,0.0,0.0,0.0,0.2088,0.199,0.1832,0.163,0.1142,0.0492,-0.039,-0.0664,-0.1172,-0.2059,0.0,0.0,0.0,0.0,0.0,0.0,0.0,0.0,0.0,0.0,0.0,0.0,0.0,0.0,0.0,0.0,0.0,0.0,0.0,0.0,0.0,0.0,0.0,0.0,0.0,0.0,0.0,0.0,0.0,0.0,0.0,0.0,0.0,0.0,0.0,0.0,0.0,0.0,0.0,0.0,0.0,0.0,0.0,0.0,0.0,0.0,0.0,0.0,0.0,0.0,0.0,0.0,0.0,0.0,0.0,0.0,0.0,0.0,0.0,0.0,0.0,0.0,0.0,0.0,0.0,0.0,0.0,0.0,0.0,0.0,0.0,0.0,0.0,0.0,0.0,0.0,0.0,0.0,0.0,0.0,0.0,0.0,0.0,0.0,0.0,0.0,0.0,0.0,0.0,0.0,0.0,0.0,0.0,0.0,0.0,0.0,0.0,0.0,0.0,0.0,0.0,0.0,0.224,0.186,0.1548,0.1414,0.0972,0.0446,-0.0165,-0.0206,-0.059,-0.1506,0.0,0.0,0.0,0.0,0.0,0.0,0.0,0.0,0.0,0.0,0.0,0.0,0.0,0.0,0.0,0.0,0.0,0.0,0.0,0.0,0.0,0.0,0.0,0.0,0.0,0.0,0.0,0.0,0.0,0.0,0.0,0.0,0.0,0.0,0.0,0.0,0.0,0.0,0.0,0.0,0.0,0.0,0.0,0.0,0.0,0.0,0.0,0.0,0.0,0.0,0.0,0.0,0.0,0.0,0.0,0.0,0.0,0.0,0.0,0.0,-0.2323,0.0,0.0,0.0,0.0,0.0,0.0,0.0,0.0,0.0,0.0,0.0,0.0,0.0,0.0,0.0,0.0,0.0,0.0,0.0,0.0,0.0,0.0,0.0,0.0,0.0,0.0,0.0,0.0,0.0,0.0,0.0,0.0,0.0,0.0,0.0,0.0,0.0,0.0,0.0,0.0,0.0,0.2366,0.2322,0.2238,0.2092,0.1671,0.1335,0.1194,0.0796,0.0255,-0.0481,0.0,0.0,0.0,0.0,0.0,0.0,0.0,0.0,0.0,0.0,0.0,0.0,0.0,0.0,0.0,0.0,0.0,0.0,0.0,0.0,0.0,0.0,0.0,0.0,0.0,0.0,0.0,0.0,0.0,0.0,0.0,0.0,0.0,0.0,0.0,0.0,0.0,0.0,0.0,0.0,0.0,0.0,0.0,0.0,0.0,0.0,0.0,0.0,0.0,0.0,0.0,0.0,0.0,0.0,0.0,0.0,0.0,0.0,0.0,0.0,0.0,-0.2248,0.0,0.0,0.0,0.0,0.0,0.0,0.0,0.0,0.0,0.0,0.0,0.0,0.0,0.0,0.0,0.0,0.0,0.0,0.0,0.0,0.0,0.0,0.0,0.0,0.0,0.0,0.0,0.0,0.0,0.0,0.0,0.0,0.0,0.0,0.0,0.0,0.0,0.0,0.0,0.0,0.2452,0.2471,0.2447,0.2312,0.2132,0.1916,0.1625,0.1382,0.0958,0.033,0.0222,0.0,0.0,0.0,0.0,0.0,0.0,0.0,0.0,0.0,0.0,0.0,0.0,0.0,0.0,0.0,0.0,0.0,0.0,0.0,0.0,0.0,0.0,0.0,0.0,0.0,0.0,0.0,0.0,0.0,0.0,0.0,0.0,0.0,0.0,0.0,0.0,0.0,0.0,0.0,0.0,0.0,0.0,0.0,0.0,0.0,0.0,0.0,0.0,0.0,0.0,0.0,0.0,0.0,-0.2552,-0.2211,-0.183,-0.1897,-0.1708,-0.139,-0.1959,-0.2084,-0.1895,0.0,0.0,0.0,0.0,0.0,0.0,0.0,0.0,0.0,0.0,0.0,0.0,0.0,0.0,0.0,0.0,0.0,0.0,0.0,0.0,0.0,0.0,0.0,0.0,0.0,0.4307,0.4661,0.0,0.0,0.0,0.0,0.0,0.0,0.0,0.0,0.0,0.0,0.0,0.0,0.2676,0.267,0.2594,0.239,0.2474,0.2362,0.1868,0.1867,0.1588,0.0871,0.0746,0.0619,0.0,0.0,0.0,0.0,0.0,0.0,0.0,0.0,0.0,0.0,0.0,0.0,0.0,0.0,0.0,0.0,0.0,0.0,0.0,0.0,0.0,0.0,0.0,0.0,0.0,0.0,0.0,0.0,0.0,0.0,0.0,0.0,-0.4224,-0.4293,0.0,0.0,0.0,0.0,0.0,0.0,0.0,0.0,0.0,0.0,0.0,0.0,0.0,-0.2908,-0.2125,-0.2142,-0.1993,-0.1639,-0.1641,-0.1624,-0.1549,-0.1322,-0.1205,-0.1132,-0.1053,0.0,-0.1468,-0.1472,0.0,0.0,0.0,0.0,0.0,0.0,0.0,0.0,0.0,0.0,0.0,0.0,0.0,0.0,0.0,0.0,0.0,0.0,0.0,0.0,0.0,0.0,0.5707,0.5603,0.5638,0.5707,0.0,0.5005,0.4388,0.4175,0.4171,0.0,0.0,0.0,0.0,0.0,0.0,0.0,0.334,0.3324,0.3186,0.2693,0.2706,0.2747,0.2732,0.2684,0.2159,0.0955,0.077,0.0148,-0.1058,-0.1166,0.0,0.0,0.0,0.0,0.0,0.0,0.0,0.0,0.0,0.0,0.0,0.0,0.0,0.0,0.0,0.0,0.0,0.0,0.0,0.0,0.0,0.0,0.0,0.0,0.0,0.0,0.0,0.0,0.0,-0.3949,-0.3722,-0.3218,-0.3593,-0.3911,0.0,0.0,0.0,0.0,0.0,0.0,0.0,0.0,0.0,-0.219,-0.2048,-0.1792,-0.1446,-0.1374,-0.1235,-0.1056,-0.11,-0.1108,-0.1108,-0.0985,-0.0936,-0.0937,-0.0845,-0.091,-0.1055,-0.1068,-0.105,-0.1007,0.0,0.0,0.0,0.0,0.0741,0.1688,0.19,0.263,0.0,0.0,0.0,0.0,0.0,0.0,0.0,0.0,0.0,0.0,0.0,0.0,0.0,0.6145,0.6159,0.6179,0.6179,0.5849,0.5397,0.0,0.4908,0.4867,0.4367,0.0,0.0,0.0,0.0,0.0,0.3997,0.4064,0.3975,0.3628,0.3729,0.3666,0.332,0.3361,0.3058,0.218,0.2009,0.1674,0.11,0.0893,0.0778,0.0,0.0,0.0,0.0,0.0,0.0,0.0,0.0,0.0,0.0,0.0,0.0,0.0,0.0,0.0,0.0,0.0,0.0,0.0,0.0,0.0,0.0,0.0,0.0,0.0,0.0,0.0,0.0,-0.3187,-0.3016,-0.2316,-0.2861,-0.3292,0.0,0.0,0.0,0.0,0.0,0.0,-0.1629,-0.1586,-0.1479,-0.1252,-0.1064,-0.0973,-0.1032,-0.0872,-0.0809,-0.0794,-0.0791,-0.0661,-0.0381,-0.0329,-0.0126,0.0178,0.0254,0.0306,0.0281,-0.02,-0.0367,-0.0288,0.0,0.0613,0.1329,0.138,0.2094,0.3036,0.3284,0.4003,0.4704,0.4,0.0,0.4629,0.3652,0.0,0.0,0.0,0.0,0.6156,0.6156,0.6249,0.6336,0.6336,0.6377,0.6412,0.6412,0.6412,0.62,0.0,0.5611,0.5571,0.4936,0.0,0.0,0.0,0.0,0.4839,0.4672,0.4752,0.4693,0.4439,0.4526,0.4432,0.3925,0.4013,0.3864,0.3286,0.3138,0.3026,0.2885,0.2575,0.2432,0.2458,0.0,0.0,0.0,0.0,0.0,0.0,0.0,0.0,0.0,0.0,0.0,0.0,0.0,0.0,0.0,0.0,0.0,0.0,0.0,0.0,0.0,0.0,0.0,0.0,0.0,0.0,0.0,0.0,0.0,-0.1551,-0.1581,0.0,0.0,0.0,0.0,-0.1137,-0.1116,-0.1001,-0.078,-0.0758,-0.0779,-0.0823,-0.0825,-0.0807,-0.0822,-0.0796,-0.0798,-0.0798,-0.081,-0.0259,0.0724,0.0991,0.1729,0.2813,0.3071,0.3257,0.325,0.1455,0.0722,0.0832,0.1928,0.2364,0.2446,0.2706,0.3484,0.4408,0.457,0.5317,0.6184,0.6155,0.6155,0.6152,0.5976,0.5968,0.0,0.0,0.6141,0.6282,0.6282,0.6344,0.6401,0.6401,0.6406,0.6412,0.6412,0.6412,0.6374,0.0,0.6257,0.6201,0.6042,0.0,0.6025,0.602,0.6025,0.586,0.5407,0.5365,0.5176,0.4718,0.4679,0.4693,0.4647,0.4662,0.4367,0.3713,0.3598,0.3249,0.2562,0.251,0.2438,0.2302,0.23,0.0,0.0,0.0,0.0,0.0,0.0,0.0,0.0,0.0,0.0,0.0,0.0,0.0,0.0,0.0,0.0,0.0,0.0,0.0,0.0,0.0,0.0,0.0,0.0,0.0,0.0,0.0,0.0,-0.1502,-0.139,0.0,-0.13,-0.1096,-0.0926,-0.0863,-0.0875,-0.0835,-0.077,-0.0026,0.0387,0.0369,0.129,0.178,0.1784,0.1951,0.2032,0.2027,0.2045,0.2238,0.2606,0.2693,0.2981,0.3391,0.3499,0.3563,0.3607,0.3616,0.3218,0.2626,0.2869,0.3424,0.4111,0.4111,0.4806,0.5718,0.5782,0.6044,0.6377,0.6377,0.6328,0.6298,0.6301,0.6263,0.6243,0.629,0.632,0.6377,0.6377,0.6379,0.6412,0.6412,0.6412,0.6412,0.6412,0.6412,0.6401,0.6358,0.6342,0.6227,0.6002,0.5969,0.5942,0.5849,0.592,0.595,0.5866,0.5915,0.5914,0.5745,0.5757,0.5635,0.5245,0.5268,0.5024,0.4438,0.4334,0.4188,0.3923,0.4212,0.4336,0.4305,0.4582,0.4729,0.0,0.0,0.0,0.0,0.0,0.0,0.0,0.0,0.0,0.0,0.0,0.0,0.0,0.0,0.0,0.0,0.0,0.0,0.0,0.0,0.0,0.0,0.0,0.0,0.0,0.0,-0.1385,-0.1254,-0.1123,-0.1072,-0.1065,-0.0861,-0.0526,-0.0027,-0.0027,0.0189,0.0731,0.148,0.188,0.1865,0.2837,0.3341,0.3326,0.3507,0.3588,0.3603,0.3596,0.3778,0.4153,0.4179,0.4393,0.4744,0.4797,0.4809,0.4859,0.5496,0.5355,0.4725,0.4457,0.4836,0.5522,0.5433,0.5866,0.6471,0.6471,0.6471,0.6466,0.6423,0.6363,0.6339,0.639,0.6358,0.6339,0.639,0.6412,0.6412,0.6412,0.6412,0.6412,0.6412,0.6412,0.6412,0.6412,0.6412,0.6401,0.6363,0.635,0.6263,0.6062,0.6056,0.6022,0.5908,0.5989,0.6111,0.6192,0.6274,0.6323,0.6323,0.6368,0.623,0.5836,0.5847,0.5712,0.5361,0.5298,0.5286,0.5286,0.5567,0.573,0.5695,0.5963,0.6107,0.6083,0.0,0.0,0.0,0.0,0.0,0.0,0.0,0.0,0.0,0.0,0.0,0.0,0.0,0.0,0.0,0.0,0.0,0.0,0.0,0.0,0.0,0.0,0.0,-0.1058,-0.1089,-0.0996,-0.0728,-0.0709,-0.0726,-0.0741,-0.0695,0.0,0.1542,0.1546,0.2148,0.3723,0.3724,0.3661,0.3664,0.3695,0.3723,0.372,0.372,0.372,0.372,0.3713,0.4256,0.5266,0.5406,0.6036,0.7024,0.7144,0.7215,0.7188,0.6904,0.6877,0.6953,0.6709,0.659,0.6596,0.6596,0.6596,0.6601,0.6601,0.6596,0.6574,0.6455,0.6412,0.6412,0.6412,0.6412,0.6412,0.6412,0.6412,0.6412,0.6412,0.6412,0.6412,0.6412,0.6412,0.6412,0.6412,0.6412,0.6379,0.632,0.6361,0.6374,0.6309,0.6355,0.6363,0.6303,0.6355,0.0,0.6406,0.6406,0.6412,0.6417,0.6417,0.6423,0.6417,0.6417,0.6417,0.6412,0.6412,0.6412,0.6412,0.6412,0.6358,0.6298,0.6183,0.6118,0.6118,0.0,0.0,0.0,0.0,0.0,0.0,0.0,0.0,0.0,0.0,0.0,0.0,0.0,0.0,0.0,0.0,0.0,0.0,0.0,0.0,0.0,0.0,-0.08,-0.088,-0.0918,-0.0922,-0.0853,0.0173,0.0873,0.0879,0.1922,0.278,0.3243,0.3231,0.3402,0.385,0.4671,0.5075,0.4981,0.5832,0.6252,0.6204,0.6204,0.6204,0.6204,0.6204,0.6355,0.6664,0.6746,0.6908,0.7149,0.7328,0.7274,0.7062,0.7078,0.7002,0.6828,0.6558,0.6515,0.6596,0.6596,0.665,0.6752,0.6752,0.6692,0.659,0.6553,0.6482,0.6412,0.6412,0.6412,0.6412,0.6412,0.6412,0.6412,0.6412,0.6412,0.6412,0.6412,0.6412,0.6412,0.6412,0.6412,0.6401,0.6368,0.639,0.6347,0.6194,0.6159,0.617,0.6167,0.6165,0.0,0.6301,0.6363,0.6444,0.6536,0.6623,0.6639,0.6553,0.6542,0.6504,0.6417,0.6412,0.6412,0.6412,0.6412,0.6396,0.6363,0.6331,0.6314,0.0,0.0,0.0,0.0,0.0,0.0,0.0,0.0,0.0,0.0,0.0,0.0,0.0,0.0,0.0,0.0,0.0,0.0,0.0,0.0,0.0,0.0,-0.0054,0.0418,0.0368,0.023,0.0175,0.0297,0.1613,0.2496,0.2519,0.3342,0.413,0.4701,0.47,0.489,0.5456,0.61,0.6382,0.6246,0.6935,0.7273,0.723,0.723,0.723,0.723,0.723,0.7231,0.7215,0.7279,0.7269,0.0,0.741,0.7345,0.7095,0.7209,0.7062,0.0,0.0,0.0,0.0,0.0,0.6698,0.6796,0.6741,0.665,0.6585,0.6531,0.6466,0.6412,0.6412,0.6412,0.6412,0.6412,0.6412,0.6412,0.6412,0.6412,0.6412,0.6412,0.6412,0.6412,0.6412,0.6412,0.6428,0.6477,0.6488,0.0,0.6399,0.6344,0.6306,0.6306,0.6355,0.641,0.6511,0.6551,0.659,0.6661,0.6757,0.6774,0.6703,0.6698,0.0,0.0,0.0,0.6466,0.6412,0.6412,0.0,0.0,0.0,0.6515,0.0,0.0,0.0,0.0,0.6442,0.6467,0.0,0.0,0.0,0.0,0.0,0.0,0.0,0.0,0.0,0.0,0.0,0.0,0.0,0.0,0.0,0.0,0.1132,0.2123,0.2256,0.2024,0.1936,0.22,0.3356,0.4122,0.4122,0.4275,0.4858,0.6027,0.6012,0.6485,0.7681,0.0,0.0,0.0,0.0,0.7359,0.7349,0.7338,0.7327,0.7327,0.7327,0.729,0.7209,0.7301,0.7285,0.7226,0.741,0.7372,0.7171,0.7263,0.7078,0.6768,0.6618,0.658,0.6596,0.6596,0.6698,0.6785,0.6676,0.0,0.0,0.6466,0.6423,0.6412,0.6412,0.6412,0.6412,0.6412,0.6412,0.6412,0.6412,0.6412,0.6412,0.6412,0.6412,0.6412,0.6412,0.6412,0.6444,0.6553,0.6574,0.6618,0.6779,0.6714,0.6612,0.6612,0.673,0.6801,0.6801,0.6817,0.6823,0.6823,0.0,0.0,0.6823,0.6823,0.6768,0.6623,0.6612,0.6563,0.6455,0.645,0.6504,0.6612,0.6612,0.6692,0.6801,0.6801,0.6812,0.6823,0.6698,0.6698,0.0,0.0,0.0,0.0,0.0,0.0,0.0,0.0,0.0,0.0,0.0,0.0,0.0,0.0,0.0,0.1581,0.1837,0.2443,0.3682,0.3614,0.3467,0.3526,0.4698,0.5506,0.5506,0.6486,0.7225,0.75,0.7479,0.7633,0.8012,0.7995,0.0,0.7946,0.7848,0.7725,0.7633,0.7506,0.7457,0.7457,0.0,0.0,0.7278,0.7397,0.7361,0.7226,0.741,0.7328,0.7057,0.7171,0.698,0.6618,0.6493,0.6504,0.6596,0.6596,0.6698,0.6801,0.6774,0.6703,0.659,0.6563,0.6493,0.6412,0.6412,0.6412,0.0,0.6412,0.6412,0.6412,0.6412,0.6412,0.6412,0.6412,0.6412,0.6412,0.6412,0.6412,0.6417,0.6444,0.6444,0.6515,0.6763,0.6785,0.6768,0.6768,0.6785,0.6801,0.6801,0.6888,0.6948,0.6948,0.7057,0.7078,0.6986,0.6948,0.6899,0.6774,0.6768,0.6757,0.673,0.673,0.6741,0.6768,0.6768,0.6779,0.6801,0.6801,0.6855,0.6948,0.6823,0.6779,0.0,0.0,0.0,0.0,0.0,0.0,0.0,0.0,0.0,0.0,0.0,0.0287,0.0,0.0,0.2698,0.2183,0.3273,0.4472,0.5185,0.5784,0.5886,0.5199,0.6216,0.7,0.7,0.7619,0.7968,0.7908,0.7903,0.793,0.799,0.7995,0.7968,0.7908,0.7848,0.7758,0.7703,0.7578,0.7489,0.7489,0.743,0.7332,0.7247,0.7307,0.7297,0.7221,0.735,0.729,0.7095,0.7095,0.7024,0.6872,0.6687,0.6596,0.6596,0.6596,0.6634,0.6703,0.6612,0.6553,0.6504,0.6504,0.646,0.6412,0.6412,0.6412,0.6412,0.6412,0.6412,0.6412,0.6412,0.6412,0.6412,0.6412,0.6412,0.6412,0.6412,0.6412,0.645,0.6569,0.6596,0.6698,0.6964,0.7007,0.7007,0.7007,0.7007,0.7007,0.7007,0.7057,0.7095,0.7095,0.7149,0.716,0.71,0.7046,0.6959,0.6899,0.6834,0.6801,0.6801,0.6801,0.6834,0.6893,0.6893,0.6921,0.7007,0.7007,0.7035,0.7095,0.7035,0.7007,0.0,0.0,0.0,0.0,0.0,0.0,0.0,0.0,-0.0334,-0.0591,0.0596,0.1342,0.0283,0.2293,0.383,0.3076,0.4881,0.6476,0.6723,0.7472,0.7699,0.6845,0.7568,0.8121,0.8121,0.8121,0.8077,0.7979,0.7952,0.7946,0.7973,0.7952,0.7908,0.7807,0.778,0.7769,0.7769,0.7649,0.7578,0.7551,0.7424,0.7328,0.7215,0.7299,0.726,0.7215,0.7314,0.7331,0.726,0.7221,0.7221,0.7216,0.7018,0.6848,0.6681,0.6612,0.658,0.6547,0.6471,0.6444,0.645,0.6477,0.6482,0.6477,0.6455,0.6444,0.6444,0.6417,0.6412,0.6412,0.6412,0.6412,0.6412,0.6462,0.6437,0.6412,0.6462,0.6453,0.6504,0.6725,0.6785,0.6872,0.7111,0.7149,0.7155,0.7204,0.721,0.721,0.721,0.721,0.721,0.721,0.721,0.721,0.721,0.71,0.7046,0.7046,0.6926,0.6872,0.6872,0.6872,0.6915,0.7046,0.7046,0.7089,0.721,0.721,0.721,0.721,0.721,0.721,-0.1224,-0.1013,-0.086,-0.085,-0.0799,-0.072,0.0,0.0,0.1075,0.0114,0.1009,0.1932,0.1846,0.3063,0.4509,0.5734,0.6153,0.6797,0.8148,0.7285,0.699,0.8204,0.8253,0.8183,0.8183,0.8183,0.8177,0.8166,0.8126,0.811,0.8155,0.8126,0.811,0.8139,0.8099,0.8044,0.8044,0.7924,0.778,0.7682,0.7665,0.754,0.7289,0.7596,0.7534,0.721,0.7449,0.7566,0.7576,0.7808,0.7688,0.7388,0.7474,0.7297,0.6915,0.6698,0.6525,0.6444,0.6542,0.6574,0.659,0.6725,0.6763,0.6741,0.6607,0.6574,0.6553,0.6444,0.6412,0.6412,0.6412,0.6412,0.6462,0.6692,0.6562,0.6462,0.6692,0.665,0.658,0.6607,0.6725,0.6844,0.7007,0.7029,0.7068,0.7193,0.721,0.721,0.721,0.721,0.721,0.721,0.721,0.721,0.721,0.7199,0.7193,0.7193,0.7177,0.7144,0.7144,0.7144,0.7149,0.7188,0.7193,0.7199,0.721,0.721,0.721,0.721,0.721,0.721,-0.103,-0.0788,0.0,0.0,-0.0459,-0.0309,-0.0201,0.0263,0.0535,0.0091,0.1708,0.2983,0.2248,0.456,0.6562,0.0,0.7111,0.7862,0.8512,0.7987,0.7797,0.8507,0.8601,0.8534,0.8339,0.8435,0.8428,0.8204,0.8244,0.822,0.8154,0.8044,0.8001,0.8024,0.8192,0.8262,0.8262,0.8345,0.8348,0.8295,0.8219,0.8096,0.8014,0.8158,0.8058,0.7855,0.7973,0.7953,0.7854,0.7965,0.7901,0.7749,0.7802,0.7715,0.7483,0.6999,0.6801,0.6752,0.6736,0.6829,0.6965,0.7016,0.717,0.7305,0.7176,0.7135,0.708,0.6927,0.6861,0.6904,0.701,0.7028,0.7096,0.7281,0.7248,0.7196,0.7299,0.7289,0.727,0.734,0.7399,0.7481,0.7555,0.7578,0.7596,0.7648,0.7404,0.721,0.721,0.721,0.721,0.721,0.721,0.721,0.721,0.721,0.721,0.721,0.721,0.721,0.721,0.721,0.721,0.721,0.721,0.721,0.721,0.721,0.721,0.721,0.721,0.721,-0.0775,0.0,0.0,-0.0189,0.014,0.0465,0.0089,0.057,0.0976,0.0625,0.2731,0.4362,0.3433,0.5761,0.0,0.7097,0.7895,0.859,0.859,0.858,0.8624,0.874,0.8877,0.8874,0.8677,0.8722,0.8697,0.8542,0.8534,0.8468,0.8364,0.8279,0.8217,0.8177,0.8397,0.8549,0.8549,0.8696,0.8749,0.8706,0.8608,0.854,0.8497,0.8466,0.8427,0.842,0.8382,0.828,0.8152,0.8214,0.8214,0.8125,0.8125,0.8042,0.7868,0.7438,0.7235,0.7195,0.7138,0.7245,0.7466,0.7502,0.7699,0.79,0.7765,0.7697,0.7636,0.7443,0.7356,0.7376,0.7525,0.7556,0.7606,0.7757,0.7756,0.773,0.7782,0.7781,0.7783,0.7876,0.7925,0.7944,0.7939,0.7929,0.7919,0.7871,0.7505,0.7248,0.7299,0.7238,0.721,0.721,0.721,0.721,0.721,0.721,0.721,0.721,0.721,0.721,0.721,0.721,0.721,0.721,0.721,0.721,0.721,0.721,0.721,0.721,0.721,0.721,0.0,0.0,0.1608,0.0305,0.0976,0.1594,0.03,0.1948,0.3444,0.2188,0.4111,0.6059,0.6153,0.6344,0.6929,0.8296,0.8584,0.859,0.859,0.8884,0.9078,0.9084,0.9078,0.9164,0.0,0.9095,0.9024,0.935,0.8998,0.8842,0.8969,0.9025,0.8995,0.8861,0.8885,0.8885,0.8885,0.8879,0.8842,0.8706,0.8706,0.8632,0.8497,0.8374,0.8455,0.8697,0.8555,0.8491,0.8512,0.8768,0.8712,0.8484,0.8484,0.8291,0.798,0.7986,0.785,0.7701,0.7824,0.7953,0.8082,0.8217,0.8374,0.8454,0.8325,0.8189,0.8054,0.7919,0.7789,0.7691,0.7697,0.7697,0.775,0.8013,0.7888,0.7782,0.8039,0.7988,0.7888,0.7894,0.795,0.7967,0.7817,0.7811,0.7738,0.755,0.7376,0.7375,0.7566,0.7354,0.721,0.721,0.721,0.721,0.721,0.721,0.721,0.721,0.721,0.721,0.721,0.721,0.721,0.721,0.721,0.721,0.721,0.721,0.721,0.721,0.721,0.721,0.0,0.0,0.0554,0.0113,0.1001,0.1894,0.1473,0.2686,0.3825,0.3574,0.483,0.6005,0.6153,0.6914,0.7699,0.8237,0.8584,0.8827,0.8906,0.918,0.9288,0.9105,0.9438,0.0,0.0,0.0,0.0,0.9255,0.9174,0.91,0.8994,0.8971,0.8934,0.8885,0.9068,0.9153,0.9153,0.9396,0.9461,0.9446,0.9446,0.9419,0.9367,0.9229,0.9222,0.9296,0.9077,0.8963,0.8957,0.8919,0.8857,0.8768,0.8768,0.8685,0.8602,0.8602,0.8543,0.8457,0.8239,0.8314,0.8498,0.8549,0.8736,0.8922,0.8657,0.8524,0.8479,0.8453,0.8407,0.8394,0.8465,0.8492,0.8519,0.8594,0.8573,0.8566,0.8768,0.87,0.8644,0.8863,0.8828,0.8813,0.8848,0.8868,0.8685,0.8177,0.7713,0.7415,0.7403,0.733,0.7274,0.7274,0.7231,0.721,0.721,0.721,0.721,0.721,0.721,0.721,0.721,0.721,0.721,0.721,0.721,0.721,0.721,0.721,0.721,0.721,0.7236,0.7274,0.0,0.1338,0.1928,0.1471,0.2431,0.3338,0.2925,0.3813,0.4778,0.4903,0.587,0.671,0.6733,0.7566,0.825,0.8226,0.8623,0.8975,0.913,0.9402,0.9545,0.9498,0.9839,0.0,0.0,0.0,0.0,0.957,0.9531,0.9422,0.9292,0.9285,0.9271,0.922,0.9396,0.9488,0.9488,0.97,0.9792,0.9792,0.9792,0.9792,0.9785,0.9673,0.9578,0.9517,0.9288,0.9152,0.9097,0.8946,0.8912,0.8912,0.8912,0.8912,0.8912,0.8912,0.8912,0.8871,0.8601,0.8665,0.8867,0.8867,0.9049,0.9226,0.9008,0.8913,0.8866,0.8866,0.8832,0.8784,0.8885,0.8912,0.8912,0.8912,0.8953,0.9042,0.9158,0.9123,0.915,0.9347,0.9328,0.9279,0.9283,0.9238,0.9045,0.8583,0.8207,0.7854,0.7421,0.737,0.737,0.737,0.7328,0.7313,0.7313,0.7269,0.7248,0.7248,0.7204,0.721,0.721,0.721,0.721,0.721,0.721,0.721,0.721,0.7226,0.7248,0.7253,0.7316,0.737,0.2166,0.3723,0.5303,0.4103,0.4959,0.5784,0.4504,0.5347,0.6368,0.6248,0.7197,0.8028,0.0,0.0,0.8431,0.8322,0.8704,0.906,0.922,0.9525,0.9845,0.0,0.0,0.0,0.0,0.0,0.0,1.0283,0.0,0.9807,0.9805,0.9927,0.994,0.9798,0.9792,0.9792,0.9792,0.9792,0.9792,0.9792,0.9792,0.9792,0.9785,0.9673,0.9537,0.9424,0.9254,0.9111,0.8933,0.8919,0.8912,0.8912,0.8912,0.8912,0.8912,0.8912,0.8912,0.8912,0.8912,0.9035,0.9207,0.9207,0.9281,0.9396,0.939,0.9288,0.92,0.9207,0.9055,0.8919,0.8919,0.8926,0.8933,0.8926,0.9062,0.9221,0.9228,0.9315,0.9417,0.943,0.943,0.9361,0.9169,0.9034,0.8903,0.8737,0.8829,0.8576,0.7674,0.7559,0.7559,0.7559,0.7553,0.7519,0.7519,0.7381,0.7316,0.7316,0.7264,0.7226,0.7226,0.7226,0.7226,0.7226,0.7226,0.7226,0.7226,0.729,0.7316,0.7322,0.7441,0.75,0.3133,0.3819,0.4278,0.3969,0.4998,0.6051,0.5803,0.6764,0.7709,0.7679,0.7728,0.7843,0.0,0.0,0.0,0.8269,0.8915,0.0,0.9539,1.0083,0.0,0.0,0.0,1.0465,1.0149,1.0333,0.0,0.0,1.0004,0.9811,0.9792,0.9825,0.9832,0.9792,0.9792,0.9792,0.9792,0.9792,0.9792,0.9792,0.9792,0.9792,0.9785,0.9673,0.9646,0.9686,0.9342,0.9226,0.9252,0.9,0.8912,0.8912,0.8912,0.8912,0.8912,0.8912,0.8912,0.8912,0.8912,0.9035,0.9207,0.9207,0.9234,0.922,0.9083,0.8994,0.9015,0.9152,0.9152,0.9124,0.9124,0.9213,0.9239,0.9152,0.924,0.9383,0.9469,0.9435,0.9449,0.9666,0.9707,0.969,0.9633,0.9583,0.9474,0.92,0.9164,0.8999,0.8474,0.839,0.839,0.839,0.8066,0.7869,0.7869,0.7608,0.7441,0.7441,0.7442,0.7426,0.7426,0.7426,0.7426,0.7426,0.7426,0.7426,0.7426,0.743,0.7441,0.7446,0.7595,0.7655,0.4483,0.5042,0.559,0.574,0.6548,0.7292,0.7383,0.8054,0.86,0.8403,0.8189,0.0,0.0,0.0,0.0,0.0,0.0,0.0,0.9954,1.0299,1.0476,0.0,1.0538,0.0,1.0247,1.0384,1.046,0.0,1.0175,1.0032,0.9798,0.9852,0.9859,0.9792,0.9792,0.9792,0.9792,0.9792,0.9792,0.9792,0.9792,0.9792,0.9785,0.971,0.9713,0.9713,0.0,0.9356,0.9294,0.9103,0.8967,0.8912,0.8912,0.8912,0.8919,0.9008,0.8967,0.8919,0.9008,0.9042,0.9055,0.9055,0.9055,0.9042,0.8933,0.8912,0.8926,0.9035,0.9131,0.9207,0.9207,0.9294,0.939,0.9301,0.9396,0.9503,0.9591,0.9591,0.9625,0.9758,0.9792,0.9792,0.9792,0.9792,0.9731,0.9548,0.9518,0.9425,0.9226,0.8949,0.8798,0.8798,0.8552,0.8391,0.8391,0.816,0.8037,0.8037,0.7838,0.7723,0.7723,0.7723,0.7664,0.7489,0.7635,0.7635,0.7489,0.7573,0.76,0.76,0.772,0.7774,0.6055,0.6808,0.7881,0.8222,0.8569,0.8819,0.8842,0.8994,0.9048,0.8648,0.0,0.0,0.8249,0.0,0.9071,0.8958,0.0,1.0047,1.0253,1.0337,1.0426,1.0663,1.0657,1.0629,1.048,1.0383,1.0301,1.0249,1.0385,1.0283,0.9846,0.9927,0.9927,0.9792,0.9792,0.9792,0.9792,0.9792,0.9792,0.9792,0.9792,0.9792,0.9792,0.9792,0.9724,0.9639,0.0,0.0,0.924,0.9228,0.9117,0.8967,0.8926,0.8933,0.898,0.9124,0.9055,0.896,0.9138,0.9097,0.8933,0.8919,0.8912,0.8912,0.8912,0.8926,0.894,0.894,0.9069,0.9241,0.9241,0.9328,0.9437,0.9437,0.953,0.9646,0.9636,0.9737,0.9812,0.9792,0.9805,0.9819,0.9819,0.9839,0.9846,0.9825,0.9839,0.9846,0.9825,0.9348,0.9007,0.9007,0.8976,0.8946,0.8946,0.8805,0.8737,0.8737,0.8361,0.8119,0.8119,0.8119,0.7973,0.7685,0.7973,0.7973,0.7685,0.779,0.7845,0.7875,0.7975,0.7994,0.7444,0.8006,0.8391,0.8829,0.8944,0.8955,0.8969,0.8994,0.0,0.0,0.0,0.8407,0.8435,0.8505,0.0,0.9172,0.0,0.0,0.0,0.0,1.0616,0.0,0.0,0.0,0.0,0.0,0.0,0.0,0.0,1.0229,0.9988,0.9886,0.9819,0.9792,0.9792,0.9792,0.9792,0.9792,0.9792,0.9792,0.9792,0.9792,0.9792,0.9792,0.9778,0.9744,0.9659,0.0,0.951,0.9288,0.924,0.9279,0.9007,0.9061,0.9279,0.9027,0.9035,0.9145,0.92,0.9165,0.9124,0.8953,0.8912,0.8912,0.8912,0.9022,0.9145,0.9145,0.9254,0.9369,0.9369,0.9456,0.9571,0.9571,0.968,0.9792,0.9913,0.9961,0.994,0.9812,0.9893,0.9981,0.9981,1.0114,1.0154,0.9994,1.012,1.0154,0.9994,0.9781,0.964,0.964,0.9396,0.9214,0.9214,0.9012,0.8878,0.8878,0.8799,0.8757,0.8757,0.8757,0.8721,0.866,0.8721,0.8721,0.866,0.869,0.8696,0.8696,0.872,0.858,0.7974,0.8419,0.8744,0.9112,0.9192,0.9155,0.9198,0.0,0.0,0.0,0.0,0.8659,0.8711,0.0,0.0,0.0,0.0,0.0,0.0,0.0,0.0,0.0,0.0,0.0,0.0,0.0,0.0,0.0,0.0,1.0005,0.9907,0.9832,0.9792,0.9792,0.9792,0.9792,0.9792,0.9792,0.9792,0.9792,0.9792,0.9792,0.9792,0.9792,0.9792,0.9785,0.9717,0.0,0.9598,0.9449,0.9417,0.9396,0.9225,0.9252,0.9403,0.9313,0.9279,0.9315,0.939,0.9369,0.9288,0.9191,0.9171,0.9171,0.9171,0.9218,0.9301,0.9301,0.941,0.9503,0.9503,0.9612,0.972,0.972,0.9744,0.9852,1.0089,1.0076,1.0021,1.0059,1.012,1.0168,1.0168,1.0229,1.0256,1.0181,1.0236,1.0288,1.0181,1.0107,1.0059,1.0059,0.9837,0.9661,0.9661,0.9472,0.9366,0.9366,0.922,0.9098,0.9098,0.9098,0.9037,0.8915,0.9037,0.9037,0.8885,0.8885,0.8885,0.8885,0.8885,0.8824,0.8366,0.8715,0.9074,0.9374,0.9422,0.9422,0.9431,0.943,0.0,0.0,0.0,0.8912,0.8912,0.0,0.0,0.0,0.0,0.0,0.0,0.0,0.0,0.0,0.0,0.0,0.0,0.0,0.0,0.0,0.0,0.0,0.9792,0.9792,0.9792,0.9792,0.9792,0.9792,0.9792,0.9792,0.9792,0.9792,0.9792,0.9792,0.9792,0.9792,0.9792,0.9792,0.9792,0.0,0.0,0.9618,0.9557,0.9469,0.9437,0.9451,0.9483,0.9537,0.9503,0.9449,0.9564,0.953,0.9435,0.9462,0.9464,0.941,0.941,0.943,0.9429,0.9429,0.9537,0.9652,0.9652,0.971,0.9798,0.9832,0.9886,1.0019,1.0236,1.0209,1.0143,1.0263,1.0304,1.0324,1.0324,1.0383,1.0397,1.0363,1.0351,1.0397,1.0363,1.0351,1.0378,1.0378,1.0177,1.0055,0.999,0.9907,0.9825,0.9792,0.9548,0.9409,0.9442,0.9416,0.9324,0.9142,0.9324,0.9305,0.9098,0.9098,0.9098,0.9098,0.9098,0.9068,0.9043,0.9238,0.9368,0.9806,0.9832,0.9721,0.9595,0.0,0.0,0.0,0.8912,0.8912,0.8912,0.8933,0.0,0.0,0.0,0.0,0.0,0.0,0.0,0.0,0.0,0.0,0.0,0.0,0.0,0.0,0.0,0.0,0.9792,0.9792,0.9792,0.9792,0.9792,0.9792,0.9792,0.9792,0.9792,0.9792,0.9792,0.9792,0.9792,0.9792,0.9792,0.9792,0.9792,0.0,0.0,0.9659,0.968,0.9754,0.9483,0.9544,0.9717,0.9496,0.9483,0.9591,0.9605,0.9598,0.9612,0.9741,0.9598,0.941,0.941,0.9476,0.9591,0.9591,0.9693,0.9771,0.9771,0.9778,0.9825,0.9961,1.0204,1.0399,1.0335,1.0371,1.0419,1.0335,1.0385,1.0473,1.0473,1.0588,1.0629,1.0493,1.0588,1.0629,1.0487,1.0595,1.0644,1.0644,1.0426,1.0202,1.0028,0.9977,0.994,0.9798,0.9761,0.9822,0.9932,0.9835,0.9791,0.9901,0.9798,0.9731,0.9731,0.9731,0.9731,0.9731,0.9731,0.9548,0.918,0.9457,0.9673,0.9919,0.9771,0.9564,0.9598,0.0,0.0,0.8933,0.8912,0.8912,0.8912,0.8912,0.8953,0.0,0.0,0.0,0.0,0.0,0.0,0.0,0.0,0.0,0.0,0.0,0.0,0.0,0.0,0.0,0.9792,0.9792,0.9792,0.9792,0.9792,0.9792,0.9792,0.9792,0.9792,0.9792,0.9792,0.9792,0.9792,0.9792,0.9792,0.9792,0.9792,0.0,0.0,0.9731,0.9737,0.9778,0.9693,0.972,0.9778,0.9686,0.9686,0.9704,0.9704,0.9704,0.9717,0.9771,0.9741,0.9646,0.9646,0.9686,0.9704,0.9704,0.9744,0.9792,0.9792,0.9859,0.9988,1.0224,1.0337,1.0399,1.0521,1.0514,1.05,1.0541,1.0514,1.0493,1.0493,1.0473,1.0432,1.0403,1.0487,1.0527,1.0417,1.0493,1.0548,1.0466,1.0426,1.0385,1.0317,1.0236,1.0161,1.01,0.9981,0.9994,1.0181,0.992,0.9907,1.0181,0.9913,0.9839,0.9927,0.9927,0.9927,0.9927,0.9927,0.9834,0.9271,0.9576,0.9819,0.9927,0.9683,0.9462,0.0,0.0,0.896,0.8919,0.8912,0.8912,0.8912,0.8912,0.8912,0.8912,0.0,0.9306,0.0,0.0,0.0,0.0,0.0,0.0,0.0,0.0,0.0,0.0,0.0,0.0,0.0,0.9792,0.9792,0.9792,0.9792,0.9792,0.9792,0.9792,0.9792,0.9792,0.9792,0.9792,0.9792,0.9792,0.9792,0.9792,0.0,0.0,0.0,0.9792,0.9792,0.9792,0.9792,0.9792,0.9792,0.9792,0.9819,0.9859,0.9859,0.9859,0.9859,0.9859,0.9825,0.9792,0.9792,0.9792,0.9792,0.9792,0.9792,0.9792,0.9792,0.9907,1.0069,1.031,1.0317,1.0337,1.0548,1.0507,1.046,1.0568,1.05,1.0432,1.0432,1.0344,1.0315,1.0315,1.0365,1.0412,1.0383,1.0432,1.0473,1.0419,1.05,1.0521,1.0439,1.0378,1.0324,1.0315,1.0175,1.0157,1.0337,1.0093,1.008,1.0337,1.0086,0.9981,1.0082,1.0082,1.0082,1.0082,1.0082,1.0062,0.9482,0.9683,0.9792,0.9792,0.9683,0.9564,0.0,0.0,0.9138,0.894,0.8912,0.8912,0.8912,0.8912,0.8912,0.8912,0.8912,0.0,0.0,0.0,0.0,0.0,0.0,0.0,0.0,0.0,0.0,0.0,0.0,0.0,0.0,0.9792,0.9792,0.9792,0.9792,0.9792,0.9792,0.9792,0.9792,0.9792,0.9792,0.9792,0.9792,0.9792,0.9792,0.0,0.0,0.0,0.0,0.9792,0.9792,0.9792,0.9792,0.9792,0.9792,0.9792,0.9886,0.9984,0.9984,0.9984,0.9984,0.9984,0.9913,0.9792,0.9792,0.9792,0.9792,0.9792,0.9792,0.9792,0.9792,0.9907,0.9984,0.999,1.0168,1.0315,1.0315,1.0315,1.0315,1.0315,1.0315,1.0315,1.0315,1.0315,1.0315,1.0315,1.0315,1.0363,1.0473,1.0487,1.0548,1.0664,1.0684,1.0602,1.0304,1.0412,1.0432,1.0322,1.0308,1.0376,1.048,1.0383,1.0376,1.0487,1.0351,1.0308,1.0308,1.0308,1.0308,1.0308,1.0308,1.0195,0.9232,0.9437,0.9544,0.9652,0.9483,0.9342,0.9396,0.0,0.8967,0.8919,0.8912,0.8912,0.8912,0.8912,0.8912,0.8912,0.9022,0.0,0.0,0.0,0.0,0.0,0.0,0.0,0.0,0.0,0.0,0.0,0.0,0.0,0.0,0.9792,0.9792,0.9792,0.9792,0.9792,0.9792,0.9792,0.9792,0.9792,0.9792,0.9792,0.9792,0.9792,0.0,0.0,0.0,0.0,0.0,0.99,0.9886,0.9798,0.9907,0.9879,0.9792,0.9792,0.9886,1.0001,0.99,0.9934,0.9984,0.9984,0.9988,0.9967,1.01,0.9985,0.9792,0.9792,0.9792,0.9812,0.992,0.9981,1.0042,1.0181,1.0243,1.0315,1.0315,1.0358,1.0426,1.0426,1.0344,1.0315,1.0315,1.0107,1.0005,1.0076,1.0215,1.0329,1.0376,1.0432,1.0473,1.0426,1.0507,1.0568,1.0582,1.0622,1.0629,1.0582,1.048,1.0493,1.0643,1.0412,1.0399,1.0643,1.0405,1.0363,1.0426,1.0426,1.0426,1.0426,1.0426,1.0344,0.0,0.9254,0.943,0.9496,0.9369,0.0,0.0,0.0,0.8912,0.8912,0.8912,0.8912,0.8912,0.8912,0.8912,0.8912,0.0,0.0,0.0,0.0,0.0,0.0,0.0,0.0,0.0,0.0,0.0,0.0,0.0,0.0,0.0,0.9792,0.9792,0.9792,0.9792,0.9792,0.9792,0.9792,0.9792,0.9792,0.9792,0.9792,0.9792,0.9792,0.0,0.0,0.0,0.0,0.0,0.9913,0.9879,0.9798,0.9893,0.9873,0.9792,0.9792,0.9886,0.997,0.9907,0.994,0.9984,0.9984,0.9981,0.9961,1.0116,1.0028,0.9866,0.9805,0.9792,0.9812,0.9907,0.9934,0.9954,1.0086,1.0107,1.012,1.0181,1.0263,1.0344,1.0399,1.0369,1.0315,1.0315,1.012,1.0025,1.0089,1.0215,1.0329,1.0383,1.0439,1.048,1.0446,1.0527,1.0616,1.0677,1.0684,1.0711,1.0772,1.0663,1.0649,1.0765,1.0575,1.0534,1.0684,1.0541,1.0487,1.0575,1.0575,1.0575,1.0575,1.0575,1.05,0.0,0.0,0.0,0.0,0.0,0.0,0.0,0.0,0.0,0.8912,0.8912,0.8912,0.8912,0.8912,0.8912,0.8912,0.0,0.0,0.0,0.0,0.0,0.0,0.0,0.0,0.0,0.0,0.0,0.0,0.0,0.0,0.0,0.9792,0.9792,0.9792,0.9792,0.9792,0.9792,0.9792,0.9792,0.9792,0.9792,0.9792,0.9792,0.9798,0.0,0.0,0.0,0.0,0.0,0.9859,0.9798,0.9792,0.9805,0.9798,0.9792,0.9792,0.9886,0.9984,0.9977,0.9977,0.9984,0.9984,0.9934,0.9859,0.9981,1.0008,0.9974,0.9832,0.9792,0.9792,0.9792,0.9792,0.9792,0.9792,0.9792,0.9832,0.9988,0.9997,1.0082,1.0263,1.0297,1.0297,1.0297,1.0297,1.0297,1.0297,1.0349,1.0371,1.0493,1.0521,1.0575,1.0704,1.0684,1.0691,1.0704,1.0704,1.0765,1.0907,1.0779,1.0765,1.0873,1.0765,1.0684,1.0684,1.0684,1.0684,1.0684,1.0684,1.0684,1.0684,1.0684,1.0643,0.0,0.0,0.0,0.0,0.0,0.0,0.0,0.0,0.0,0.0,0.0,0.8912,0.8912,0.8912,0.8912,0.0,0.0,0.0,0.0,0.0,0.0,0.0,0.0,0.0,0.0,0.0,0.0,0.0,0.0,0.0,0.0,0.9792,0.9792,0.9792,0.9792,0.9792,0.9792,0.9792,0.9792,0.9792,0.9792,0.9792,0.9792,0.9913,0.0,0.0,0.0,0.0,0.9852,0.9934,0.9893,0.9805,0.992,0.9893,0.9792,0.9792,0.9886,0.997,0.9886,0.992,0.9984,0.9984,1.015,1.0297,1.0138,0.9964,0.9839,0.9798,0.9792,0.9792,0.9792,0.9792,0.9792,0.9792,0.9792,0.9832,0.9988,1.0109,1.027,1.0412,1.0439,1.0439,1.0439,1.0439,1.0439,1.0439,1.0643,1.0725,1.0644,1.0738,1.0779,1.0698,1.0684,1.0732,1.0853,1.086,1.0874,1.0914,1.088,1.088,1.0914,1.0765,1.0684,1.0684,1.0684,1.0684,1.0684,1.0684,1.0684,1.0684,1.0684,1.0671,0.0,0.0,0.0,0.0,0.0,0.0,0.0,0.0,0.0,0.0,0.0,0.0,0.8912,0.0,0.0,0.0,0.0,0.0,0.0,0.0,0.0,0.0,0.0,0.0,0.0,0.0,0.0,0.0,0.0,0.0,0.0,0.9792,0.9792,0.9792,0.9792,0.9792,0.9792,0.9792,0.9792,0.9792,0.9792,0.9792,0.9792,0.9879,0.9907,0.0,0.0,0.0,0.9893,0.9907,0.9866,0.9798,0.9879,0.9866,0.9792,0.9792,0.9846,0.99,0.9819,0.9893,0.9984,0.9984,1.0123,1.0224,1.01,0.9944,0.9792,0.9792,0.9792,0.9792,0.9792,0.9792,0.9792,0.9792,0.9846,0.994,1.0089,1.027,1.0419,1.0568,1.0595,1.0595,1.0595,1.0595,1.0595,1.0595,1.0704,1.0779,1.0698,1.0759,1.0806,1.0792,1.0792,1.0853,1.1036,1.1076,1.1117,1.1117,1.0988,1.0948,1.1043,1.0839,1.0684,1.0684,1.0684,1.0684,1.0684,1.0684,1.0684,1.0684,1.0684,1.0684,0.0,0.0,0.0,0.0,0.0,0.0,0.0,0.0,0.0,0.0,0.0,0.0,0.0,0.0,0.0,0.0,0.0,0.0,0.0,0.0,0.0,0.0,0.0,0.0,0.0,0.0,0.0,0.0,0.0,0.0,0.0,0.9792,0.9792,0.9792,0.9792,0.9792,0.9792,0.9792,0.9792,0.9792,0.9792,0.9792,0.9792,0.9812,0.9886,0.0,0.0,0.0,0.9974,0.9846,0.9792,0.9792,0.9792,0.9792,0.9792,0.9792,0.9792,0.9792,0.9792,0.9893,0.9984,0.9988,0.997,0.9984,0.9988,0.9893,0.9792,0.9792,0.9792,0.9792,0.9792,0.9792,0.9798,0.9819,0.994,1.0096,1.0283,1.0426,1.0568,1.0697,1.0684,1.0684,1.0684,1.0725,1.0772,1.0691,1.0765,1.0799,1.0732,1.0792,1.0819,1.0907,1.0934,1.0995,1.1186,1.1301,1.1402,1.1423,1.113,1.1016,1.1159,1.0887,1.0711,1.0684,1.0684,1.0684,1.0684,1.0684,1.0684,1.0684,1.0684,1.0684,0.8464,0.8594,0.0,0.0,0.0,0.0,0.0,0.0,0.0,0.0,0.0,0.0,0.0,0.0,0.0,0.0,0.0,0.0,0.0,0.0,0.0,0.0,0.0,0.0,0.0,0.0,0.0,0.0,0.0,0.0,0.0,0.9792,0.9792,0.9792,0.9792,0.9792,0.9792,0.9792,0.9792,0.9792,0.9792,0.9792,0.9798,0.9927,0.9927,0.0,0.0,0.9927,0.9825,0.9798,0.9792,0.9792,0.9792,0.9792,0.9792,0.9792,0.9792,0.9792,0.9792,0.9893,0.9963,0.9866,0.9913,0.9994,0.9866,0.9812,0.9792,0.9792,0.9792,0.9792,0.9792,0.9792,0.9825,0.9954,1.0134,1.0283,1.0426,1.0575,1.069,1.0717,1.0684,1.0684,1.0684,1.0928,1.1043,1.0725,1.1117,1.1306,1.0928,1.1131,1.1199,1.0941,1.1056,1.1172,1.1193,1.1301,1.1443,1.1572,1.1423,1.1219,1.0955,1.0907,1.0819,1.0691,1.0684,1.0684,1.0684,1.0684,1.0684,1.0684,1.0684,1.0684,0.8355,0.8444,0.8526,0.0,0.0,0.0,0.0,0.0,0.0,0.0,0.0,0.0,0.0,0.0,0.0,0.0,0.0,0.0,0.0,0.0,0.0,0.0,0.0,0.0,0.0,0.0,0.0,0.0,0.0,0.0,0.0,0.0,0.9758,0.9677,0.9751,0.9751,0.9677,0.9751,0.9792,0.9792,0.9792,0.9792,0.9792,0.9859,0.9859,0.9792,0.0,0.9852,0.9792,0.9792,0.9792,0.9792,0.9792,0.9792,0.9792,0.9792,0.9792,0.9792,0.9792,0.9893,0.9994,0.9839,0.9893,0.9988,0.9839,0.9792,0.9792,0.9792,0.9792,0.9812,0.9893,0.9913,0.9954,1.0109,1.029,1.0412,1.048,1.0609,1.0684,1.0684,1.0684,1.0684,1.0684,1.09,1.1002,1.0833,1.1145,1.1301,1.109,1.1185,1.1246,1.1192,1.1246,1.1356,1.1402,1.147,1.1511,1.1497,1.143,1.1294,1.107,1.1063,1.1029,1.0962,1.0846,1.0813,1.0813,1.0725,1.0684,1.0691,1.0772,1.0813,0.8267,0.8321,0.8403,0.0,0.0,0.8784,0.8885,0.0,0.0,0.0,0.0,0.0,0.0,0.0,0.0,0.0,0.0,0.0,0.0,0.0,0.0,0.0,0.0,0.0,0.0,0.0,0.0,0.0,0.0,0.0,0.0,0.0,0.969,0.9612,0.9683,0.972,0.9612,0.9717,0.9792,0.9792,0.9792,0.9792,0.9792,0.9792,0.9792,0.9792,0.9792,0.9792,0.9792,0.9792,0.9792,0.9792,0.9792,0.9792,0.9792,0.9792,0.9792,0.9792,0.9792,0.9866,0.9947,0.9832,0.9893,0.9988,0.9839,0.9839,0.9924,0.9852,0.9873,0.992,0.9994,0.9984,1.0069,1.0283,1.0439,1.0548,1.0548,1.0663,1.0732,1.0691,1.0718,1.0738,1.0738,1.0894,1.1009,1.0968,1.1151,1.1295,1.1254,1.1281,1.1336,1.1382,1.1423,1.1491,1.157,1.1584,1.1572,1.145,1.1443,1.1375,1.1254,1.1247,1.1234,1.12,1.1056,1.0948,1.0914,1.0833,1.0806,1.0745,1.0894,1.0961,0.8294,0.8396,0.8498,0.8519,0.8437,0.0,0.8818,0.0,0.0,0.0,0.0,0.0,0.0,0.0,0.0,0.0,0.0,0.0,0.0,0.0,0.0,0.0,0.0,0.0,0.0,0.0,0.0,0.0,0.0,0.0,0.0,0.0,0.0,0.9612,0.9618,0.9618,0.9612,0.9717,0.9792,0.9792,0.9792,0.9792,0.9792,0.9792,0.9792,0.9792,0.9792,0.9792,0.9792,0.9792,0.9792,0.9792,0.9792,0.9792,0.9792,0.9792,0.9792,0.9792,0.9792,0.9798,0.9805,0.9792,0.9893,0.9988,0.9839,1.0019,1.0215,1.0042,1.0103,1.0215,1.0049,0.9984,1.0089,1.0405,1.0595,1.0704,1.0704,1.0792,1.086,1.0718,1.0799,1.0901,1.0901,1.1137,1.1314,1.1206,1.1396,1.1538,1.1396,1.1497,1.1538,1.1402,1.1518,1.1606,1.1619,1.1584,1.1613,1.1606,1.1606,1.1538,1.1382,1.1375,1.1342,1.12,1.1186,1.1084,1.0914,1.107,1.1063,1.0901,1.1084,1.1179,0.8101,0.8235,0.8396,0.8485,0.0,0.0,0.0,0.0,0.0,0.0,0.0,0.0,0.0,0.0,0.0,0.0,0.0,0.0,0.0,0.0,0.0,0.0,0.0,0.0,0.0,0.0,0.0,0.0,0.0,0.0,0.0,0.0,0.0,0.9469,0.9557,0.9612,0.9612,0.9659,0.9704,0.9792,0.9792,0.9792,0.9792,0.9792,0.9792,0.9792,0.9792,0.9792,0.9792,0.9792,0.9792,0.9792,0.9792,0.9792,0.9792,0.9792,0.9792,0.9792,0.9792,0.9792,0.9792,0.9792,0.9893,0.9977,0.9947,1.0114,1.027,1.0209,1.0236,1.029,1.0317,1.0324,1.0346,1.0582,1.0644,1.0684,1.0684,1.0732,1.0786,1.0819,1.0874,1.0941,1.1063,1.1253,1.1369,1.1314,1.1484,1.1563,1.1538,1.1586,1.1597,1.166,1.1678,1.1678,1.1626,1.1584,1.1584,1.1584,1.1584,1.1592,1.1538,1.1531,1.1504,1.145,1.1355,1.128,1.1226,1.1185,1.1166,1.1084,1.1233,1.1307,0.7988,0.8094,0.8235,0.0,0.0,0.0,0.0,0.0,0.0,0.0,0.0,0.0,0.0,0.0,0.0,0.0,0.0,0.0,0.0,0.0,0.0,0.0,0.0,0.0,0.0,0.0,0.0,0.0,0.0,0.0,0.0,0.0,0.0,0.0,0.953,0.9585,0.9537,0.9585,0.9659,0.9724,0.9724,0.9744,0.9792,0.9792,0.9792,0.9792,0.9792,0.9792,0.9792,0.9792,0.9792,0.9792,0.9792,0.9792,0.9792,0.9792,0.9792,0.9792,0.9792,0.9792,0.9798,0.9846,0.9967,1.0089,1.0089,1.0263,1.0412,1.0397,1.0385,1.0439,1.0541,1.0527,1.0527,1.0683,1.0684,1.0684,1.0684,1.0684,1.0732,1.0887,1.0955,1.1063,1.1247,1.1362,1.1463,1.1463,1.1552,1.1584,1.1584,1.1624,1.1705,1.1891,1.1904,1.1864,1.1769,1.1762,1.1735,1.1651,1.1735,1.1714,1.1584,1.1584,1.1584,1.1584,1.1518,1.1436,1.1389,1.1335,1.1315,1.1274,1.1389,1.1463,0.7988,0.7988,0.0,0.0,0.0,0.0,0.0,0.0,0.0,0.0,0.0,0.0,0.0,0.0,0.0,0.0,0.0,0.0,0.0,0.0,0.0,0.0,0.0,0.0,0.0,0.0,0.0,0.0,0.0,0.0,0.0,0.0,0.0,0.0,0.953,0.9537,0.9417,0.9537,0.9612,0.9612,0.9612,0.9686,0.9792,0.9792,0.9792,0.9792,0.9792,0.9792,0.9792,0.9792,0.9792,0.9792,0.9792,0.9792,0.9792,0.9792,0.9792,0.9792,0.9792,0.9792,0.9819,0.9967,1.0154,1.0315,1.0315,1.0487,1.0657,1.0534,1.0602,1.0684,1.0684,1.0609,1.0534,1.0683,1.0684,1.0684,1.0691,1.0691,1.0732,1.0887,1.107,1.1247,1.1369,1.1518,1.1584,1.1584,1.1584,1.1584,1.1584,1.1712,1.1891,1.2084,1.2098,1.2098,1.2098,1.2098,1.1993,1.1807,1.1979,1.1968,1.1597,1.1584,1.1584,1.1584,1.1584,1.1545,1.1396,1.1545,1.1545,1.1396,1.1552,1.1584,0.8047,0.0,0.0,0.0,0.0,0.0,0.0,0.0,0.0,0.0,0.0,0.0,0.0,0.0,0.0,0.0,0.0,0.0,0.0,0.0,0.0,0.0,0.0,0.0,0.0,0.0,0.0,0.0,0.0,0.0,0.0,0.0,0.0,0.0,0.953,0.9591,0.9544,0.9585,0.9612,0.9612,0.9707,0.9751,0.9792,0.9792,0.9792,0.9792,0.9792,0.9792,0.9792,0.9792,0.9792,0.9792,0.9792,0.9792,0.9792,0.9792,0.9792,0.9792,0.9792,0.9859,0.9961,0.997,1.0191,1.0426,1.0426,1.0568,1.0677,1.0663,1.0683,1.0684,1.0684,1.065,1.0663,1.0677,1.0684,1.0718,1.0826,1.0846,1.0921,1.1212,1.1294,1.1369,1.1525,1.1556,1.1584,1.1584,1.1584,1.1617,1.1719,1.1993,1.2128,1.2104,1.2193,1.222,1.2111,1.2098,1.2077,1.1993,1.2077,1.1968,1.1597,1.1678,1.1685,1.1584,1.1678,1.1658,1.1552,1.1694,1.1658,1.1552,1.1563,1.1584,0.804,0.0,0.0,0.0,0.0,0.0,0.0,0.0,0.0,0.0,0.0,0.0,0.0,0.0,0.0,0.0,0.0,0.0,0.0,0.0,0.0,0.0,0.0,0.0,0.0,0.0,0.0,0.0,0.0,0.0,0.0,0.0,0.0,0.0,0.953,0.9578,0.9517,0.9456,0.949,0.9612,0.9632,0.968,0.971,0.9765,0.9792,0.9792,0.9792,0.9792,0.9792,0.9792,0.9792,0.9792,0.9792,0.9792,0.9792,0.9792,0.9792,0.9792,0.9792,0.9893,0.9997,1.0089,1.0304,1.05,1.0561,1.0649,1.0684,1.0684,1.0684,1.0684,1.0684,1.0684,1.0684,1.0684,1.0732,1.0799,1.0894,1.0961,1.1104,1.1348,1.1389,1.1457,1.1667,1.1665,1.1721,1.1789,1.1796,1.185,1.1993,1.2176,1.2277,1.2244,1.2318,1.2338,1.2281,1.2275,1.2254,1.2193,1.2241,1.2101,1.1809,1.178,1.178,1.1796,1.178,1.178,1.1796,1.1884,1.185,1.1665,1.1665,1.1638,0.0,0.0,0.0,0.0,0.0,0.0,0.0,0.0,0.0,0.0,0.0,0.0,0.0,0.0,0.0,0.0,0.0,0.0,0.0,0.0,0.0,0.0,0.0,0.0,0.0,0.0,0.0,0.0,0.0,0.0,0.0,0.0,0.0,0.939,0.951,0.9517,0.939,0.9267,0.9335,0.0,0.9442,0.9462,0.9612,0.9724,0.9792,0.9792,0.9792,0.9792,0.9792,0.9792,0.9792,0.9792,0.9792,0.9792,0.9792,0.9792,0.9792,0.9792,0.9792,0.9893,1.0042,1.0229,1.0378,1.0521,1.0677,1.0684,1.0684,1.0684,1.0684,1.0684,1.0684,1.0698,1.0711,1.0711,1.0813,1.0921,1.0928,1.1084,1.1261,1.1382,1.1409,1.1504,1.1746,1.1793,1.1884,1.2077,1.2111,1.2173,1.2271,1.2298,1.2359,1.2488,1.2501,1.2501,1.2501,1.2501,1.2447,1.2318,1.2433,1.2379,1.2152,1.1952,1.1932,1.2098,1.1938,1.1938,1.2098,1.2111,1.2006,1.1813,1.1813,1.1746,0.0,0.8775,0.0,0.0,0.0,0.0,0.0,0.0,0.0,0.0,0.0,0.0,0.0,0.0,0.0,0.0,0.0,0.0,0.0,0.0,0.0,0.0,0.0,0.0,0.0,0.0,0.0,0.0,0.0,0.0,0.0,0.0,0.0,0.9233,0.9383,0.9383,0.9233,0.9315,0.9335,0.0,0.9369,0.9462,0.9612,0.9724,0.9792,0.9792,0.9792,0.9792,0.9792,0.9792,0.9792,0.9792,0.9792,0.9792,0.9792,0.9792,0.9792,0.9792,0.9792,0.9893,1.0042,1.0229,1.0378,1.0521,1.0677,1.0684,1.0684,1.0684,1.0684,1.0684,1.0684,1.0779,1.0867,1.0867,1.0887,1.0948,1.109,1.1233,1.1389,1.1538,1.1572,1.1626,1.1766,1.1793,1.1884,1.2077,1.22,1.225,1.2284,1.2386,1.2467,1.2501,1.2501,1.2501,1.2501,1.2501,1.2488,1.2461,1.2481,1.2474,1.2413,1.2271,1.2149,1.2098,1.2149,1.2149,1.2098,1.222,1.2162,1.205,1.205,1.2036,0.0,0.0,0.0,0.0,0.0,0.0,0.0,0.0,0.0,0.0,0.0,0.0,0.0,0.0,0.0,0.0,0.0,0.0,0.0,0.0,0.0,0.0,0.0,0.0,0.0,0.0,0.0,0.0,0.0,0.0,0.0,0.9104,0.9207,0.9207,0.926,0.926,0.9207,0.9164,0.9164,0.9214,0.926,0.9417,0.9612,0.9724,0.9792,0.9792,0.9792,0.9792,0.9792,0.9792,0.9792,0.9792,0.9792,0.9792,0.9792,0.9792,0.9792,0.9792,0.9792,0.9893,1.0028,1.0109,1.0317,1.0507,1.0588,1.0663,1.0684,1.0684,1.0684,1.0684,1.0684,1.0745,1.0826,1.0894,1.0968,1.109,1.1274,1.1335,1.1436,1.1556,1.1584,1.1631,1.1773,1.1915,1.2101,1.2288,1.2338,1.2393,1.2393,1.2454,1.2501,1.2501,1.2501,1.2501,1.2501,1.2501,1.2501,1.2501,1.2501,1.2501,1.2501,1.2433,1.2352,1.2277,1.2284,1.2284,1.2271,1.2352,1.2318,1.2207,1.2207,1.2173,0.0,0.0,0.0,0.0,0.0,0.0,0.0,0.0,0.0,0.0,0.0,0.0,0.0,0.0,0.0,0.0,0.0,0.0,0.0,0.0,0.0,0.0,0.0,0.0,0.0,0.0,0.0,0.0,0.0,0.0,0.8912,0.9049,0.9145,0.9145,0.9145,0.9145,0.9145,0.8967,0.8994,0.9145,0.92,0.9328,0.9578,0.972,0.9765,0.9792,0.9765,0.9765,0.9792,0.9792,0.9792,0.9792,0.9792,0.9792,0.9792,0.9792,0.9792,0.9792,0.9792,0.9873,0.9981,0.9977,1.0184,1.0426,1.0473,1.0582,1.065,1.0677,1.0684,1.0724,1.0718,1.0745,1.0833,1.0955,1.1118,1.1274,1.1362,1.1409,1.147,1.1592,1.1604,1.1658,1.1773,1.2088,1.2332,1.2447,1.2467,1.2474,1.2501,1.2481,1.2474,1.2501,1.2501,1.2501,1.2501,1.2501,1.2501,1.2501,1.2501,1.2501,1.2501,1.2501,1.2501,1.2501,1.2386,1.2386,1.2501,1.2501,1.244,1.2325,1.2325,1.2295,0.0,0.0,0.0,0.0,0.0,0.0,0.0,0.0,0.0,0.0,0.0,0.0,0.0,0.0,0.0,0.0,0.0,0.0,0.0,0.0,0.0,0.0,0.0,0.0,0.0,0.0,0.0,0.0,0.0,0.0,0.8912,0.8926,0.894,0.894,0.894,0.894,0.894,0.8919,0.8919,0.894,0.9124,0.9274,0.9444,0.9571,0.9707,0.9785,0.9693,0.9677,0.9792,0.9792,0.9792,0.9792,0.9792,0.9792,0.9792,0.9792,0.9792,0.9792,0.9792,0.9805,0.9846,0.9974,1.0042,1.0123,1.0412,1.0507,1.0548,1.0683,1.0684,1.0718,1.0846,1.1009,1.1179,1.1294,1.1348,1.1369,1.1389,1.1497,1.1592,1.1613,1.1678,1.1773,1.1793,1.2088,1.2298,1.2318,1.2318,1.2366,1.2488,1.2393,1.2366,1.2488,1.2501,1.2501,1.2501,1.2501,1.2501,1.2501,1.2501,1.2501,1.2501,1.2501,1.2501,1.2501,1.2481,1.2481,1.2501,1.2501,1.2488,1.2474,1.2474,1.2461,0.0,0.0,0.0,0.0,0.0,0.0,0.0,0.0,0.0,0.0,0.0,0.0,0.0,0.0,0.0,0.0,0.0,0.0,0.0,0.0,0.0,0.0,0.0,0.0,0.0,0.0,0.0,0.0,0.0,0.8912,0.8912,0.8912,0.8912,0.8912,0.8912,0.8912,0.8912,0.8912,0.8912,0.8912,0.9111,0.9248,0.9288,0.9437,0.9564,0.97,0.969,0.9731,0.9792,0.9792,0.9792,0.9792,0.9792,0.9792,0.9792,0.9792,0.9792,0.9792,0.9792,0.9792,0.9798,0.9866,1.0008,1.0202,1.0331,1.0487,1.0636,1.0671,1.0684,1.0725,1.0874,1.0961,1.1104,1.1335,1.1389,1.1416,1.1497,1.1504,1.1518,1.1606,1.1638,1.1769,1.1932,1.2074,1.2254,1.2386,1.2406,1.2433,1.2494,1.2447,1.2433,1.2494,1.2501,1.2501,1.2501,1.2501,1.2501,1.2501,1.2501,1.2501,1.2501,1.2501,1.2501,1.2501,1.2501,1.2501,1.2501,1.2501,1.2501,1.2501,1.2501,1.2461,0.0,0.0,0.0,0.0,0.0,0.0,0.0,0.0,0.0,0.0,0.0,0.0,0.0,0.0,0.0,0.0,0.0,0.0,0.0,0.0,0.0,0.0,0.0,0.0,0.0,0.0,0.0,0.0,0.0,0.8912,0.8912,0.8912,0.8912,0.8912,0.8912,0.8912,0.8912,0.8912,0.8926,0.8967,0.9062,0.9145,0.9214,0.9342,0.9442,0.9557,0.9707,0.9758,0.9792,0.9792,0.9792,0.9792,0.9792,0.9792,0.9792,0.9792,0.9792,0.9792,0.9792,0.9792,0.9792,0.9792,1.0005,1.0229,1.027,1.046,1.067,1.0677,1.0684,1.0732,1.0921,1.0968,1.1043,1.1375,1.145,1.1484,1.1592,1.1531,1.1484,1.1599,1.1584,1.1701,1.1959,1.207,1.2186,1.2406,1.2447,1.2461,1.2494,1.2467,1.2461,1.2501,1.2501,1.2501,1.2501,1.2501,1.2501,1.2501,1.2501,1.2501,1.2501,1.2501,1.2501,1.2501,1.2501,1.2501,1.2501,1.2501,1.2501,1.2501,1.2501,1.2447,0.0,0.0,0.0,0.0,0.0,0.0,0.0,0.0,0.0,0.0,0.0,0.0,0.0,0.0,0.0,0.0,0.0,0.0,0.0,0.0,0.0,0.0,0.0,0.0,0.0,0.0,0.0,0.0,0.0,0.8912,0.8912,0.8912,0.8912,0.8912,0.8912,0.8912,0.8912,0.8912,0.9008,0.9172,0.9015,0.9022,0.9214,0.9342,0.9417,0.943,0.9557,0.97,0.9792,0.9792,0.9792,0.9792,0.9792,0.9792,0.9792,0.9792,0.9792,0.9792,0.9792,0.9792,0.9792,0.9792,0.99,1.0055,1.0236,1.0385,1.0534,1.0644,1.0684,1.0752,1.1111,1.1186,1.1261,1.1538,1.1606,1.157,1.1619,1.1577,1.1577,1.1619,1.1584,1.1667,1.178,1.1965,1.2152,1.2277,1.2298,1.2352,1.2481,1.2386,1.2352,1.2488,1.2501,1.2501,1.2501,1.2501,1.2501,1.2501,1.2501,1.2501,1.2501,1.2501,1.2501,1.2501,1.2501,1.2501,1.2501,1.2501,1.2501,1.2501,1.2501,1.2501,0.0,0.0,0.0,0.0,0.0,0.0,0.0,0.0,0.0,0.0,0.0,0.0,0.0,0.0,0.0,0.0,0.0,0.0,0.0,0.0,0.0,0.0,0.0,0.0,0.0,0.0,0.0,0.0,0.0,0.0,0.8912,0.8912,0.8912,0.8912,0.8912,0.8912,0.8912,0.8912,0.8933,0.9015,0.8933,0.894,0.9022,0.9199,0.9267,0.9281,0.9503,0.9693,0.9792,0.9792,0.9792,0.9792,0.9792,0.9792,0.9792,0.9792,0.9792,0.9792,0.9792,0.9792,0.9792,0.9792,0.9992,1.0209,1.0263,1.0446,1.0649,1.0704,1.0684,1.0792,1.1118,1.12,1.1274,1.1545,1.1584,1.1584,1.1584,1.1584,1.1647,1.1698,1.1719,1.18,1.2081,1.2169,1.2257,1.2406,1.2427,1.244,1.2494,1.2461,1.2447,1.2494,1.2589,1.261,1.2508,1.2684,1.2712,1.2515,1.2589,1.2603,1.2508,1.2501,1.2501,1.2501,1.2501,1.2501,1.2501,1.2501,1.2501,1.2501,1.2501,1.2454,0.0,0.0,0.0,0.0,0.0,0.0,0.0,0.0,0.0,0.0,0.0,0.0,0.0,0.0,0.0,0.0,0.0,0.0,0.0,0.0,0.0,0.0,0.0,0.0,0.0,0.0,0.0,0.0,0.0,0.0,0.8912,0.8912,0.8912,0.8912,0.8912,0.8912,0.8912,0.8912,0.8912,0.8912,0.8912,0.8912,0.8919,0.9117,0.9234,0.9274,0.9496,0.9659,0.9724,0.9771,0.9792,0.9792,0.9792,0.9792,0.9792,0.9792,0.9792,0.9792,0.9792,0.9792,0.9792,0.9792,1.0032,1.0315,1.0315,1.0487,1.0684,1.0684,1.0684,1.0792,1.1118,1.1274,1.1369,1.1572,1.1584,1.1584,1.1584,1.1584,1.1624,1.1766,1.1793,1.1925,1.2237,1.2291,1.2338,1.2481,1.2501,1.2501,1.2501,1.2501,1.2522,1.2576,1.2671,1.2712,1.2657,1.288,1.2894,1.2596,1.2632,1.2645,1.2583,1.2576,1.2603,1.2657,1.2657,1.263,1.2576,1.2528,1.2501,1.2501,1.2501,1.2447,0.0,0.0,0.0,0.0,0.0,0.0,0.0,0.0,0.0,0.0,0.0,0.0,0.0,0.0,0.0,0.0,0.0,0.0,0.0,0.0,0.0,0.0,0.0,0.0,0.0,0.0,0.0,0.0,0.0,0.9244,0.8912,0.8912,0.8912,0.8912,0.8912,0.8912,0.8912,0.8912,0.8912,0.8912,0.8912,0.8912,0.8919,0.9111,0.9254,0.9403,0.9537,0.9605,0.9612,0.9731,0.9792,0.9792,0.9792,0.9792,0.9792,0.9792,0.9792,0.9792,0.9792,0.9792,0.9792,0.9792,1.0032,1.0315,1.0315,1.0487,1.0684,1.0684,1.0684,1.0792,1.1118,1.1389,1.1584,1.1584,1.1584,1.1584,1.1584,1.1584,1.1667,1.1773,1.1807,1.1901,1.2244,1.2298,1.2345,1.2481,1.2508,1.2508,1.2501,1.2508,1.2562,1.2672,1.2693,1.28,1.2989,1.3009,1.2901,1.2699,1.2693,1.2693,1.2686,1.2686,1.28,1.2982,1.2996,1.2881,1.2686,1.2576,1.2508,1.2501,1.2501,1.2501,1.4148,0.0,0.0,0.0,0.0,0.0,0.0,0.0,0.0,0.0,0.0,0.0,0.0,0.0,0.0,0.0,0.0,0.0,0.0,0.0,0.0,0.0,0.0,0.0,0.0,0.0,0.0,0.0,0.9541,0.9244,0.8912,0.8912,0.8912,0.8912,0.8912,0.8912,0.8912,0.8912,0.8912,0.8912,0.8912,0.8912,0.8912,0.8953,0.8994,0.9048,0.9334,0.9442,0.9462,0.972,0.9792,0.9792,0.9792,0.9792,0.9792,0.9792,0.9792,0.9792,0.9792,0.9792,0.9792,0.9792,1.0032,1.0315,1.0315,1.0487,1.0684,1.0684,1.0684,1.0792,1.1118,1.1389,1.1584,1.1584,1.1584,1.1584,1.1584,1.1665,1.1816,1.1965,1.2088,1.2223,1.2413,1.244,1.2454,1.2494,1.2596,1.2623,1.2515,1.2596,1.2645,1.2686,1.2827,1.2955,1.2996,1.32,1.3125,1.2713,1.2834,1.28,1.2576,1.2632,1.2698,1.263,1.2887,1.2827,1.2562,1.263,1.2571,1.2501,1.2501,1.2501,0.0,0.0,0.0,0.0,0.0,0.0,0.0,1.7421,0.0,0.0,0.0,0.0,0.0,0.0,0.0,0.0,0.0,0.0,0.0,0.0,0.0,0.0,0.0,0.0,0.0,0.0,0.0,0.9844,0.9651,0.9375,0.894,0.8912,0.8912,0.8912,0.8912,0.8912,0.8912,0.8912,0.8912,0.8912,0.8912,0.8912,0.8912,0.8912,0.8946,0.9042,0.9279,0.9415,0.9496,0.9727,0.9792,0.9792,0.9792,0.9792,0.9792,0.9792,0.9792,0.9792,0.9792,0.9792,0.9792,0.9792,1.0032,1.0315,1.0315,1.0487,1.0684,1.0684,1.0806,1.0948,1.1152,1.1389,1.1584,1.1584,1.1584,1.1584,1.1584,1.1692,1.1877,1.207,1.222,1.2338,1.2474,1.2501,1.2501,1.2501,1.2576,1.2603,1.2515,1.2576,1.2684,1.2813,1.2948,1.305,1.3173,1.3302,1.3234,1.2854,1.2948,1.2921,1.2698,1.2779,1.284,1.2874,1.299,1.2901,1.2596,1.2645,1.2611,1.2501,1.2501,1.2501,0.0,0.0,0.0,0.0,0.0,0.0,1.7113,1.7206,1.7354,0.0,0.0,0.0,0.0,0.0,0.0,0.0,0.0,0.0,0.0,0.0,0.0,0.0,0.0,0.0,0.0,1.1326,1.0394,0.9844,0.9734,0.9458,0.894,0.8912,0.8912,0.8912,0.8912,0.8912,0.8912,0.8912,0.8912,0.8912,0.8912,0.8912,0.8912,0.8912,0.9015,0.9221,0.9342,0.9469,0.9618,0.9731,0.9792,0.9792,0.9792,0.9792,0.9792,0.9792,0.9792,0.9792,0.9792,0.9792,0.9792,0.9792,1.0032,1.0315,1.0315,1.0487,1.0684,1.0684,1.0934,1.12,1.12,1.1389,1.1584,1.1584,1.1584,1.1584,1.1584,1.1692,1.1834,1.205,1.2176,1.2332,1.2454,1.2488,1.2501,1.2501,1.2515,1.2522,1.2501,1.2515,1.2637,1.2969,1.2982,1.3064,1.3376,1.337,1.3241,1.3016,1.2982,1.2975,1.2975,1.2989,1.3125,1.3349,1.32,1.2996,1.2693,1.2672,1.2637,1.2501,1.2501,1.2501,0.0,0.0,0.0,0.0,0.0,0.0,1.7113,1.7206,1.7354,0.0,0.0,0.0,0.0,0.0,0.0,0.0,0.0,0.0,0.0,0.0,0.0,0.0,0.0,0.0,0.0,1.1101,0.9926,0.9816,0.9348,0.9023,0.8912,0.8912,0.8912,0.8912,0.8912,0.8912,0.8912,0.8912,0.8912,0.8912,0.8912,0.8912,0.8912,0.8912,0.9015,0.9221,0.9342,0.9469,0.9618,0.9731,0.9792,0.9792,0.9792,0.9792,0.9792,0.9792,0.9792,0.9792,0.9792,0.9792,0.9792,0.9792,1.0032,1.0315,1.0315,1.0487,1.0684,1.0684,1.0934,1.12,1.12,1.1389,1.1584,1.1584,1.1584,1.1584,1.1584,1.1692,1.18,1.1834,1.2101,1.2298,1.2325,1.2427,1.2501,1.2501,1.261,1.2598,1.2515,1.261,1.2759,1.2982,1.2847,1.2942,1.3363,1.318,1.3064,1.3003,1.284,1.2773,1.2773,1.2895,1.303,1.3084,1.2895,1.2786,1.2693,1.261,1.2528,1.2501,1.2501,1.2501,0.0,0.0,0.0,1.6257,0.0,0.0,0.0,1.6846,1.6913,1.7475,0.0,0.0,0.0,0.0,0.0,0.0,0.0,0.0,0.0,0.0,0.0,0.0,0.0,0.0,0.0,1.2018,1.0551,0.9678,0.9154,0.8912,0.8912,0.8912,0.8912,0.8912,0.8912,0.8912,0.8912,0.8912,0.8912,0.8912,0.8912,0.8912,0.8912,0.8912,0.8953,0.9055,0.9286,0.9422,0.951,0.9734,0.9792,0.9792,0.9792,0.9792,0.9792,0.9792,0.9792,0.9792,0.9792,0.9839,0.9907,0.9907,1.0141,1.0385,1.0385,1.0541,1.0684,1.0684,1.0934,1.12,1.12,1.1389,1.1584,1.1584,1.1584,1.1584,1.1584,1.1638,1.1712,1.178,1.202,1.2241,1.2277,1.2406,1.2501,1.2501,1.2569,1.2589,1.2515,1.2569,1.2678,1.2827,1.2779,1.2854,1.3159,1.3084,1.2969,1.2854,1.2773,1.2726,1.284,1.2847,1.2847,1.2847,1.2766,1.2652,1.2617,1.2535,1.2501,1.2501,1.2501,1.2501,0.0,0.0,0.0,0.0,0.0,1.6179,0.0,0.0,0.0,1.7032,0.0,0.0,0.0,0.0,0.0,0.0,0.0,0.0,0.0,0.0,0.0,0.0,0.0,0.0,0.0,1.2754,1.0932,0.941,0.9051,0.8912,0.8912,0.8912,0.8912,0.8912,0.8912,0.8912,0.8912,0.8912,0.8912,0.8912,0.8912,0.8912,0.8912,0.8912,0.8926,0.8967,0.9266,0.943,0.9449,0.9713,0.9792,0.9792,0.9792,0.9792,0.9792,0.9792,0.9792,0.9792,0.9792,0.9893,0.9984,0.9984,1.0218,1.0493,1.0527,1.0622,1.0724,1.0725,1.0955,1.1206,1.1234,1.1409,1.1584,1.1584,1.1584,1.1584,1.1584,1.1604,1.1651,1.1739,1.1959,1.2179,1.2271,1.2406,1.2501,1.2501,1.2501,1.2501,1.2501,1.2501,1.2562,1.2672,1.2665,1.2759,1.2982,1.2948,1.2847,1.2779,1.2718,1.2779,1.303,1.2881,1.276,1.2773,1.2706,1.2618,1.2501,1.2501,1.2501,1.2501,1.2501,1.2501,0.0,0.0,0.0,0.0,1.6658,0.0,0.0,0.0,1.702,1.6794,0.0,0.0,0.0,0.0,0.0,0.0,0.0,0.0,0.0,0.0,0.0,0.0,0.0,0.0,0.0,0.0,0.963,0.9002,0.8912,0.8912,0.8912,0.8912,0.8912,0.8912,0.8912,0.8912,0.8912,0.8912,0.8912,0.8912,0.8912,0.8912,0.8912,0.8912,0.9008,0.9165,0.9335,0.9456,0.9598,0.9724,0.9792,0.9792,0.9792,0.9792,0.9792,0.9792,0.9792,0.9792,0.9792,0.9893,0.9984,0.9984,1.0218,1.0514,1.0656,1.0704,1.0718,1.0846,1.1036,1.1227,1.1363,1.1491,1.1584,1.1584,1.1584,1.1584,1.1584,1.1678,1.1739,1.1631,1.1979,1.2271,1.2284,1.2406,1.2501,1.2501,1.2501,1.2501,1.2501,1.2501,1.2562,1.2672,1.261,1.2644,1.2975,1.2751,1.2664,1.2962,1.2678,1.2718,1.3173,1.3173,1.3105,1.2975,1.28,1.2618,1.2501,1.2501,1.2501,1.2501,1.2501,1.2501,0.0,0.0,0.0,0.0,0.0,0.0,0.0,0.0,1.6725,0.0,0.0,0.0,0.0,0.0,0.0,0.0,0.0,0.0,0.0,0.0,0.0,0.0,0.0,0.0,0.0,0.0,0.0,0.0,0.0,0.8912,0.8912,0.8912,0.8912,0.8912,0.8912,0.8912,0.8912,0.8912,0.8912,0.8912,0.8912,0.8912,0.8912,0.8912,0.9015,0.9221,0.9342,0.9469,0.9618,0.9731,0.9792,0.9792,0.9792,0.9792,0.9792,0.9792,0.9792,0.9805,0.9893,0.9961,1.0017,1.0218,1.0453,1.0636,1.0671,1.0684,1.0698,1.0765,1.0982,1.1213,1.1274,1.1436,1.1584,1.1584,1.1584,1.1584,1.1584,1.1631,1.1705,1.1857,1.2064,1.221,1.2386,1.2461,1.2501,1.2501,1.2501,1.2501,1.2501,1.2501,1.2528,1.2589,1.2542,1.2556,1.2684,1.2576,1.2556,1.2684,1.2778,1.2894,1.3084,1.3166,1.3064,1.2834,1.2726,1.2618,1.2501,1.2501,1.2501,1.2501,1.2501,1.2501,1.4861,0.0,0.0,0.0,0.0,0.0,0.0,0.0,0.0,0.0,0.0,0.0,0.0,0.0,0.0,0.0,0.0,0.0,0.0,0.0,0.0,0.0,0.0,0.0,0.0,0.0,0.0,0.9523,0.9127,0.8912,0.8912,0.8912,0.8912,0.8912,0.8912,0.8912,0.8912,0.8912,0.8912,0.8912,0.8912,0.8912,0.8912,0.8912,0.9015,0.9221,0.9342,0.9469,0.9618,0.9731,0.9792,0.9792,0.9792,0.9792,0.9792,0.9792,0.9819,0.9866,0.9981,1.0069,1.0184,1.0473,1.0629,1.0684,1.0684,1.0684,1.0698,1.0738,1.0968,1.1206,1.1247,1.1423,1.1584,1.1584,1.1584,1.1584,1.1584,1.1611,1.1728,1.1904,1.2077,1.222,1.2352,1.2447,1.2501,1.2501,1.2501,1.2501,1.2501,1.2501,1.2501,1.2501,1.2501,1.2501,1.2501,1.2501,1.2522,1.2562,1.2888,1.3105,1.3064,1.3159,1.3071,1.2854,1.2813,1.2718,1.2562,1.2562,1.2542,1.2501,1.2501,1.2501,0.0,0.0,0.0,1.4845,0.0,0.0,0.0,0.0,1.662,0.0,0.0,0.0,0.0,0.0,0.0,0.0,0.0,0.0,0.0,0.0,0.0,0.0,0.0,0.0,0.0,0.0,0.0,1.1068,0.9711,0.8912,0.8912,0.8912,0.8912,0.8912,0.8912,0.8912,0.8912,0.8912,0.8912,0.8912,0.8912,0.8912,0.8912,0.8912,0.9015,0.9221,0.9342,0.9469,0.9618,0.9731,0.9792,0.9792,0.9792,0.9792,0.9792,0.9792,0.9886,0.9977,0.9984,1.0204,1.0507,1.0663,1.0684,1.0684,1.0684,1.0684,1.0718,1.0867,1.105,1.1234,1.1348,1.1504,1.1584,1.1584,1.1584,1.1584,1.1584,1.1692,1.1753,1.1624,1.1986,1.2275,1.2139,1.2311,1.2501,1.2501,1.2501,1.2501,1.2501,1.2501,1.2501,1.2501,1.2501,1.2501,1.2501,1.2501,1.2562,1.2672,1.3139,1.3322,1.3214,1.3214,1.3207,1.32,1.3064,1.2874,1.2686,1.2686,1.2644,1.2501,1.2501,1.2501,0.0,0.0,1.1906,1.4122,0.0,0.0,0.0,0.0,0.0,0.0,0.0,0.0,0.0,0.0,0.0,0.0,0.0,0.0,0.0,0.0,0.0,0.0,0.0,0.0,0.0,0.0,0.0,1.1116,0.9636,0.8804,0.8906,0.8912,0.8912,0.8912,0.8912,0.8912,0.8912,0.8912,0.8912,0.8912,0.8912,0.8912,0.8912,0.9035,0.9192,0.9342,0.9462,0.9612,0.9724,0.9771,0.9792,0.9792,0.9792,0.9792,0.9792,0.9792,0.9825,0.9879,0.9981,1.0278,1.0636,1.0582,1.0636,1.0684,1.0684,1.0684,1.0718,1.0874,1.105,1.1234,1.1383,1.1504,1.1584,1.1584,1.1584,1.1584,1.1584,1.1653,1.1735,1.1884,1.207,1.222,1.2325,1.2433,1.2501,1.2501,1.2501,1.2501,1.2501,1.2501,1.2501,1.2501,1.2589,1.261,1.2508,1.2596,1.2759,1.301,1.3166,1.3275,1.3322,1.3322,1.3275,1.3214,1.3166,1.3071,1.2881,1.2779,1.2665,1.2611,1.2549,1.2501,1.0956,1.0722,0.0,1.2512,1.3224,0.0,1.5425,0.0,0.0,0.0,0.0,0.0,0.0,0.0,0.0,0.0,0.0,0.0,0.0,0.0,0.0,0.0,0.0,0.0,0.0,0.0,1.196,1.1172,0.9644,0.8804,0.0,0.0,0.8912,0.8912,0.8912,0.8912,0.8912,0.8912,0.8912,0.8912,0.8912,0.8912,0.8912,0.9035,0.9213,0.9417,0.9483,0.9639,0.9792,0.9792,0.9792,0.9792,0.9792,0.9792,0.9792,0.9792,0.989,1.0012,1.0184,1.0447,1.0704,1.0602,1.0636,1.0684,1.0684,1.0684,1.0718,1.0874,1.105,1.1234,1.1383,1.1504,1.1584,1.1584,1.1584,1.1584,1.1584,1.1624,1.1755,1.1945,1.2104,1.2241,1.2393,1.2467,1.2501,1.2501,1.2501,1.2522,1.2576,1.2583,1.2603,1.2657,1.2705,1.2652,1.2589,1.2773,1.2969,1.32,1.322,1.3295,1.3397,1.3403,1.3356,1.3254,1.3254,1.322,1.3077,1.2888,1.2786,1.2686,1.2576,1.2501]},{"header":{"parameterUnit":"m.s-1","parameterCategory":1,"la1":30.6,"la2":29.2853,"lo1":-89.7004,"lo2":-87.6739,"dx":0.0162,"dy":0.0183,"nx":112,"ny":82,"refTime":"2023-02-02T18:00:00:Z","depth":0,"parameterNumber":3,"parameterNumberName":"V-component_of_WINDS"},"data":[0.0,0.0,0.0,0.0,0.0,0.0,0.0,0.0,0.0,0.0,0.0,0.0,0.0,0.0,0.0,0.0,0.0,0.0,0.0,0.0,0.0,0.0,0.0,0.0,0.0,0.0,0.0,0.0,0.0,0.0,0.0,0.0,0.0,0.0,0.0,0.0,0.0,0.0,0.0,0.0,0.0,0.0,0.0,0.0,0.0,0.0,0.0,0.0,0.0,0.0,0.0,0.0,0.0,0.0,0.0,0.0,0.0,0.0,0.0,0.0,0.0,0.0,0.0,0.0,0.0,0.0,0.0,0.0,0.0,0.0,0.0,0.0,0.0,0.0,0.0,0.0,0.0,0.0,0.0,0.0,0.0,0.0,0.0,0.0,0.0,0.0,0.0,0.0,0.0,0.0,0.0,2.6886,2.762,2.8745,3.0342,3.2089,3.2747,3.1852,0.0,0.0,0.0,0.0,0.0,0.0,0.0,0.0,0.0,0.0,0.0,0.0,0.0,0.0,0.0,0.0,0.0,0.0,0.0,0.0,0.0,0.0,0.0,0.0,0.0,0.0,0.0,0.0,0.0,0.0,0.0,0.0,0.0,0.0,0.0,0.0,0.0,0.0,0.0,0.0,0.0,0.0,0.0,0.0,0.0,0.0,0.0,0.0,0.0,0.0,0.0,0.0,0.0,0.0,0.0,0.0,0.0,0.0,0.0,0.0,0.0,0.0,0.0,0.0,0.0,0.0,0.0,0.0,0.0,0.0,0.0,0.0,0.0,0.0,0.0,0.0,0.0,0.0,0.0,0.0,0.0,0.0,0.0,0.0,0.0,0.0,0.0,0.0,0.0,0.0,0.0,0.0,0.0,0.0,0.0,0.0,0.0,0.0,0.0,0.0,0.0,0.0,0.0,0.0,2.6886,2.6886,2.762,2.8511,2.9525,3.1193,3.1815,3.0964,0.0,0.0,0.0,0.0,0.0,0.0,0.0,0.0,0.0,0.0,0.0,0.0,0.0,0.0,0.0,0.0,0.0,0.0,0.0,0.0,0.0,0.0,0.0,0.0,0.0,0.0,0.0,0.0,0.0,0.0,0.0,0.0,0.0,0.0,0.0,0.0,0.0,0.0,0.0,0.0,0.0,0.0,0.0,0.0,0.0,0.0,0.0,0.0,0.0,0.0,0.0,0.0,0.0,0.0,0.0,0.0,0.0,0.0,0.0,0.0,0.0,0.0,0.0,0.0,0.0,0.0,0.0,0.0,0.0,0.0,0.0,0.0,0.0,0.0,0.0,0.0,0.0,0.0,0.0,0.0,0.0,0.0,0.0,0.0,0.0,0.0,0.0,0.0,0.0,0.0,0.0,0.0,0.0,0.0,0.0,0.0,0.0,0.0,0.0,0.0,0.0,0.0,0.0,2.7503,2.7192,2.63,2.7346,2.8277,2.8667,3.1155,3.2128,3.077,3.2324,0.0,0.0,0.0,0.0,0.0,0.0,0.0,0.0,0.0,0.0,0.0,0.0,0.0,0.0,0.0,0.0,0.0,0.0,0.0,0.0,0.0,0.0,0.0,0.0,0.0,0.0,0.0,0.0,0.0,0.0,0.0,0.0,0.0,0.0,0.0,0.0,0.0,0.0,0.0,0.0,0.0,0.0,0.0,0.0,0.0,0.0,0.0,0.0,0.0,0.0,0.0,0.0,0.0,0.0,0.0,0.0,0.0,0.0,0.0,0.0,0.0,0.0,0.0,0.0,0.0,0.0,0.0,0.0,0.0,0.0,0.0,0.0,0.0,0.0,0.0,0.0,0.0,0.0,0.0,0.0,0.0,0.0,0.0,0.0,0.0,0.0,0.0,0.0,0.0,0.0,0.0,0.0,0.0,0.0,0.0,0.0,0.0,0.0,0.0,0.0,0.0,0.0,2.7369,2.7018,2.5738,2.6928,2.7968,2.8356,3.1038,3.2205,3.1081,3.2244,0.0,0.0,0.0,0.0,0.0,0.0,0.0,0.0,0.0,0.0,0.0,0.0,0.0,0.0,0.0,0.0,0.0,0.0,0.0,0.0,0.0,0.0,0.0,0.0,0.0,0.0,0.0,0.0,0.0,0.0,0.0,0.0,0.0,0.0,0.0,0.0,0.0,0.0,0.0,0.0,0.0,0.0,0.0,0.0,0.0,0.0,0.0,0.0,0.0,0.0,0.0,0.0,0.0,0.0,0.0,0.0,0.0,0.0,0.0,0.0,0.0,0.0,0.0,0.0,0.0,0.0,0.0,0.0,0.0,0.0,0.0,0.0,0.0,0.0,0.0,0.0,0.0,0.0,0.0,0.0,0.0,0.0,0.0,0.0,0.0,0.0,0.0,0.0,0.0,0.0,0.0,0.0,0.0,0.0,0.0,0.0,0.0,0.0,0.0,0.0,0.0,0.0,2.6723,2.5712,2.5597,2.6412,2.7623,2.9173,3.0265,3.1197,3.1852,3.2007,0.0,0.0,0.0,0.0,0.0,0.0,0.0,0.0,0.0,0.0,0.0,0.0,0.0,0.0,0.0,0.0,0.0,0.0,0.0,0.0,0.0,0.0,0.0,0.0,0.0,0.0,0.0,0.0,0.0,0.0,0.0,0.0,0.0,0.0,0.0,0.0,0.0,0.0,0.0,0.0,0.0,0.0,0.0,0.0,0.0,0.0,0.0,0.0,0.0,0.0,0.0,0.0,0.0,0.0,0.0,0.0,0.0,0.0,0.0,0.0,0.0,0.0,0.0,0.0,0.0,0.0,0.0,0.0,0.0,0.0,0.0,0.0,0.0,0.0,0.0,0.0,0.0,0.0,0.0,0.0,0.0,0.0,0.0,0.0,0.0,0.0,0.0,0.0,0.0,0.0,0.0,0.0,0.0,0.0,0.0,0.0,0.0,0.0,0.0,0.0,0.0,0.0,2.7948,2.7013,0.0,2.7193,2.8184,2.9309,3.071,3.1668,3.1972,0.0,0.0,0.0,0.0,0.0,0.0,0.0,0.0,0.0,0.0,0.0,0.0,0.0,0.0,0.0,0.0,0.0,0.0,0.0,0.0,0.0,0.0,0.0,0.0,0.0,0.0,0.0,0.0,0.0,0.0,0.0,0.0,0.0,0.0,0.0,0.0,0.0,0.0,0.0,0.0,0.0,0.0,0.0,0.0,0.0,0.0,0.0,0.0,0.0,0.0,0.0,0.0,0.0,0.0,0.0,0.0,0.0,0.0,0.0,0.0,0.0,0.0,0.0,0.0,0.0,0.0,0.0,0.0,0.0,0.0,0.0,0.0,0.0,0.0,0.0,0.0,0.0,0.0,0.0,0.0,0.0,0.0,0.0,0.0,0.0,0.0,0.0,0.0,0.0,0.0,0.0,0.0,0.0,0.0,0.0,0.0,0.0,0.0,0.0,0.0,0.0,0.0,2.9608,2.8982,2.8278,0.0,2.7838,2.8754,3.0158,3.1092,3.1853,3.2381,0.0,0.0,0.0,0.0,0.0,0.0,0.0,0.0,0.0,0.0,0.0,0.0,0.0,0.0,0.0,0.0,0.0,0.0,0.0,0.0,0.0,0.0,0.0,0.0,0.0,0.0,0.0,0.0,0.0,0.0,0.0,0.0,0.0,0.0,0.0,0.0,0.0,0.0,0.0,0.0,0.0,0.0,0.0,0.0,0.0,0.0,0.0,0.0,0.0,0.0,0.0,0.0,0.0,0.0,0.0,0.0,0.0,0.0,0.0,0.0,0.0,0.0,0.0,0.0,0.0,0.0,0.0,0.0,0.0,0.0,0.0,0.0,0.0,0.0,0.0,0.0,0.0,0.0,0.0,0.0,0.0,0.0,0.0,0.0,0.0,0.0,0.0,0.0,0.0,0.0,0.0,0.0,0.0,0.0,0.0,0.0,0.0,0.0,0.0,0.0,0.0,0.0,2.9644,2.9531,2.9179,2.832,2.8217,2.9271,3.188,3.1295,3.1516,0.0,0.0,0.0,0.0,0.0,0.0,0.0,0.0,0.0,0.0,0.0,0.0,0.0,0.0,0.0,0.0,0.0,0.0,0.0,0.0,0.0,0.0,0.0,0.0,0.0,0.0,0.0,0.0,0.0,0.0,0.0,0.0,0.0,0.0,0.0,0.0,0.0,0.0,0.0,0.0,0.0,0.0,0.0,0.0,0.0,0.0,0.0,0.0,0.0,0.0,0.0,0.0,0.0,0.0,0.0,0.0,0.0,0.0,0.0,0.0,0.0,0.0,0.0,0.0,0.0,0.0,0.0,0.0,0.0,0.0,0.0,0.0,0.0,0.0,0.0,0.0,0.0,0.0,0.0,0.0,0.0,0.0,0.0,0.0,0.0,0.0,0.0,0.0,0.0,0.0,0.0,0.0,0.0,0.0,0.0,0.0,0.0,0.0,0.0,0.0,0.0,0.0,0.0,3.1289,3.0782,3.0082,2.9193,2.9135,2.9921,3.1939,3.1851,3.2415,3.4127,0.0,0.0,0.0,0.0,0.0,0.0,0.0,0.0,0.0,0.0,0.0,0.0,0.0,0.0,0.0,0.0,0.0,0.0,0.0,0.0,0.0,0.0,0.0,0.0,0.0,0.0,0.0,0.0,0.0,0.0,0.0,0.0,0.0,0.0,0.0,0.0,0.0,0.0,0.0,0.0,0.0,0.0,0.0,0.0,0.0,0.0,0.0,0.0,0.0,0.0,0.0,0.0,0.0,0.0,0.0,0.0,0.0,0.0,0.0,0.0,0.0,0.0,0.0,0.0,0.0,0.0,0.0,0.0,0.0,0.0,0.0,0.0,0.0,0.0,0.0,0.0,0.0,0.0,0.0,0.0,0.0,0.0,0.0,0.0,0.0,0.0,0.0,0.0,0.0,0.0,0.0,0.0,0.0,0.0,0.0,0.0,0.0,0.0,0.0,0.0,0.0,0.0,3.212,3.1969,3.1353,3.0151,3.033,3.109,3.2498,3.2923,3.3573,3.4587,0.0,0.0,0.0,0.0,0.0,0.0,0.0,0.0,0.0,0.0,0.0,0.0,0.0,0.0,0.0,0.0,0.0,0.0,0.0,0.0,0.0,0.0,0.0,0.0,0.0,0.0,0.0,0.0,0.0,0.0,0.0,0.0,0.0,0.0,0.0,0.0,0.0,0.0,0.0,0.0,0.0,0.0,0.0,0.0,0.0,0.0,0.0,0.0,0.0,0.0,0.0,0.0,0.0,0.0,0.0,0.0,0.0,0.0,0.0,0.0,0.0,0.0,0.0,0.0,0.0,0.0,0.0,0.0,0.0,0.0,0.0,0.0,0.0,0.0,0.0,0.0,0.0,0.0,0.0,0.0,0.0,0.0,0.0,0.0,0.0,0.0,0.0,0.0,0.0,0.0,0.0,0.0,0.0,0.0,0.0,0.0,0.0,0.0,0.0,0.0,0.0,0.0,3.254,3.3073,3.2971,3.1218,3.1821,3.2692,3.3554,3.4374,3.4878,3.4928,0.0,0.0,0.0,0.0,0.0,0.0,0.0,0.0,0.0,0.0,0.0,0.0,0.0,0.0,0.0,0.0,0.0,0.0,0.0,0.0,0.0,0.0,0.0,0.0,0.0,0.0,0.0,0.0,0.0,0.0,0.0,0.0,0.0,0.0,0.0,0.0,0.0,0.0,0.0,0.0,0.0,0.0,0.0,0.0,0.0,0.0,0.0,0.0,0.0,0.0,0.0,0.0,0.0,0.0,0.0,0.0,0.0,0.0,0.0,0.0,3.3748,0.0,0.0,0.0,0.0,0.0,0.0,0.0,0.0,0.0,0.0,0.0,0.0,0.0,0.0,0.0,0.0,0.0,0.0,0.0,0.0,0.0,0.0,0.0,0.0,0.0,0.0,0.0,0.0,0.0,0.0,0.0,0.0,0.0,0.0,0.0,0.0,0.0,0.0,0.0,0.0,0.0,3.4098,3.4845,3.4733,3.302,3.363,3.4466,3.5292,3.5577,3.6015,3.6716,0.0,0.0,0.0,0.0,0.0,0.0,0.0,0.0,0.0,0.0,0.0,0.0,0.0,0.0,0.0,0.0,0.0,0.0,0.0,0.0,0.0,0.0,0.0,0.0,0.0,0.0,0.0,0.0,0.0,0.0,0.0,0.0,0.0,0.0,0.0,0.0,0.0,0.0,0.0,0.0,0.0,0.0,0.0,0.0,0.0,0.0,0.0,0.0,0.0,0.0,0.0,0.0,0.0,0.0,0.0,0.0,0.0,0.0,0.0,0.0,0.0,3.5789,0.0,0.0,0.0,0.0,0.0,0.0,0.0,0.0,0.0,0.0,0.0,0.0,0.0,0.0,0.0,0.0,0.0,0.0,0.0,0.0,0.0,0.0,0.0,0.0,0.0,0.0,0.0,0.0,0.0,0.0,0.0,0.0,0.0,0.0,0.0,0.0,0.0,0.0,0.0,0.0,3.5345,3.5617,3.5267,3.3592,3.4544,3.5456,3.5862,3.6693,3.737,3.785,3.707,0.0,0.0,0.0,0.0,0.0,0.0,0.0,0.0,0.0,0.0,0.0,0.0,0.0,0.0,0.0,0.0,0.0,0.0,0.0,0.0,0.0,0.0,0.0,0.0,0.0,0.0,0.0,0.0,0.0,0.0,0.0,0.0,0.0,0.0,0.0,0.0,0.0,0.0,0.0,0.0,0.0,0.0,0.0,0.0,0.0,0.0,0.0,0.0,0.0,0.0,0.0,0.0,0.0,3.9605,4.0095,3.945,4.0893,4.1175,4.0445,3.9874,3.9359,3.9016,0.0,0.0,0.0,0.0,0.0,0.0,0.0,0.0,0.0,0.0,0.0,0.0,0.0,0.0,0.0,0.0,0.0,0.0,0.0,0.0,0.0,0.0,0.0,0.0,0.0,4.0553,4.0514,0.0,0.0,0.0,0.0,0.0,0.0,0.0,0.0,0.0,0.0,0.0,0.0,3.6543,3.6465,3.5961,3.4448,3.5656,3.6643,3.6788,3.8001,3.8796,3.8935,3.8,3.7807,0.0,0.0,0.0,0.0,0.0,0.0,0.0,0.0,0.0,0.0,0.0,0.0,0.0,0.0,0.0,0.0,0.0,0.0,0.0,0.0,0.0,0.0,0.0,0.0,0.0,0.0,0.0,0.0,0.0,0.0,0.0,0.0,3.5688,3.7135,0.0,0.0,0.0,0.0,0.0,0.0,0.0,0.0,0.0,0.0,0.0,0.0,0.0,3.6956,3.7792,3.963,4.0576,4.0592,4.2351,4.3133,4.3019,4.3261,4.3303,4.3227,4.3854,0.0,4.0755,4.0872,0.0,0.0,0.0,0.0,0.0,0.0,0.0,0.0,0.0,0.0,0.0,0.0,0.0,0.0,0.0,0.0,0.0,0.0,0.0,0.0,0.0,0.0,4.2627,4.1853,4.177,4.176,0.0,4.0945,4.0269,3.931,3.9271,0.0,0.0,0.0,0.0,0.0,0.0,0.0,3.8174,3.8725,3.8854,3.7912,3.8694,3.9592,4.0337,3.9949,3.9942,4.0692,3.9211,3.8711,3.9595,3.885,0.0,0.0,0.0,0.0,0.0,0.0,0.0,0.0,0.0,0.0,0.0,0.0,0.0,0.0,0.0,0.0,0.0,0.0,0.0,0.0,0.0,0.0,0.0,0.0,0.0,0.0,0.0,0.0,0.0,3.4659,3.5783,3.6107,3.5875,3.5528,0.0,0.0,0.0,0.0,0.0,0.0,0.0,0.0,0.0,3.8571,3.9087,4.0038,4.142,4.2673,4.3537,4.4011,4.4791,4.5143,4.5143,4.5145,4.5146,4.5186,4.5578,4.5069,4.3972,4.3502,4.276,4.1941,0.0,0.0,0.0,0.0,4.1165,4.1802,4.1441,4.1518,0.0,0.0,0.0,0.0,0.0,0.0,0.0,0.0,0.0,0.0,0.0,0.0,0.0,4.3553,4.3827,4.414,4.414,4.387,4.2983,0.0,4.1468,4.1906,4.0075,0.0,0.0,0.0,0.0,0.0,3.9917,4.0578,4.0587,3.9247,4.0336,4.1126,4.1038,4.1544,4.2076,4.2483,4.0888,4.0356,4.1157,3.9912,3.9602,0.0,0.0,0.0,0.0,0.0,0.0,0.0,0.0,0.0,0.0,0.0,0.0,0.0,0.0,0.0,0.0,0.0,0.0,0.0,0.0,0.0,0.0,0.0,0.0,0.0,0.0,0.0,0.0,3.6423,3.7026,3.688,3.7391,3.7394,0.0,0.0,0.0,0.0,0.0,0.0,3.981,3.9812,4.0442,4.1739,4.2408,4.3505,4.5027,4.5656,4.6321,4.6946,4.6751,4.6636,4.66,4.6366,4.6367,4.6562,4.6562,4.6679,4.6796,4.5742,4.4803,4.3944,4.3281,4.3238,4.3495,4.2868,4.3113,4.3762,4.3548,4.3566,4.3614,4.3017,0.0,4.2483,4.097,0.0,0.0,0.0,0.0,4.363,4.363,4.4288,4.4907,4.4907,4.5374,4.5803,4.5803,4.5803,4.5005,0.0,4.3349,4.3984,4.1898,0.0,0.0,0.0,0.0,4.2263,4.1613,4.2115,4.2004,4.0735,4.1747,4.2386,4.1965,4.2899,4.3618,4.39,4.2541,4.1961,4.2598,4.1365,4.0865,4.1294,0.0,0.0,0.0,0.0,0.0,0.0,0.0,0.0,0.0,0.0,0.0,0.0,0.0,0.0,0.0,0.0,0.0,0.0,0.0,0.0,0.0,0.0,0.0,0.0,0.0,0.0,0.0,0.0,0.0,4.3058,4.3252,0.0,0.0,0.0,0.0,4.0883,4.0922,4.1707,4.3352,4.3431,4.4602,4.7141,4.7258,4.7727,4.8626,4.8665,4.8743,4.8743,4.7923,4.7499,4.7416,4.6591,4.6608,4.726,4.7244,4.7701,4.8367,4.6774,4.5619,4.4836,4.4724,4.4195,4.3486,4.347,4.3964,4.4509,4.3707,4.3898,4.4533,4.4498,4.4498,4.4301,4.3379,4.3144,0.0,0.0,4.3869,4.452,4.452,4.5142,4.5726,4.5726,4.5765,4.5803,4.5803,4.5803,4.5533,0.0,4.4523,4.4295,4.3331,0.0,4.3215,4.3176,4.3215,4.3237,4.3257,4.3302,4.3325,4.3298,4.3381,4.3733,4.4445,4.3894,4.3845,4.469,4.3876,4.3394,4.344,4.3365,4.2939,4.2164,4.2125,0.0,0.0,0.0,0.0,0.0,0.0,0.0,0.0,0.0,0.0,0.0,0.0,0.0,0.0,0.0,0.0,0.0,0.0,0.0,0.0,0.0,0.0,0.0,0.0,0.0,0.0,0.0,0.0,4.3685,4.4705,0.0,4.4942,4.4635,4.4678,4.5226,4.5812,4.6399,4.7025,4.6953,4.7342,4.828,4.8264,4.8678,4.9538,4.8984,4.8981,4.9529,4.8668,4.8229,4.8211,4.7893,4.7876,4.8123,4.8154,4.8306,4.8538,4.795,4.7508,4.7153,4.6083,4.5731,4.5832,4.5282,4.5253,4.5344,4.506,4.5144,4.5374,4.5374,4.5026,4.4636,4.4833,4.4562,4.4249,4.4755,4.5146,4.5374,4.5374,4.5571,4.5803,4.5803,4.5803,4.5803,4.5803,4.5803,4.5726,4.5416,4.4945,4.4133,4.2705,4.2473,4.228,4.178,4.2125,4.2673,4.3276,4.3821,4.4176,4.4198,4.467,4.4882,4.4733,4.4927,4.519,4.5566,4.4751,4.4255,4.428,4.3743,4.3299,4.2988,4.292,4.2747,0.0,0.0,0.0,0.0,0.0,0.0,0.0,0.0,0.0,0.0,0.0,0.0,0.0,0.0,0.0,0.0,0.0,0.0,0.0,0.0,0.0,0.0,0.0,0.0,0.0,0.0,4.533,4.5061,4.6783,4.7918,4.7605,4.7844,4.8239,4.8828,4.9101,4.9375,4.9643,4.9314,4.9222,4.9535,4.9489,4.9732,5.032,4.9759,4.9753,5.034,4.9479,4.9034,4.9004,4.9002,4.8983,4.8989,4.9259,4.9376,4.9332,4.8714,4.8651,4.8795,4.7094,4.6743,4.7099,4.6559,4.631,4.6229,4.6229,4.6229,4.619,4.5881,4.5455,4.5104,4.5649,4.5416,4.5104,4.5649,4.5803,4.5803,4.5803,4.5803,4.5803,4.5803,4.5803,4.5803,4.5803,4.5803,4.5726,4.5455,4.5181,4.4562,4.3131,4.3092,4.3018,4.2206,4.2786,4.3479,4.4059,4.4639,4.4987,4.4987,4.5494,4.5592,4.5092,4.5564,4.5896,4.5938,4.5395,4.5082,4.5082,4.4536,4.4082,4.3811,4.346,4.3282,4.3285,0.0,0.0,0.0,0.0,0.0,0.0,0.0,0.0,0.0,0.0,0.0,0.0,0.0,0.0,0.0,0.0,0.0,0.0,0.0,0.0,0.0,0.0,0.0,4.4089,4.5377,4.6825,4.769,4.9995,5.1167,5.0346,5.0972,5.1445,5.1383,5.0601,5.0462,5.1232,5.0488,5.0375,5.1197,5.1234,5.1232,5.1193,5.1193,5.1193,5.1193,5.0332,4.9897,4.984,4.9864,4.9831,4.978,5.0631,5.0937,5.0743,4.9126,4.8933,4.9475,4.7734,4.708,4.7119,4.7119,4.7119,4.7157,4.7157,4.7119,4.6964,4.6113,4.5803,4.5803,4.5803,4.5803,4.5803,4.5803,4.5803,4.5803,4.5803,4.5803,4.5803,4.5803,4.5803,4.5803,4.5803,4.5803,4.5571,4.4791,4.5258,4.5533,4.4713,4.522,4.5455,4.4675,4.522,0.0,4.5765,4.5765,4.5803,4.5842,4.5842,4.5881,4.5842,4.5842,4.5842,4.5803,4.5803,4.5803,4.5803,4.5803,4.5416,4.4636,4.3824,4.3359,4.3359,0.0,0.0,0.0,0.0,0.0,0.0,0.0,0.0,0.0,0.0,0.0,0.0,0.0,0.0,0.0,0.0,0.0,0.0,0.0,0.0,0.0,0.0,4.7298,4.7453,4.9484,5.1242,5.2141,5.2812,5.3352,5.3743,5.3364,5.3052,5.3026,5.2831,5.2781,5.2985,5.2723,5.2411,5.2028,5.1939,5.1615,5.0991,5.0991,5.0991,5.0991,5.0755,5.0618,5.0618,5.1237,5.1176,5.067,5.2144,5.1757,5.0051,5.0167,4.9626,4.8585,4.6848,4.6538,4.7119,4.7119,4.7505,4.8043,4.8043,4.7618,4.708,4.6809,4.6306,4.5803,4.5803,4.5803,4.5803,4.5803,4.5803,4.5803,4.5803,4.5803,4.5803,4.5803,4.5803,4.5803,4.5803,4.5803,4.5726,4.5494,4.5649,4.5339,4.3901,4.3827,4.3904,4.3708,4.3866,0.0,4.4833,4.5455,4.6035,4.6693,4.7312,4.7428,4.6809,4.6732,4.6461,4.5842,4.5803,4.5803,4.5803,4.5803,4.5687,4.5455,4.5223,4.5107,0.0,0.0,0.0,0.0,0.0,0.0,0.0,0.0,0.0,0.0,0.0,0.0,0.0,0.0,0.0,0.0,0.0,0.0,0.0,0.0,0.0,0.0,4.9531,5.1092,5.1952,5.2734,5.3515,5.4413,5.4742,5.51,5.5607,5.5133,5.4766,5.4759,5.4407,5.4194,5.4179,5.3796,5.3173,5.2284,5.2237,5.1954,5.1447,5.1447,5.1447,5.1447,5.1447,5.125,5.0937,5.1796,5.1718,0.0,5.2724,5.226,5.0283,5.1095,5.0248,0.0,0.0,0.0,0.0,0.0,4.7657,4.8353,4.7966,4.7505,4.7041,4.6654,4.619,4.5803,4.5803,4.5803,4.5803,4.5803,4.5803,4.5803,4.5803,4.5803,4.5803,4.5803,4.5803,4.5803,4.5803,4.5803,4.5919,4.6268,4.6345,0.0,4.5529,4.5142,4.4871,4.4871,4.522,4.5606,4.6144,4.6612,4.708,4.7583,4.8082,4.8198,4.7695,4.7657,0.0,0.0,0.0,4.619,4.5803,4.5803,0.0,0.0,0.0,4.6538,0.0,0.0,0.0,0.0,4.5838,4.5835,0.0,0.0,0.0,0.0,0.0,0.0,0.0,0.0,0.0,0.0,0.0,0.0,0.0,0.0,0.0,0.0,5.3191,5.5584,5.6635,5.5354,5.4575,5.523,5.5876,5.6294,5.6294,5.6283,5.6236,5.6162,5.5456,5.5049,5.5092,0.0,0.0,0.0,0.0,5.2573,5.2496,5.2418,5.2341,5.2341,5.2341,5.1873,5.1095,5.195,5.1834,5.1014,5.2724,5.2453,5.0825,5.1679,5.0562,4.8159,4.7273,4.7003,4.7119,4.7119,4.7657,4.8275,4.7502,0.0,0.0,4.619,4.5881,4.5803,4.5803,4.5803,4.5803,4.5803,4.5803,4.5803,4.5803,4.5803,4.5803,4.5803,4.5803,4.5803,4.5803,4.5803,4.6035,4.6809,4.6964,4.7273,4.8237,4.7773,4.7235,4.7235,4.7889,4.8392,4.8392,4.8508,4.8546,4.8546,0.0,0.0,4.8546,4.8546,4.8159,4.7312,4.7235,4.6886,4.6113,4.6074,4.6461,4.7235,4.7235,4.7618,4.8392,4.8392,4.8469,4.8546,4.7657,4.7657,0.0,0.0,0.0,0.0,0.0,0.0,0.0,0.0,0.0,0.0,0.0,0.0,0.0,0.0,0.0,5.2671,5.4305,5.5962,5.8126,5.7543,5.6691,5.6139,5.6171,5.6215,5.6215,5.6111,5.606,5.6024,5.5869,5.6084,5.6781,5.6665,0.0,5.6317,5.5621,5.4967,5.431,5.3618,5.327,5.327,0.0,0.0,5.1993,5.2844,5.2376,5.1014,5.2724,5.2144,5.0012,5.0825,4.9668,4.7273,4.6384,4.6461,4.7119,4.7119,4.7657,4.8392,4.8198,4.7695,4.708,4.6886,4.6384,4.5803,4.5803,4.5803,0.0,4.5803,4.5803,4.5803,4.5803,4.5803,4.5803,4.5803,4.5803,4.5803,4.5803,4.5803,4.5842,4.6035,4.6035,4.6538,4.8121,4.8275,4.8159,4.8159,4.8275,4.8392,4.8392,4.901,4.9436,4.9436,5.0012,5.0167,4.9509,4.9436,4.9088,4.8198,4.8159,4.8082,4.7889,4.7889,4.7966,4.8159,4.8159,4.8237,4.8392,4.8392,4.8778,4.9436,4.8546,4.8237,0.0,0.0,0.0,0.0,0.0,0.0,0.0,0.0,0.0,0.0,0.0,4.7772,0.0,0.0,5.2587,5.48,5.6546,5.8031,5.9266,5.9053,5.8454,5.7617,5.7045,5.6757,5.6757,5.6678,5.6472,5.6046,5.6008,5.6201,5.6626,5.6665,5.6472,5.6046,5.5621,5.52,5.4813,5.3923,5.3502,5.3502,5.3076,5.238,5.1563,5.1989,5.1714,5.0975,5.2298,5.1873,5.0283,5.0283,4.978,4.8894,4.7579,4.7119,4.7119,4.7119,4.7389,4.7695,4.7235,4.6809,4.6461,4.6461,4.6151,4.5803,4.5803,4.5803,4.5803,4.5803,4.5803,4.5803,4.5803,4.5803,4.5803,4.5803,4.5803,4.5803,4.5803,4.5803,4.6074,4.6925,4.7119,4.7657,4.9355,4.9664,4.9664,4.9664,4.9664,4.9664,4.9664,5.0012,5.0283,5.0283,5.067,5.0747,5.0322,4.9935,4.9513,4.9088,4.8624,4.8392,4.8392,4.8392,4.8624,4.9049,4.9049,4.9243,4.9664,4.9664,4.9858,5.0283,4.9858,4.9664,0.0,0.0,0.0,0.0,0.0,0.0,0.0,0.0,4.7069,4.9215,4.9684,5.0216,5.1835,5.3857,5.5649,5.6909,5.8743,6.0042,6.0172,6.0045,5.974,5.9215,5.8221,5.7555,5.7555,5.7555,5.7245,5.6549,5.6356,5.6317,5.651,5.6356,5.6046,5.5548,5.5354,5.5277,5.5277,5.4426,5.3923,5.373,5.3037,5.2144,5.1134,5.1122,5.1049,5.0937,5.1633,5.1552,5.0851,5.0186,5.0186,5.0542,4.9347,4.8345,4.754,4.7235,4.7003,4.677,4.6229,4.6035,4.6074,4.6268,4.6306,4.6268,4.6113,4.6035,4.6035,4.5842,4.5803,4.5803,4.5803,4.5803,4.5803,4.5796,4.58,4.5803,4.5796,4.5916,4.6461,4.785,4.8275,4.8894,5.0399,5.067,5.0709,5.0859,5.0898,5.0898,5.0898,5.0898,5.0898,5.0898,5.0898,5.0898,5.0898,5.0322,4.9935,4.9935,4.9281,4.8894,4.8894,4.8894,4.9204,4.9935,4.9935,5.0244,5.0898,5.0898,5.0898,5.0898,5.0898,5.0898,4.4006,4.4207,4.5031,4.5812,4.7259,4.8862,0.0,0.0,5.1864,5.2187,5.2842,5.3637,5.4578,5.554,5.6892,5.9215,5.9801,6.0243,6.0863,6.0422,6.0181,6.0777,5.943,5.8453,5.8453,5.8453,5.8415,5.8337,5.7593,5.7477,5.826,5.7593,5.7477,5.8144,5.74,5.7013,5.7013,5.6162,5.5354,5.4658,5.4542,5.3652,5.207,5.1987,5.1562,5.0898,5.0982,5.1004,5.0884,5.0731,5.0314,4.9806,5.0386,5.0136,4.9204,4.7657,4.6616,4.6035,4.6732,4.6964,4.708,4.785,4.8121,4.7966,4.7196,4.6964,4.6809,4.6035,4.5803,4.5803,4.5803,4.5803,4.5796,4.5803,4.5782,4.5796,4.5803,4.6401,4.7003,4.7196,4.785,4.8701,4.9664,4.9819,5.009,5.0782,5.0898,5.0898,5.0898,5.0898,5.0898,5.0898,5.0898,5.0898,5.0898,5.0821,5.0782,5.0782,5.0666,5.0631,5.0631,5.0631,5.067,5.0743,5.0782,5.0821,5.0898,5.0898,5.0898,5.0898,5.0898,5.0898,4.6043,4.6595,0.0,0.0,4.949,5.1444,5.2656,5.3554,5.4489,5.5508,5.5911,5.6327,5.7221,5.7946,5.8736,0.0,6.0364,6.0743,6.105,6.0412,6.024,6.1011,6.0012,5.9311,5.9339,5.8852,5.8576,5.8608,5.73,5.6909,5.7787,5.7013,5.6704,5.7095,5.6716,5.6548,5.6548,5.5627,5.5034,5.4687,5.4185,5.3571,5.2833,5.2811,5.2352,5.1593,5.1614,5.1301,5.0842,5.0825,5.0598,5.0345,5.0692,5.031,4.9516,4.8837,4.8392,4.8043,4.7927,4.7835,4.7855,4.8203,4.8338,4.816,4.731,4.704,4.6851,4.6005,4.5738,4.585,4.6387,4.6503,4.6611,4.7136,4.726,4.7268,4.7252,4.753,4.7928,4.8392,4.8778,4.9319,5.0177,5.0331,5.0447,5.0795,5.087,5.0898,5.0898,5.0898,5.0898,5.0898,5.0898,5.0898,5.0898,5.0898,5.0898,5.0898,5.0898,5.0898,5.0898,5.0898,5.0898,5.0898,5.0898,5.0898,5.0898,5.0898,5.0898,5.0898,5.0898,5.0898,4.7376,0.0,0.0,4.9453,5.1328,5.3279,5.414,5.4997,5.5929,5.7262,5.7513,5.7843,5.8767,5.9487,0.0,6.0247,6.0739,6.1118,6.1118,6.0567,6.0403,6.0978,6.0524,6.0051,5.9843,5.9244,5.8853,5.8915,5.7534,5.6873,5.7244,5.6664,5.6239,5.5968,5.5975,5.5952,5.5952,5.5297,5.4853,5.4583,5.3966,5.3542,5.3272,5.3079,5.265,5.2058,5.1826,5.1368,5.0756,5.0785,5.0785,5.076,5.076,5.0417,4.9852,4.9957,4.971,4.9243,4.8856,4.884,4.9044,4.9276,4.9483,4.953,4.8681,4.8257,4.7871,4.6992,4.661,4.6568,4.7177,4.737,4.752,4.8129,4.8287,4.8291,4.8283,4.8441,4.8797,4.9376,4.9684,5.0156,5.1027,5.1147,5.1267,5.1511,5.1369,5.1169,5.0925,5.0894,5.0898,5.0898,5.0898,5.0898,5.0898,5.0898,5.0898,5.0898,5.0898,5.0898,5.0898,5.0898,5.0898,5.0898,5.0898,5.0898,5.0898,5.0898,5.0898,5.0898,5.0898,5.0898,0.0,0.0,4.9114,5.0897,5.2608,5.4117,5.5038,5.5786,5.6301,5.6481,5.7,5.7651,5.8545,5.9428,6.0228,6.0961,6.1079,6.1118,6.1118,6.1036,6.0968,6.1007,6.0968,6.0639,0.0,5.9741,5.9712,5.9662,5.8887,5.8081,5.7231,5.7183,5.6792,5.5943,5.59,5.59,5.59,5.5861,5.5432,5.4583,5.4583,5.412,5.3272,5.25,5.2092,5.1973,5.1125,5.074,5.0696,5.0693,5.0702,5.0701,5.0701,5.0733,5.0743,5.0782,4.9736,4.8454,4.9226,5.0036,5.0846,5.1695,5.25,5.3002,5.2192,5.1343,5.0494,4.9646,4.8836,4.8219,4.8257,4.8257,4.8249,4.8206,4.8266,4.8283,4.8201,4.8883,4.9453,4.9491,5.0195,5.1022,5.1915,5.2073,5.2361,5.3296,5.2689,5.1861,5.1004,5.0917,5.0898,5.0898,5.0898,5.0898,5.0898,5.0898,5.0898,5.0898,5.0898,5.0898,5.0898,5.0898,5.0898,5.0898,5.0898,5.0898,5.0898,5.0898,5.0898,5.0898,5.0898,5.0898,0.0,0.0,5.0778,5.1953,5.3975,5.5983,5.7442,5.7906,5.8351,5.9502,5.8512,5.7735,5.8545,5.842,5.848,5.9313,5.9896,6.0413,6.0954,6.0519,6.0344,6.0925,6.0439,0.0,0.0,0.0,0.0,5.8847,5.7515,5.6854,5.7188,5.6638,5.6208,5.59,5.587,5.5817,5.5817,5.5776,5.5607,5.5332,5.5332,5.5178,5.487,5.4062,5.3666,5.3574,5.2145,5.1491,5.1453,5.0904,5.0717,5.0693,5.0693,5.0707,5.0721,5.0721,5.0374,5.0032,5.0939,5.1402,5.1649,5.1957,5.2204,5.2093,5.0712,5.01,4.9831,4.9518,4.9248,4.9171,4.9754,4.9908,4.9903,4.985,4.9894,5.0014,5.0534,5.0466,5.0635,5.1746,5.1713,5.1795,5.27,5.2815,5.2964,5.3322,5.3194,5.2763,5.1857,5.1749,5.1757,5.1757,5.125,5.0898,5.0898,5.0898,5.0898,5.0898,5.0898,5.0898,5.0898,5.0898,5.0898,5.0898,5.0898,5.0898,5.0898,5.0898,5.0898,5.0898,5.1486,5.1757,0.0,5.006,5.1956,5.287,5.4985,5.7129,5.8247,5.8665,5.9065,5.9799,5.8613,5.75,5.7694,5.7473,5.7339,5.7619,5.8351,5.9167,5.9973,5.9575,5.9631,6.0825,6.0415,0.0,0.0,0.0,0.0,5.8361,5.7338,5.6683,5.6665,5.6429,5.6154,5.5845,5.5776,5.5761,5.5761,5.5724,5.5708,5.5708,5.5708,5.5708,5.567,5.4857,5.4318,5.3972,5.2505,5.1736,5.1428,5.0899,5.0707,5.0707,5.0707,5.0707,5.0707,5.0707,5.0707,5.0794,5.1395,5.178,5.1944,5.1944,5.215,5.2159,5.1087,5.0548,5.0279,5.0279,5.0087,4.9976,5.0553,5.0707,5.0707,5.0707,5.0938,5.1279,5.1774,5.1741,5.1895,5.301,5.2736,5.2626,5.3497,5.3941,5.4053,5.3812,5.4108,5.3963,5.2801,5.2651,5.2651,5.2651,5.2144,5.183,5.183,5.1521,5.1366,5.1366,5.1057,5.0898,5.0898,5.0898,5.0898,5.0898,5.0898,5.0898,5.0898,5.1211,5.1366,5.1405,5.2264,5.2651,4.9601,5.1232,5.2663,5.3632,5.5639,5.7444,5.7637,5.8192,5.8443,5.7631,5.7323,5.6897,0.0,0.0,5.6839,5.6105,5.6758,5.7612,5.8417,5.8487,5.9028,0.0,0.0,0.0,0.0,0.0,0.0,5.8319,0.0,5.745,5.5785,5.6478,5.6555,5.5747,5.5708,5.5708,5.5708,5.5708,5.5708,5.5708,5.5708,5.5708,5.567,5.4857,5.4087,5.3274,5.2313,5.1505,5.0822,5.0745,5.0707,5.0707,5.0707,5.0707,5.0707,5.0707,5.0707,5.0707,5.0707,5.1241,5.1885,5.1885,5.2467,5.3121,5.3082,5.2505,5.1846,5.1885,5.1356,5.0745,5.0745,5.0784,5.0822,5.0784,5.1395,5.1962,5.2,5.2659,5.3236,5.3313,5.3313,5.3603,5.4428,5.5282,5.562,5.4776,5.5355,5.5316,5.3752,5.3571,5.3571,5.3571,5.3532,5.3498,5.3498,5.2728,5.2264,5.2264,5.1482,5.1014,5.1014,5.1014,5.1014,5.1014,5.1014,5.1014,5.1014,5.1873,5.2264,5.2302,5.3153,5.3579,5.0763,5.2557,5.4363,5.4621,5.6067,5.7573,5.8266,5.8516,5.8557,5.8325,5.6781,5.5148,0.0,0.0,0.0,5.5955,5.7714,0.0,6.0226,6.0256,0.0,0.0,0.0,6.0508,5.965,5.9936,0.0,0.0,5.7099,5.6181,5.5708,5.5901,5.5939,5.5708,5.5708,5.5708,5.5708,5.5708,5.5708,5.5708,5.5708,5.5708,5.567,5.4857,5.4703,5.4934,5.2813,5.2159,5.2472,5.1207,5.0707,5.0707,5.0707,5.0707,5.0707,5.0707,5.0707,5.0707,5.0707,5.1241,5.1885,5.1885,5.2038,5.212,5.151,5.1169,5.1125,5.1736,5.1736,5.1582,5.1582,5.2082,5.2395,5.1736,5.2236,5.3044,5.3703,5.351,5.3587,5.4818,5.5049,5.5131,5.534,5.5586,5.5684,5.5532,5.5696,5.5446,5.4462,5.4317,5.4317,5.4317,5.3773,5.3447,5.3447,5.3288,5.3153,5.3153,5.2956,5.284,5.284,5.284,5.284,5.284,5.284,5.284,5.284,5.3076,5.3153,5.3192,5.4039,5.4465,5.1563,5.3277,5.4911,5.4896,5.6379,5.7823,5.7536,5.7998,5.8196,5.708,5.5414,0.0,0.0,0.0,0.0,0.0,0.0,0.0,5.9683,5.9744,5.9792,0.0,6.0535,0.0,5.9634,5.965,5.9319,0.0,5.7703,5.6896,5.5747,5.6055,5.6093,5.5708,5.5708,5.5708,5.5708,5.5708,5.5708,5.5708,5.5708,5.5708,5.567,5.5247,5.5088,5.5088,0.0,5.289,5.2544,5.1625,5.1015,5.0707,5.0707,5.0707,5.0745,5.1087,5.1015,5.0745,5.1087,5.1279,5.1356,5.1356,5.1356,5.1279,5.0822,5.0707,5.0784,5.1241,5.162,5.1885,5.1885,5.2544,5.3082,5.2582,5.3121,5.3895,5.4395,5.4395,5.4587,5.5516,5.5708,5.5708,5.5708,5.5708,5.5719,5.5751,5.5756,5.5574,5.5132,5.5138,5.5162,5.5162,5.4766,5.4514,5.4514,5.4194,5.3975,5.3975,5.3649,5.3468,5.3468,5.3468,5.3477,5.3502,5.3481,5.3481,5.3502,5.3884,5.4078,5.4078,5.4929,5.5316,5.2385,5.375,5.4985,5.5014,5.67,5.7926,5.6421,5.7188,5.7535,5.4988,0.0,0.0,5.2085,0.0,5.4207,5.3711,0.0,5.7528,5.8523,5.8627,5.9127,6.0473,6.0633,6.0281,5.9435,5.8698,5.8236,5.8127,5.8896,5.8319,5.6016,5.6478,5.6478,5.5708,5.5708,5.5708,5.5708,5.5708,5.5708,5.5708,5.5708,5.5708,5.5708,5.5708,5.5324,5.4664,0.0,0.0,5.2236,5.2,5.1543,5.1015,5.0784,5.0822,5.1092,5.1582,5.1356,5.0976,5.1659,5.1428,5.0822,5.0745,5.0707,5.0707,5.0707,5.0784,5.0861,5.0861,5.1433,5.2077,5.2077,5.2736,5.3351,5.3351,5.4049,5.4703,5.4824,5.5401,5.5824,5.5708,5.5785,5.5862,5.5862,5.5978,5.6016,5.5901,5.5978,5.6016,5.5901,5.5864,5.588,5.588,5.5885,5.589,5.589,5.5201,5.4776,5.4776,5.4124,5.3726,5.3726,5.3726,5.3748,5.3829,5.3748,5.3748,5.3829,5.4564,5.4951,5.4946,5.5642,5.5995,5.4257,5.5006,5.5937,5.6541,5.7077,5.7352,5.7033,5.7188,0.0,0.0,0.0,5.2891,5.1264,5.24,0.0,5.518,0.0,0.0,0.0,0.0,6.0204,0.0,0.0,0.0,0.0,0.0,0.0,0.0,0.0,5.8011,5.6824,5.6247,5.5862,5.5708,5.5708,5.5708,5.5708,5.5708,5.5708,5.5708,5.5708,5.5708,5.5708,5.5708,5.5631,5.5439,5.478,0.0,5.3933,5.2505,5.2236,5.2626,5.1246,5.1553,5.2626,5.1361,5.1241,5.1697,5.1846,5.1813,5.1582,5.0938,5.0707,5.0707,5.0707,5.1164,5.1697,5.1697,5.2313,5.2967,5.2967,5.3626,5.428,5.428,5.4895,5.5708,5.6401,5.667,5.6555,5.5824,5.6285,5.6786,5.6786,5.7357,5.7588,5.6863,5.7396,5.7588,5.6863,5.6186,5.5735,5.5735,5.5776,5.5807,5.5807,5.5721,5.5663,5.5663,5.5557,5.5485,5.5485,5.5485,5.5451,5.5461,5.5451,5.5451,5.5461,5.5654,5.5692,5.5692,5.5847,5.5947,5.4577,5.53,5.6001,5.6338,5.6444,5.6212,5.5334,0.0,0.0,0.0,0.0,5.1741,5.0861,0.0,0.0,0.0,0.0,0.0,0.0,0.0,0.0,0.0,0.0,0.0,0.0,0.0,0.0,0.0,0.0,5.6742,5.6362,5.5939,5.5708,5.5708,5.5708,5.5708,5.5708,5.5708,5.5708,5.5708,5.5708,5.5708,5.5708,5.5708,5.5708,5.567,5.5285,0.0,5.4434,5.3587,5.3236,5.3121,5.2318,5.2472,5.3159,5.2818,5.2626,5.2659,5.3082,5.2967,5.2505,5.2125,5.201,5.201,5.201,5.2279,5.2582,5.2582,5.3197,5.3895,5.3895,5.4511,5.5126,5.5126,5.5439,5.6055,5.7401,5.7324,5.7016,5.7049,5.7396,5.7665,5.7665,5.8011,5.8165,5.7742,5.805,5.8159,5.7742,5.7319,5.7049,5.7049,5.6692,5.6405,5.6405,5.6041,5.5782,5.5782,5.5845,5.5865,5.5865,5.5865,5.5875,5.5895,5.5875,5.5875,5.59,5.59,5.59,5.59,5.59,5.5909,5.4755,5.5413,5.5909,5.6018,5.5931,5.5376,5.3828,5.3313,0.0,0.0,0.0,5.0707,5.0707,0.0,0.0,0.0,0.0,0.0,0.0,0.0,0.0,0.0,0.0,0.0,0.0,0.0,0.0,0.0,0.0,0.0,5.5708,5.5708,5.5708,5.5708,5.5708,5.5708,5.5708,5.5708,5.5708,5.5708,5.5708,5.5708,5.5708,5.5708,5.5708,5.5708,5.5708,0.0,0.0,5.4549,5.4203,5.3703,5.3351,5.3428,5.378,5.4087,5.3895,5.3587,5.4241,5.4049,5.351,5.3664,5.3505,5.3197,5.3197,5.3313,5.3472,5.3472,5.4087,5.4741,5.4741,5.5247,5.5747,5.5939,5.6247,5.6819,5.805,5.7896,5.7709,5.8204,5.8434,5.855,5.855,5.8698,5.8775,5.8583,5.8704,5.8775,5.8583,5.8704,5.8858,5.8858,5.7901,5.7209,5.7022,5.6362,5.5901,5.5708,5.5751,5.5853,5.6046,5.5892,5.5907,5.6135,5.5907,5.5792,5.5865,5.5865,5.5865,5.5865,5.5865,5.587,5.5716,5.5763,5.5979,5.6697,5.6296,5.5483,5.4593,0.0,0.0,0.0,5.0707,5.0707,5.0707,5.0822,0.0,0.0,0.0,0.0,0.0,0.0,0.0,0.0,0.0,0.0,0.0,0.0,0.0,0.0,0.0,0.0,5.5708,5.5708,5.5708,5.5708,5.5708,5.5708,5.5708,5.5708,5.5708,5.5708,5.5708,5.5708,5.5708,5.5708,5.5708,5.5708,5.5708,0.0,0.0,5.478,5.4895,5.5318,5.378,5.4126,5.5285,5.3857,5.378,5.4395,5.4472,5.4434,5.4511,5.5241,5.4434,5.3197,5.3197,5.3741,5.4395,5.4395,5.4972,5.5593,5.5593,5.5631,5.5901,5.667,5.8055,5.8973,5.8429,5.8819,5.9088,5.8429,5.8896,5.9396,5.9396,6.005,6.0281,5.9511,6.005,6.0281,5.9473,6.0089,6.0556,6.0556,5.9127,5.7857,5.7055,5.6945,5.6555,5.5747,5.5714,5.606,5.6873,5.6137,5.6065,5.6879,5.6104,5.5719,5.5719,5.5719,5.5719,5.5719,5.5719,5.5751,5.5416,5.5766,5.5927,5.6796,5.5593,5.4241,5.4434,0.0,0.0,5.0822,5.0707,5.0707,5.0707,5.0707,5.0938,0.0,0.0,0.0,0.0,0.0,0.0,0.0,0.0,0.0,0.0,0.0,0.0,0.0,0.0,0.0,5.5708,5.5708,5.5708,5.5708,5.5708,5.5708,5.5708,5.5708,5.5708,5.5708,5.5708,5.5708,5.5708,5.5708,5.5708,5.5708,5.5708,0.0,0.0,5.5362,5.5401,5.5631,5.4972,5.5126,5.5631,5.4934,5.4934,5.5208,5.5208,5.5208,5.5285,5.5593,5.5241,5.4703,5.4703,5.4934,5.5208,5.5208,5.5439,5.5708,5.5708,5.6093,5.6824,5.8171,5.8627,5.8973,5.9665,5.9627,5.955,5.9781,5.9627,5.9511,5.9511,5.9396,5.9165,5.8813,5.9473,5.9704,5.889,5.9511,5.9819,5.9358,5.9127,5.8896,5.8511,5.805,5.7627,5.728,5.6786,5.6863,5.7742,5.6439,5.6362,5.7742,5.6401,5.5978,5.6478,5.6478,5.6478,5.6478,5.6478,5.6494,5.4847,5.5548,5.5862,5.6478,5.5093,5.3664,0.0,0.0,5.0976,5.0745,5.0707,5.0707,5.0707,5.0707,5.0707,5.0707,0.0,5.2779,0.0,0.0,0.0,0.0,0.0,0.0,0.0,0.0,0.0,0.0,0.0,0.0,0.0,5.5708,5.5708,5.5708,5.5708,5.5708,5.5708,5.5708,5.5708,5.5708,5.5708,5.5708,5.5708,5.5708,5.5708,5.5708,0.0,0.0,0.0,5.5708,5.5708,5.5708,5.5708,5.5708,5.5708,5.5708,5.5862,5.6093,5.6093,5.6093,5.6093,5.6093,5.5901,5.5708,5.5708,5.5708,5.5708,5.5708,5.5708,5.5708,5.5708,5.6362,5.7286,5.8473,5.8511,5.8627,5.9819,5.9588,5.9319,5.9935,5.955,5.9165,5.9165,5.8665,5.8313,5.8313,5.8781,5.905,5.8698,5.9165,5.9396,5.9088,5.955,5.9665,5.9204,5.8858,5.855,5.8313,5.7703,5.7786,5.8627,5.7242,5.7165,5.8627,5.7203,5.6786,5.7363,5.7363,5.7363,5.7363,5.7363,5.7247,5.4295,5.5093,5.5708,5.5708,5.5093,5.4241,0.0,0.0,5.1659,5.0861,5.0707,5.0707,5.0707,5.0707,5.0707,5.0707,5.0707,0.0,0.0,0.0,0.0,0.0,0.0,0.0,0.0,0.0,0.0,0.0,0.0,0.0,0.0,5.5708,5.5708,5.5708,5.5708,5.5708,5.5708,5.5708,5.5708,5.5708,5.5708,5.5708,5.5708,5.5708,5.5708,0.0,0.0,0.0,0.0,5.5708,5.5708,5.5708,5.5708,5.5708,5.5708,5.5708,5.6247,5.6983,5.6983,5.6983,5.6983,5.6983,5.6401,5.5708,5.5708,5.5708,5.5708,5.5708,5.5708,5.5708,5.5708,5.6362,5.6983,5.7022,5.7665,5.8313,5.8313,5.8313,5.8313,5.8313,5.8313,5.8313,5.8313,5.8313,5.8313,5.8313,5.8313,5.8583,5.9396,5.9473,5.9819,6.0671,6.0787,6.0127,5.8434,5.905,5.9165,5.8352,5.8275,5.866,5.9435,5.8698,5.866,5.9473,5.8704,5.8275,5.8275,5.8275,5.8275,5.8275,5.8275,5.7819,5.2356,5.3351,5.4126,5.4741,5.378,5.2813,5.3121,0.0,5.1015,5.0745,5.0707,5.0707,5.0707,5.0707,5.0707,5.0707,5.1164,0.0,0.0,0.0,0.0,0.0,0.0,0.0,0.0,0.0,0.0,0.0,0.0,0.0,0.0,5.5708,5.5708,5.5708,5.5708,5.5708,5.5708,5.5708,5.5708,5.5708,5.5708,5.5708,5.5708,5.5708,0.0,0.0,0.0,0.0,0.0,5.6324,5.6247,5.5747,5.6362,5.6209,5.5708,5.5708,5.6247,5.6901,5.6324,5.6516,5.6983,5.6983,5.6824,5.6709,5.728,5.6626,5.5708,5.5708,5.5708,5.5824,5.6439,5.6786,5.7132,5.7742,5.8088,5.8313,5.8313,5.8742,5.9127,5.9127,5.8665,5.8313,5.8313,5.7319,5.6742,5.7324,5.7934,5.839,5.866,5.9165,5.9396,5.9127,5.9588,5.9935,6.0012,6.0242,6.0281,6.0012,5.9435,5.9511,6.0358,5.905,5.8973,6.0358,5.9011,5.8583,5.9127,5.9127,5.9127,5.9127,5.9127,5.8665,0.0,5.2313,5.3313,5.3857,5.2967,0.0,0.0,0.0,5.0707,5.0707,5.0707,5.0707,5.0707,5.0707,5.0707,5.0707,0.0,0.0,0.0,0.0,0.0,0.0,0.0,0.0,0.0,0.0,0.0,0.0,0.0,0.0,0.0,5.5708,5.5708,5.5708,5.5708,5.5708,5.5708,5.5708,5.5708,5.5708,5.5708,5.5708,5.5708,5.5708,0.0,0.0,0.0,0.0,0.0,5.6401,5.6209,5.5747,5.6285,5.617,5.5708,5.5708,5.6247,5.6907,5.6362,5.6555,5.6983,5.6983,5.6786,5.667,5.7555,5.7055,5.6132,5.5785,5.5708,5.5824,5.6362,5.6516,5.6632,5.7203,5.7319,5.7396,5.7742,5.8204,5.8665,5.8973,5.8621,5.8313,5.8313,5.7396,5.6857,5.7401,5.7934,5.839,5.8698,5.9204,5.9435,5.9242,5.9704,6.0204,6.0748,6.0787,6.0941,6.1287,6.0473,6.0396,6.1248,5.9973,5.9742,6.0787,5.9781,5.9473,5.9973,5.9973,5.9973,5.9973,5.9973,5.955,0.0,0.0,0.0,0.0,0.0,0.0,0.0,0.0,0.0,5.0707,5.0707,5.0707,5.0707,5.0707,5.0707,5.0707,0.0,0.0,0.0,0.0,0.0,0.0,0.0,0.0,0.0,0.0,0.0,0.0,0.0,0.0,0.0,5.5708,5.5708,5.5708,5.5708,5.5708,5.5708,5.5708,5.5708,5.5708,5.5708,5.5708,5.5708,5.5747,0.0,0.0,0.0,0.0,0.0,5.6093,5.5747,5.5708,5.5785,5.5747,5.5708,5.5708,5.6247,5.6983,5.6945,5.6945,5.6983,5.6983,5.6516,5.6093,5.6786,5.694,5.6747,5.5939,5.5708,5.5708,5.5708,5.5708,5.5708,5.5708,5.5708,5.5939,5.6824,5.706,5.7363,5.8204,5.8396,5.8396,5.8396,5.8396,5.8396,5.8396,5.8506,5.8819,5.9511,5.9665,5.9973,6.0704,6.0787,6.0825,6.0902,6.0902,6.1248,6.2056,6.1325,6.1248,6.2062,6.1248,6.0787,6.0787,6.0787,6.0787,6.0787,6.0787,6.0787,6.0787,6.0787,6.0358,0.0,0.0,0.0,0.0,0.0,0.0,0.0,0.0,0.0,0.0,0.0,5.0707,5.0707,5.0707,5.0707,0.0,0.0,0.0,0.0,0.0,0.0,0.0,0.0,0.0,0.0,0.0,0.0,0.0,0.0,0.0,0.0,5.5708,5.5708,5.5708,5.5708,5.5708,5.5708,5.5708,5.5708,5.5708,5.5708,5.5708,5.5708,5.6401,0.0,0.0,0.0,0.0,5.6055,5.6516,5.6285,5.5785,5.6439,5.6285,5.5708,5.5708,5.6247,5.6907,5.6247,5.6439,5.6983,5.6983,5.7747,5.8396,5.7313,5.6511,5.5978,5.5747,5.5708,5.5708,5.5708,5.5708,5.5708,5.5708,5.5708,5.5939,5.6824,5.7517,5.8242,5.905,5.9204,5.9204,5.9204,5.9204,5.9204,5.9204,6.0358,6.1018,6.0556,6.1095,6.1325,6.0864,6.0787,6.1056,6.1749,6.1787,6.1864,6.2095,6.1903,6.1903,6.2095,6.1248,6.0787,6.0787,6.0787,6.0787,6.0787,6.0787,6.0787,6.0787,6.0787,6.071,0.0,0.0,0.0,0.0,0.0,0.0,0.0,0.0,0.0,0.0,0.0,0.0,5.0707,0.0,0.0,0.0,0.0,0.0,0.0,0.0,0.0,0.0,0.0,0.0,0.0,0.0,0.0,0.0,0.0,0.0,0.0,5.5708,5.5708,5.5708,5.5708,5.5708,5.5708,5.5708,5.5708,5.5708,5.5708,5.5708,5.5708,5.6209,5.6362,0.0,0.0,0.0,5.6285,5.6362,5.6132,5.5747,5.6209,5.6132,5.5708,5.5708,5.6016,5.6324,5.5862,5.6285,5.6983,5.6983,5.7594,5.8171,5.728,5.6395,5.5708,5.5708,5.5708,5.5708,5.5708,5.5708,5.5708,5.5708,5.6016,5.6555,5.7401,5.8242,5.9088,5.9935,6.0089,6.0089,6.0089,6.0089,6.0089,6.0089,6.0902,6.1325,6.0864,6.121,6.1479,6.1402,6.1402,6.1749,6.2589,6.3018,6.3249,6.3249,6.2518,6.2287,6.2627,6.1473,6.0787,6.0787,6.0787,6.0787,6.0787,6.0787,6.0787,6.0787,6.0787,6.0787,0.0,0.0,0.0,0.0,0.0,0.0,0.0,0.0,0.0,0.0,0.0,0.0,0.0,0.0,0.0,0.0,0.0,0.0,0.0,0.0,0.0,0.0,0.0,0.0,0.0,0.0,0.0,0.0,0.0,0.0,0.0,5.5708,5.5708,5.5708,5.5708,5.5708,5.5708,5.5708,5.5708,5.5708,5.5708,5.5708,5.5708,5.5824,5.6247,0.0,0.0,0.0,5.6747,5.6016,5.5708,5.5708,5.5708,5.5708,5.5708,5.5708,5.5708,5.5708,5.5708,5.6285,5.6983,5.6824,5.6907,5.6983,5.6824,5.6285,5.5708,5.5708,5.5708,5.5708,5.5708,5.5708,5.5747,5.5862,5.6555,5.744,5.8319,5.9127,5.9935,6.0666,6.0787,6.0787,6.0787,6.1018,6.1089,6.0825,6.1248,6.1441,6.1056,6.1204,6.1556,6.2056,6.221,6.2557,6.3237,6.4089,6.4666,6.4782,6.3326,6.2672,6.3083,6.1743,6.0941,6.0787,6.0787,6.0787,6.0787,6.0787,6.0787,6.0787,6.0787,6.0787,4.7851,4.874,0.0,0.0,0.0,0.0,0.0,0.0,0.0,0.0,0.0,0.0,0.0,0.0,0.0,0.0,0.0,0.0,0.0,0.0,0.0,0.0,0.0,0.0,0.0,0.0,0.0,0.0,0.0,0.0,0.0,5.5708,5.5708,5.5708,5.5708,5.5708,5.5708,5.5708,5.5708,5.5708,5.5708,5.5708,5.5747,5.6478,5.6478,0.0,0.0,5.6478,5.5901,5.5747,5.5708,5.5708,5.5708,5.5708,5.5708,5.5708,5.5708,5.5708,5.5708,5.6285,5.6868,5.6132,5.6401,5.6863,5.6132,5.5824,5.5708,5.5708,5.5708,5.5708,5.5708,5.5708,5.5901,5.6632,5.7473,5.8319,5.9127,5.9973,6.0627,6.0781,6.0787,6.0787,6.0787,6.1973,6.2429,6.1018,6.3249,6.4326,6.2172,6.3128,6.3512,6.2249,6.2704,6.316,6.3275,6.4089,6.4897,6.5628,6.4782,6.3628,6.2326,6.2056,6.1556,6.0825,6.0787,6.0787,6.0787,6.0787,6.0787,6.0787,6.0787,6.0787,4.7235,4.7735,4.8355,0.0,0.0,0.0,0.0,0.0,0.0,0.0,0.0,0.0,0.0,0.0,0.0,0.0,0.0,0.0,0.0,0.0,0.0,0.0,0.0,0.0,0.0,0.0,0.0,0.0,0.0,0.0,0.0,0.0,5.5516,5.5054,5.5478,5.5478,5.5054,5.5478,5.5708,5.5708,5.5708,5.5708,5.5708,5.6093,5.6093,5.5708,0.0,5.6055,5.5708,5.5708,5.5708,5.5708,5.5708,5.5708,5.5708,5.5708,5.5708,5.5708,5.5708,5.6285,5.6863,5.5978,5.6285,5.6824,5.5978,5.5708,5.5708,5.5708,5.5708,5.5824,5.6285,5.6401,5.6632,5.7517,5.8357,5.905,5.9435,6.0165,6.0787,6.0787,6.0787,6.0787,6.0787,6.182,6.2397,6.1633,6.3205,6.4089,6.2897,6.3435,6.3782,6.3474,6.3782,6.4199,6.4666,6.5051,6.5282,6.5205,6.482,6.4051,6.2781,6.2743,6.2551,6.2166,6.171,6.1518,6.1518,6.1018,6.0787,6.0825,6.1287,6.1518,4.6735,4.7043,4.7505,0.0,0.0,4.9976,5.0553,0.0,0.0,0.0,0.0,0.0,0.0,0.0,0.0,0.0,0.0,0.0,0.0,0.0,0.0,0.0,0.0,0.0,0.0,0.0,0.0,0.0,0.0,0.0,0.0,0.0,5.5131,5.4511,5.5093,5.5126,5.4511,5.5285,5.5708,5.5708,5.5708,5.5708,5.5708,5.5708,5.5708,5.5708,5.5708,5.5708,5.5708,5.5708,5.5708,5.5708,5.5708,5.5708,5.5708,5.5708,5.5708,5.5708,5.5708,5.6132,5.6593,5.5939,5.6285,5.6824,5.5978,5.5978,5.628,5.6055,5.617,5.6439,5.6863,5.6983,5.7286,5.8319,5.9204,5.9819,5.9819,6.0473,6.1056,6.0825,6.0979,6.1095,6.1095,6.1979,6.2633,6.2403,6.3243,6.3852,6.3622,6.3775,6.4083,6.4551,6.4782,6.5166,6.5827,6.5904,6.5628,6.4936,6.4897,6.4512,6.3622,6.3583,6.3506,6.3314,6.2704,6.2287,6.2095,6.1633,6.1281,6.1133,6.1979,6.2364,4.6889,4.7466,4.8043,4.8159,4.7697,0.0,5.0168,0.0,0.0,0.0,0.0,0.0,0.0,0.0,0.0,0.0,0.0,0.0,0.0,0.0,0.0,0.0,0.0,0.0,0.0,0.0,0.0,0.0,0.0,0.0,0.0,0.0,0.0,5.4511,5.4549,5.4549,5.4511,5.5285,5.5708,5.5708,5.5708,5.5708,5.5708,5.5708,5.5708,5.5708,5.5708,5.5708,5.5708,5.5708,5.5708,5.5708,5.5708,5.5708,5.5708,5.5708,5.5708,5.5708,5.5708,5.5747,5.5785,5.5708,5.6285,5.6824,5.5978,5.6819,5.7934,5.7132,5.7478,5.7934,5.717,5.6983,5.7401,5.9011,6.0089,6.0704,6.0704,6.1402,6.1787,6.0979,6.1441,6.2018,6.2018,6.3364,6.4166,6.3352,6.4628,6.5436,6.4628,6.5205,6.5436,6.4666,6.532,6.582,6.5897,6.5904,6.5859,6.582,6.582,6.5436,6.4551,6.4512,6.4122,6.3314,6.3237,6.2858,6.2095,6.2781,6.2743,6.2018,6.2858,6.3198,4.609,4.6701,4.7466,4.7966,0.0,0.0,0.0,0.0,0.0,0.0,0.0,0.0,0.0,0.0,0.0,0.0,0.0,0.0,0.0,0.0,0.0,0.0,0.0,0.0,0.0,0.0,0.0,0.0,0.0,0.0,0.0,0.0,0.0,5.3703,5.4203,5.4511,5.4511,5.478,5.5208,5.5708,5.5708,5.5708,5.5708,5.5708,5.5708,5.5708,5.5708,5.5708,5.5708,5.5708,5.5708,5.5708,5.5708,5.5708,5.5708,5.5708,5.5708,5.5708,5.5708,5.5708,5.5708,5.5708,5.6285,5.6945,5.6593,5.7357,5.8242,5.7896,5.805,5.8357,5.8511,5.855,5.8863,6.0012,6.0556,6.0787,6.0787,6.1056,6.1364,6.1556,6.1864,6.2249,6.2743,6.382,6.4474,6.4166,6.5128,6.5788,6.5436,6.5705,6.5981,6.6128,6.6442,6.6442,6.5936,6.5904,6.5904,6.5904,6.5904,6.5743,6.5436,6.5397,6.5243,6.4936,6.4397,6.3974,6.3666,6.3435,6.3121,6.2858,6.3705,6.4128,4.5594,4.6052,4.6701,0.0,0.0,0.0,0.0,0.0,0.0,0.0,0.0,0.0,0.0,0.0,0.0,0.0,0.0,0.0,0.0,0.0,0.0,0.0,0.0,0.0,0.0,0.0,0.0,0.0,0.0,0.0,0.0,0.0,0.0,0.0,5.4049,5.4357,5.4087,5.4357,5.478,5.5324,5.5324,5.5439,5.5708,5.5708,5.5708,5.5708,5.5708,5.5708,5.5708,5.5708,5.5708,5.5708,5.5708,5.5708,5.5708,5.5708,5.5708,5.5708,5.5708,5.5708,5.5747,5.6016,5.6709,5.7401,5.7401,5.8204,5.905,5.8775,5.8896,5.9204,5.9781,5.9704,5.9704,6.0589,6.0787,6.0787,6.0787,6.0787,6.1056,6.1941,6.2326,6.2743,6.3583,6.4436,6.5013,6.5013,6.5513,6.5904,6.5904,6.6134,6.6596,6.7436,6.7513,6.7282,6.6744,6.6705,6.6551,6.6288,6.6551,6.6436,6.5904,6.5904,6.5904,6.5904,6.532,6.4859,6.4589,6.4282,6.3968,6.3737,6.4589,6.5013,4.5594,4.5594,0.0,0.0,0.0,0.0,0.0,0.0,0.0,0.0,0.0,0.0,0.0,0.0,0.0,0.0,0.0,0.0,0.0,0.0,0.0,0.0,0.0,0.0,0.0,0.0,0.0,0.0,0.0,0.0,0.0,0.0,0.0,0.0,5.4049,5.4087,5.3236,5.4087,5.4511,5.4511,5.4511,5.4934,5.5708,5.5708,5.5708,5.5708,5.5708,5.5708,5.5708,5.5708,5.5708,5.5708,5.5708,5.5708,5.5708,5.5708,5.5708,5.5708,5.5708,5.5708,5.5862,5.6709,5.7588,5.8313,5.8313,5.9473,6.0633,5.9742,6.0127,6.0787,6.0787,6.0165,5.9742,6.0589,6.0787,6.0787,6.0825,6.0825,6.1056,6.1941,6.2781,6.3583,6.4474,6.532,6.5904,6.5904,6.5904,6.5904,6.5904,6.6635,6.7436,6.8314,6.8391,6.8391,6.8391,6.8391,6.8013,6.7173,6.7936,6.766,6.5981,6.5904,6.5904,6.5904,6.5904,6.5474,6.4628,6.5474,6.5474,6.4628,6.5513,6.5904,4.5782,0.0,0.0,0.0,0.0,0.0,0.0,0.0,0.0,0.0,0.0,0.0,0.0,0.0,0.0,0.0,0.0,0.0,0.0,0.0,0.0,0.0,0.0,0.0,0.0,0.0,0.0,0.0,0.0,0.0,0.0,0.0,0.0,0.0,5.4049,5.4395,5.4126,5.4357,5.4511,5.4511,5.5049,5.5478,5.5708,5.5708,5.5708,5.5708,5.5708,5.5708,5.5708,5.5708,5.5708,5.5708,5.5708,5.5708,5.5708,5.5708,5.5708,5.5708,5.5708,5.6093,5.667,5.6907,5.7978,5.9127,5.9127,5.9935,6.0748,6.0473,6.0589,6.0787,6.0787,6.0594,6.0473,6.0748,6.0787,6.0979,6.1595,6.171,6.2133,6.3589,6.4051,6.4474,6.5359,6.575,6.5904,6.5904,6.5904,6.6096,6.6673,6.8013,6.8783,6.843,6.893,6.9084,6.8468,6.8391,6.8276,6.8013,6.8276,6.766,6.5981,6.6442,6.6481,6.5904,6.6442,6.6327,6.5513,6.632,6.6327,6.5513,6.5788,6.5904,4.5744,0.0,0.0,0.0,0.0,0.0,0.0,0.0,0.0,0.0,0.0,0.0,0.0,0.0,0.0,0.0,0.0,0.0,0.0,0.0,0.0,0.0,0.0,0.0,0.0,0.0,0.0,0.0,0.0,0.0,0.0,0.0,0.0,0.0,5.4049,5.4318,5.3972,5.3626,5.3818,5.4511,5.4626,5.4895,5.5247,5.5555,5.5708,5.5708,5.5708,5.5708,5.5708,5.5708,5.5708,5.5708,5.5708,5.5708,5.5708,5.5708,5.5708,5.5708,5.5708,5.6285,5.706,5.7401,5.8434,5.955,5.9896,6.0396,6.0787,6.0787,6.0787,6.0787,6.0787,6.0787,6.0787,6.0787,6.1056,6.1441,6.1979,6.2364,6.2974,6.4359,6.4589,6.4974,6.6167,6.6365,6.6474,6.6859,6.6898,6.7205,6.8013,6.9052,6.9629,6.9436,6.986,6.9975,6.943,6.9391,6.9276,6.893,6.9199,6.8629,6.6974,6.7019,6.7019,6.6898,6.7019,6.7019,6.6898,6.7398,6.7205,6.6365,6.6365,6.6211,0.0,0.0,0.0,0.0,0.0,0.0,0.0,0.0,0.0,0.0,0.0,0.0,0.0,0.0,0.0,0.0,0.0,0.0,0.0,0.0,0.0,0.0,0.0,0.0,0.0,0.0,0.0,0.0,0.0,0.0,0.0,0.0,0.0,5.3082,5.3933,5.3972,5.3082,5.239,5.2774,0.0,5.3549,5.3664,5.4511,5.5324,5.5708,5.5708,5.5708,5.5708,5.5708,5.5708,5.5708,5.5708,5.5708,5.5708,5.5708,5.5708,5.5708,5.5708,5.5708,5.6285,5.7132,5.8011,5.8858,5.9665,6.055,6.0787,6.0787,6.0787,6.0787,6.0787,6.0787,6.0864,6.0941,6.0941,6.1518,6.2133,6.2172,6.2858,6.366,6.4551,6.4705,6.5243,6.6827,6.7096,6.7398,6.8276,6.8468,6.8814,6.959,6.9744,7.009,7.0821,7.0898,7.0898,7.0898,7.0898,7.0591,6.986,7.0514,7.0206,6.8699,6.7782,6.7667,6.8391,6.7705,6.7705,6.8391,6.8468,6.809,6.7212,6.7212,6.6827,0.0,4.7636,0.0,0.0,0.0,0.0,0.0,0.0,0.0,0.0,0.0,0.0,0.0,0.0,0.0,0.0,0.0,0.0,0.0,0.0,0.0,0.0,0.0,0.0,0.0,0.0,0.0,0.0,0.0,0.0,0.0,0.0,0.0,5.2197,5.3044,5.3044,5.2197,5.2659,5.2774,0.0,5.2967,5.3664,5.4511,5.5324,5.5708,5.5708,5.5708,5.5708,5.5708,5.5708,5.5708,5.5708,5.5708,5.5708,5.5708,5.5708,5.5708,5.5708,5.5708,5.6285,5.7132,5.8011,5.8858,5.9665,6.055,6.0787,6.0787,6.0787,6.0787,6.0787,6.0787,6.1325,6.1826,6.1826,6.1941,6.2287,6.2897,6.3705,6.4589,6.5436,6.5628,6.5936,6.6942,6.7096,6.7398,6.8276,6.8968,6.9475,6.9667,7.0244,7.0706,7.0898,7.0898,7.0898,7.0898,7.0898,7.0821,7.0667,7.0783,7.0744,7.0398,6.959,6.8898,6.8391,6.8898,6.8898,6.8391,6.9084,6.8975,6.8122,6.8122,6.8045,0.0,0.0,0.0,0.0,0.0,0.0,0.0,0.0,0.0,0.0,0.0,0.0,0.0,0.0,0.0,0.0,0.0,0.0,0.0,0.0,0.0,0.0,0.0,0.0,0.0,0.0,0.0,0.0,0.0,0.0,0.0,5.1467,5.1885,5.1885,5.2351,5.2351,5.1885,5.1972,5.1972,5.1923,5.2351,5.3236,5.4511,5.5324,5.5708,5.5708,5.5708,5.5708,5.5708,5.5708,5.5708,5.5708,5.5708,5.5708,5.5708,5.5708,5.5708,5.5708,5.5708,5.6285,5.7055,5.7517,5.8511,5.9588,6.005,6.0473,6.0787,6.0787,6.0787,6.0787,6.0787,6.1133,6.1595,6.1979,6.2403,6.2897,6.3737,6.4282,6.4859,6.575,6.5904,6.6173,6.6981,6.7789,6.8629,6.9468,6.9975,7.0283,7.0283,7.0629,7.0898,7.0898,7.0898,7.0898,7.0898,7.0898,7.0898,7.0898,7.0898,7.0898,7.0898,7.0514,7.0052,6.9629,6.9667,6.9667,6.959,7.0052,6.986,6.9007,6.9007,6.8814,0.0,0.0,0.0,0.0,0.0,0.0,0.0,0.0,0.0,0.0,0.0,0.0,0.0,0.0,0.0,0.0,0.0,0.0,0.0,0.0,0.0,0.0,0.0,0.0,0.0,0.0,0.0,0.0,0.0,0.0,5.0707,5.1318,5.1697,5.1697,5.1697,5.1697,5.1697,5.1015,5.101,5.1697,5.1846,5.2736,5.4318,5.5126,5.5555,5.5708,5.5555,5.5555,5.5708,5.5708,5.5708,5.5708,5.5708,5.5708,5.5708,5.5708,5.5708,5.5708,5.5708,5.617,5.6786,5.6945,5.794,5.9127,5.9396,6.0012,6.0594,6.0748,6.0787,6.0819,6.0979,6.1133,6.1435,6.2326,6.3051,6.3737,6.4436,6.4705,6.5051,6.5743,6.6019,6.6327,6.6981,6.8552,6.9937,7.0591,7.0706,7.0744,7.0898,7.0783,7.0744,7.0898,7.0898,7.0898,7.0898,7.0898,7.0898,7.0898,7.0898,7.0898,7.0898,7.0898,7.0898,7.0898,7.0244,7.0244,7.0898,7.0898,7.0552,6.9898,6.9898,6.9507,0.0,0.0,0.0,0.0,0.0,0.0,0.0,0.0,0.0,0.0,0.0,0.0,0.0,0.0,0.0,0.0,0.0,0.0,0.0,0.0,0.0,0.0,0.0,0.0,0.0,0.0,0.0,0.0,0.0,0.0,5.0707,5.0784,5.0861,5.0861,5.0861,5.0861,5.0861,5.0745,5.0745,5.0861,5.1582,5.2428,5.339,5.428,5.5049,5.567,5.4972,5.5054,5.5708,5.5708,5.5708,5.5708,5.5708,5.5708,5.5708,5.5708,5.5708,5.5708,5.5708,5.5785,5.6016,5.6747,5.7132,5.7594,5.905,5.9588,5.9819,6.0589,6.0787,6.0979,6.171,6.2435,6.3198,6.4051,6.4359,6.4474,6.4589,6.5205,6.5743,6.5859,6.6442,6.6981,6.7096,6.8552,6.9744,6.986,6.986,7.0129,7.0821,7.0283,7.0129,7.0821,7.0898,7.0898,7.0898,7.0898,7.0898,7.0898,7.0898,7.0898,7.0898,7.0898,7.0898,7.0898,7.0783,7.0783,7.0898,7.0898,7.0821,7.0744,7.0744,7.0667,0.0,0.0,0.0,0.0,0.0,0.0,0.0,0.0,0.0,0.0,0.0,0.0,0.0,0.0,0.0,0.0,0.0,0.0,0.0,0.0,0.0,0.0,0.0,0.0,0.0,0.0,0.0,0.0,0.0,5.0707,5.0707,5.0707,5.0707,5.0707,5.0707,5.0707,5.0707,5.0707,5.0707,5.0707,5.1505,5.2115,5.2505,5.3351,5.4241,5.5011,5.5131,5.5362,5.5708,5.5708,5.5708,5.5708,5.5708,5.5708,5.5708,5.5708,5.5708,5.5708,5.5708,5.5708,5.5747,5.6132,5.694,5.7857,5.8588,5.9473,6.0319,6.071,6.0787,6.1018,6.1864,6.2364,6.2974,6.4282,6.4589,6.4743,6.5205,6.5243,6.532,6.582,6.6211,6.6744,6.7667,6.8475,6.9276,7.0244,7.036,7.0514,7.086,7.0591,7.0514,7.086,7.0898,7.0898,7.0898,7.0898,7.0898,7.0898,7.0898,7.0898,7.0898,7.0898,7.0898,7.0898,7.0898,7.0898,7.0898,7.0898,7.0898,7.0898,7.0898,7.0667,0.0,0.0,0.0,0.0,0.0,0.0,0.0,0.0,0.0,0.0,0.0,0.0,0.0,0.0,0.0,0.0,0.0,0.0,0.0,0.0,0.0,0.0,0.0,0.0,0.0,0.0,0.0,0.0,0.0,5.0707,5.0707,5.0707,5.0707,5.0707,5.0707,5.0707,5.0707,5.0707,5.0784,5.1015,5.1395,5.1697,5.1923,5.2813,5.3549,5.4203,5.5049,5.5516,5.5708,5.5708,5.5708,5.5708,5.5708,5.5708,5.5708,5.5708,5.5708,5.5708,5.5708,5.5708,5.5708,5.5708,5.6742,5.8011,5.8242,5.9319,6.0512,6.0748,6.0787,6.1056,6.2133,6.2403,6.2826,6.4512,6.4936,6.5128,6.5743,6.5397,6.5128,6.5782,6.5904,6.6359,6.7821,6.8237,6.8891,7.036,7.0591,7.0667,7.086,7.0706,7.0667,7.0898,7.0898,7.0898,7.0898,7.0898,7.0898,7.0898,7.0898,7.0898,7.0898,7.0898,7.0898,7.0898,7.0898,7.0898,7.0898,7.0898,7.0898,7.0898,7.0898,7.0591,0.0,0.0,0.0,0.0,0.0,0.0,0.0,0.0,0.0,0.0,0.0,0.0,0.0,0.0,0.0,0.0,0.0,0.0,0.0,0.0,0.0,0.0,0.0,0.0,0.0,0.0,0.0,0.0,0.0,5.0707,5.0707,5.0707,5.0707,5.0707,5.0707,5.0707,5.0707,5.0707,5.1087,5.1851,5.1125,5.1164,5.1923,5.2813,5.3236,5.3313,5.4203,5.5011,5.5708,5.5708,5.5708,5.5708,5.5708,5.5708,5.5708,5.5708,5.5708,5.5708,5.5708,5.5708,5.5708,5.5708,5.6324,5.7209,5.805,5.8896,5.9742,6.0556,6.0787,6.1172,6.2814,6.3237,6.366,6.5436,6.582,6.5827,6.5897,6.5865,6.5865,6.5897,6.5904,6.6167,6.7019,6.7859,6.8699,6.9629,6.9744,7.0052,7.0783,7.0244,7.0052,7.0821,7.0898,7.0898,7.0898,7.0898,7.0898,7.0898,7.0898,7.0898,7.0898,7.0898,7.0898,7.0898,7.0898,7.0898,7.0898,7.0898,7.0898,7.0898,7.0898,7.0898,0.0,0.0,0.0,0.0,0.0,0.0,0.0,0.0,0.0,0.0,0.0,0.0,0.0,0.0,0.0,0.0,0.0,0.0,0.0,0.0,0.0,0.0,0.0,0.0,0.0,0.0,0.0,0.0,0.0,0.0,5.0707,5.0707,5.0707,5.0707,5.0707,5.0707,5.0707,5.0707,5.0822,5.1125,5.0822,5.0861,5.1164,5.2005,5.239,5.2467,5.3895,5.4972,5.5708,5.5708,5.5708,5.5708,5.5708,5.5708,5.5708,5.5708,5.5708,5.5708,5.5708,5.5708,5.5708,5.5708,5.6665,5.7896,5.8204,5.9242,6.0396,6.0704,6.0787,6.1204,6.2852,6.3314,6.3737,6.5474,6.5904,6.5904,6.5904,6.5904,6.6051,6.6558,6.6673,6.7135,6.8513,6.9013,6.9513,7.036,7.0475,7.0552,7.086,7.0667,7.0591,7.086,7.1398,7.1514,7.0937,7.1937,7.2091,7.0975,7.1398,7.1475,7.0937,7.0898,7.0898,7.0898,7.0898,7.0898,7.0898,7.0898,7.0898,7.0898,7.0898,7.0629,0.0,0.0,0.0,0.0,0.0,0.0,0.0,0.0,0.0,0.0,0.0,0.0,0.0,0.0,0.0,0.0,0.0,0.0,0.0,0.0,0.0,0.0,0.0,0.0,0.0,0.0,0.0,0.0,0.0,0.0,5.0707,5.0707,5.0707,5.0707,5.0707,5.0707,5.0707,5.0707,5.0707,5.0707,5.0707,5.0707,5.0745,5.1543,5.2038,5.2428,5.3857,5.478,5.5324,5.5593,5.5708,5.5708,5.5708,5.5708,5.5708,5.5708,5.5708,5.5708,5.5708,5.5708,5.5708,5.5708,5.6896,5.8313,5.8313,5.9473,6.0787,6.0787,6.0787,6.1204,6.2852,6.3737,6.4474,6.5628,6.5904,6.5904,6.5904,6.5904,6.6134,6.6942,6.7096,6.7628,6.9398,6.9706,6.9975,7.0783,7.0898,7.0898,7.0898,7.0898,7.1014,7.1321,7.186,7.2091,7.1783,7.2815,7.2892,7.1437,7.1867,7.1944,7.136,7.1321,7.1475,7.1783,7.1783,7.1629,7.1321,7.1052,7.0898,7.0898,7.0898,7.0591,0.0,0.0,0.0,0.0,0.0,0.0,0.0,0.0,0.0,0.0,0.0,0.0,0.0,0.0,0.0,0.0,0.0,0.0,0.0,0.0,0.0,0.0,0.0,0.0,0.0,0.0,0.0,0.0,0.0,5.0648,5.0707,5.0707,5.0707,5.0707,5.0707,5.0707,5.0707,5.0707,5.0707,5.0707,5.0707,5.0707,5.0745,5.1505,5.2313,5.3159,5.4087,5.4472,5.4511,5.5362,5.5708,5.5708,5.5708,5.5708,5.5708,5.5708,5.5708,5.5708,5.5708,5.5708,5.5708,5.5708,5.6896,5.8313,5.8313,5.9473,6.0787,6.0787,6.0787,6.1204,6.2852,6.4589,6.5904,6.5904,6.5904,6.5904,6.5904,6.5904,6.6167,6.6981,6.7173,6.7712,6.9436,6.9744,7.0014,7.0783,7.0937,7.0937,7.0898,7.0937,7.1245,7.2098,7.2213,7.2591,7.343,7.3546,7.3168,7.2252,7.2213,7.2213,7.2175,7.2175,7.2591,7.3392,7.3469,7.3053,7.2175,7.1321,7.0937,7.0898,7.0898,7.0898,4.4033,0.0,0.0,0.0,0.0,0.0,0.0,0.0,0.0,0.0,0.0,0.0,0.0,0.0,0.0,0.0,0.0,0.0,0.0,0.0,0.0,0.0,0.0,0.0,0.0,0.0,0.0,0.0,5.0553,5.0648,5.0707,5.0707,5.0707,5.0707,5.0707,5.0707,5.0707,5.0707,5.0707,5.0707,5.0707,5.0707,5.0707,5.0938,5.1169,5.1476,5.2933,5.3549,5.3664,5.5126,5.5708,5.5708,5.5708,5.5708,5.5708,5.5708,5.5708,5.5708,5.5708,5.5708,5.5708,5.5708,5.6896,5.8313,5.8313,5.9473,6.0787,6.0787,6.0787,6.1204,6.2852,6.4589,6.5904,6.5904,6.5904,6.5904,6.5904,6.6365,6.7013,6.7859,6.8552,6.9321,7.0398,7.0552,7.0629,7.086,7.1437,7.1591,7.0975,7.1437,7.1944,7.2175,7.2745,7.3238,7.3469,7.4623,7.4437,7.2329,7.2783,7.2591,7.1321,7.1867,7.2014,7.1629,7.2853,7.2745,7.1245,7.1629,7.1521,7.0898,7.0898,7.0898,0.0,0.0,0.0,0.0,0.0,0.0,0.0,4.7783,0.0,0.0,0.0,0.0,0.0,0.0,0.0,0.0,0.0,0.0,0.0,0.0,0.0,0.0,0.0,0.0,0.0,0.0,0.0,5.0495,5.0532,5.0584,5.0702,5.0707,5.0707,5.0707,5.0707,5.0707,5.0707,5.0707,5.0707,5.0707,5.0707,5.0707,5.0707,5.0707,5.0899,5.1279,5.2626,5.3395,5.3857,5.5164,5.5708,5.5708,5.5708,5.5708,5.5708,5.5708,5.5708,5.5708,5.5708,5.5708,5.5708,5.5708,5.6896,5.8313,5.8313,5.9473,6.0787,6.0787,6.1281,6.2089,6.3045,6.4589,6.5904,6.5904,6.5904,6.5904,6.5904,6.6519,6.7359,6.8237,6.9084,6.9975,7.0744,7.0898,7.0898,7.0898,7.1321,7.1475,7.0975,7.1321,7.1937,7.2668,7.3199,7.3776,7.4469,7.5438,7.5053,7.2899,7.3199,7.3046,7.2014,7.2476,7.2822,7.3014,7.3668,7.3168,7.1437,7.1944,7.1752,7.0898,7.0898,7.0898,0.0,0.0,0.0,0.0,0.0,0.0,4.6938,4.7113,4.7599,0.0,0.0,0.0,0.0,0.0,0.0,0.0,0.0,0.0,0.0,0.0,0.0,0.0,0.0,0.0,0.0,5.0183,5.0384,5.0495,5.0516,5.0568,5.0702,5.0707,5.0707,5.0707,5.0707,5.0707,5.0707,5.0707,5.0707,5.0707,5.0707,5.0707,5.0707,5.0707,5.1125,5.1962,5.2813,5.3703,5.4549,5.5362,5.5708,5.5708,5.5708,5.5708,5.5708,5.5708,5.5708,5.5708,5.5708,5.5708,5.5708,5.5708,5.6896,5.8313,5.8313,5.9473,6.0787,6.0787,6.2012,6.3314,6.3314,6.4589,6.5904,6.5904,6.5904,6.5904,6.5904,6.6519,6.7327,6.8122,6.9052,6.9937,7.0629,7.0821,7.0898,7.0898,7.0975,7.1014,7.0898,7.0975,7.1668,7.3315,7.3392,7.4091,7.5861,7.5822,7.5091,7.3584,7.3392,7.3353,7.3353,7.343,7.4199,7.5707,7.4861,7.3707,7.2213,7.2098,7.1668,7.0898,7.0898,7.0898,0.0,0.0,0.0,0.0,0.0,0.0,4.6938,4.7113,4.7599,0.0,0.0,0.0,0.0,0.0,0.0,0.0,0.0,0.0,0.0,0.0,0.0,0.0,0.0,0.0,0.0,5.0593,5.0478,5.05,5.0589,5.0687,5.0707,5.0707,5.0707,5.0707,5.0707,5.0707,5.0707,5.0707,5.0707,5.0707,5.0707,5.0707,5.0707,5.0707,5.1125,5.1962,5.2813,5.3703,5.4549,5.5362,5.5708,5.5708,5.5708,5.5708,5.5708,5.5708,5.5708,5.5708,5.5708,5.5708,5.5708,5.5708,5.6896,5.8313,5.8313,5.9473,6.0787,6.0787,6.2012,6.3314,6.3314,6.4589,6.5904,6.5904,6.5904,6.5904,6.5904,6.6519,6.7135,6.7327,6.8629,6.9744,6.9898,7.0475,7.0898,7.0898,7.1514,7.1675,7.0975,7.1514,7.236,7.3392,7.286,7.3399,7.5784,7.4745,7.3853,7.3507,7.2822,7.2437,7.2437,7.3129,7.3661,7.3969,7.3129,7.2514,7.2213,7.1514,7.1052,7.0898,7.0898,7.0898,0.0,0.0,0.0,4.459,0.0,0.0,0.0,4.6205,4.6388,4.8012,0.0,0.0,0.0,0.0,0.0,0.0,0.0,0.0,0.0,0.0,0.0,0.0,0.0,0.0,0.0,5.0423,5.0312,5.0527,5.0624,5.0707,5.0707,5.0707,5.0707,5.0707,5.0707,5.0707,5.0707,5.0707,5.0707,5.0707,5.0707,5.0707,5.0707,5.0707,5.0938,5.1356,5.2664,5.3433,5.3933,5.5203,5.5708,5.5708,5.5708,5.5708,5.5708,5.5708,5.5708,5.5708,5.5708,5.5978,5.6362,5.6362,5.7511,5.8896,5.8896,5.9781,6.0787,6.0787,6.2012,6.3314,6.3314,6.4589,6.5904,6.5904,6.5904,6.5904,6.5904,6.6211,6.6635,6.7019,6.8167,6.9199,6.9629,7.036,7.0898,7.0898,7.1283,7.1398,7.0975,7.1283,7.1898,7.2745,7.2476,7.2899,7.463,7.3969,7.3315,7.2899,7.2437,7.2406,7.2822,7.286,7.286,7.286,7.2399,7.1982,7.1552,7.1091,7.0898,7.0898,7.0898,7.0898,0.0,0.0,0.0,0.0,0.0,4.4452,0.0,0.0,0.0,4.6636,0.0,0.0,0.0,0.0,0.0,0.0,0.0,0.0,0.0,0.0,0.0,0.0,0.0,0.0,0.0,5.0565,5.035,5.0617,5.0682,5.0707,5.0707,5.0707,5.0707,5.0707,5.0707,5.0707,5.0707,5.0707,5.0707,5.0707,5.0707,5.0707,5.0707,5.0707,5.0784,5.1015,5.2549,5.3313,5.3587,5.5088,5.5708,5.5708,5.5708,5.5708,5.5708,5.5708,5.5708,5.5708,5.5708,5.6285,5.6983,5.6983,5.8132,5.9511,5.9704,6.0242,6.0819,6.1018,6.2127,6.3352,6.3506,6.4705,6.5904,6.5904,6.5904,6.5904,6.5904,6.6019,6.6288,6.6789,6.7821,6.8853,6.959,7.036,7.0898,7.0898,7.0898,7.0898,7.0898,7.0898,7.1245,7.2098,7.2059,7.236,7.3392,7.3199,7.286,7.2476,7.2129,7.2476,7.3661,7.3053,7.2598,7.2437,7.229,7.179,7.0898,7.0898,7.0898,7.0898,7.0898,7.0898,0.0,0.0,0.0,0.0,4.5691,0.0,0.0,0.0,4.6682,4.614,0.0,0.0,0.0,0.0,0.0,0.0,0.0,0.0,0.0,0.0,0.0,0.0,0.0,0.0,0.0,0.0,5.1331,5.0731,5.0707,5.0707,5.0707,5.0707,5.0707,5.0707,5.0707,5.0707,5.0707,5.0707,5.0707,5.0707,5.0707,5.0707,5.0707,5.0707,5.1087,5.1813,5.2774,5.3626,5.4434,5.5324,5.5708,5.5708,5.5708,5.5708,5.5708,5.5708,5.5708,5.5708,5.5708,5.6285,5.6983,5.6983,5.8132,5.9627,6.0435,6.0704,6.0979,6.171,6.2589,6.3468,6.4237,6.5166,6.5904,6.5904,6.5904,6.5904,6.5904,6.6442,6.6789,6.6173,6.7936,6.959,6.9667,7.036,7.0898,7.0898,7.0898,7.0898,7.0898,7.0898,7.1245,7.2098,7.1514,7.1706,7.3353,7.2084,7.1822,7.3276,7.1898,7.2129,7.4469,7.4469,7.4084,7.3353,7.2591,7.179,7.0898,7.0898,7.0898,7.0898,7.0898,7.0898,0.0,0.0,0.0,0.0,0.0,0.0,0.0,0.0,4.5874,0.0,0.0,0.0,0.0,0.0,0.0,0.0,0.0,0.0,0.0,0.0,0.0,0.0,0.0,0.0,0.0,0.0,0.0,0.0,0.0,5.0707,5.0707,5.0707,5.0707,5.0707,5.0707,5.0707,5.0707,5.0707,5.0707,5.0707,5.0707,5.0707,5.0707,5.0707,5.1125,5.1962,5.2813,5.3703,5.4549,5.5362,5.5708,5.5708,5.5708,5.5708,5.5708,5.5708,5.5708,5.5785,5.6285,5.667,5.7176,5.8132,5.9281,6.0319,6.071,6.0787,6.0864,6.1248,6.2281,6.3391,6.3737,6.4859,6.5904,6.5904,6.5904,6.5904,6.5904,6.6173,6.6596,6.7244,6.8199,6.9244,7.0244,7.0667,7.0898,7.0898,7.0898,7.0898,7.0898,7.0898,7.1052,7.1398,7.1129,7.1206,7.1937,7.1321,7.1206,7.1937,7.2238,7.2892,7.3969,7.443,7.4091,7.2783,7.2406,7.179,7.0898,7.0898,7.0898,7.0898,7.0898,7.0898,4.6512,0.0,0.0,0.0,0.0,0.0,0.0,0.0,0.0,0.0,0.0,0.0,0.0,0.0,0.0,0.0,0.0,0.0,0.0,0.0,0.0,0.0,0.0,0.0,0.0,0.0,0.0,5.0914,5.0788,5.0707,5.0707,5.0707,5.0707,5.0707,5.0707,5.0707,5.0707,5.0707,5.0707,5.0707,5.0707,5.0707,5.0707,5.0707,5.1125,5.1962,5.2813,5.3703,5.4549,5.5362,5.5708,5.5708,5.5708,5.5708,5.5708,5.5708,5.5862,5.6132,5.6786,5.7286,5.794,5.9396,6.0281,6.0787,6.0787,6.0787,6.0864,6.1095,6.2204,6.3352,6.3583,6.4782,6.5904,6.5904,6.5904,6.5904,6.5904,6.6058,6.6513,6.7513,6.8276,6.9084,7.0052,7.0591,7.0898,7.0898,7.0898,7.0898,7.0898,7.0898,7.0898,7.0898,7.0898,7.0898,7.0898,7.0898,7.1014,7.1245,7.3091,7.4084,7.3853,7.4392,7.413,7.2899,7.2668,7.2129,7.1245,7.1245,7.1129,7.0898,7.0898,7.0898,0.0,0.0,0.0,4.664,0.0,0.0,0.0,0.0,4.5663,0.0,0.0,0.0,0.0,0.0,0.0,0.0,0.0,0.0,0.0,0.0,0.0,0.0,0.0,0.0,0.0,0.0,0.0,5.152,5.0998,5.0707,5.0707,5.0707,5.0707,5.0707,5.0707,5.0707,5.0707,5.0707,5.0707,5.0707,5.0707,5.0707,5.0707,5.0707,5.1125,5.1962,5.2813,5.3703,5.4549,5.5362,5.5708,5.5708,5.5708,5.5708,5.5708,5.5708,5.6247,5.6945,5.6983,5.8055,5.9588,6.0473,6.0787,6.0787,6.0787,6.0787,6.0979,6.1826,6.2666,6.3506,6.4359,6.5243,6.5904,6.5904,6.5904,6.5904,6.5904,6.6519,6.6865,6.6134,6.7975,6.9391,6.8622,6.9821,7.0898,7.0898,7.0898,7.0898,7.0898,7.0898,7.0898,7.0898,7.0898,7.0898,7.0898,7.0898,7.1245,7.2098,7.4514,7.5553,7.47,7.47,7.4661,7.4623,7.3853,7.3014,7.2175,7.2175,7.1706,7.0898,7.0898,7.0898,0.0,0.0,4.453,4.5393,0.0,0.0,0.0,0.0,0.0,0.0,0.0,0.0,0.0,0.0,0.0,0.0,0.0,0.0,0.0,0.0,0.0,0.0,0.0,0.0,0.0,0.0,0.0,5.1469,5.0455,5.0091,5.0668,5.0707,5.0707,5.0707,5.0707,5.0707,5.0707,5.0707,5.0707,5.0707,5.0707,5.0707,5.0707,5.1241,5.1967,5.2813,5.3664,5.4511,5.5324,5.5593,5.5708,5.5708,5.5708,5.5708,5.5708,5.5708,5.5901,5.6209,5.6786,5.8478,6.0319,6.0012,6.0319,6.0787,6.0787,6.0787,6.0979,6.1864,6.2666,6.3506,6.4352,6.5243,6.5904,6.5904,6.5904,6.5904,6.5904,6.609,6.6551,6.7398,6.8237,6.9084,6.9898,7.0514,7.0898,7.0898,7.0898,7.0898,7.0898,7.0898,7.0898,7.0898,7.1398,7.1514,7.0937,7.1437,7.236,7.3783,7.4668,7.5284,7.5553,7.5553,7.5284,7.47,7.443,7.3892,7.3053,7.2476,7.2059,7.1752,7.1168,7.0898,4.5094,4.4026,0.0,4.4363,4.334,0.0,4.4719,0.0,0.0,0.0,0.0,0.0,0.0,0.0,0.0,0.0,0.0,0.0,0.0,0.0,0.0,0.0,0.0,0.0,0.0,0.0,5.0919,5.1457,5.0493,5.0091,0.0,0.0,5.0707,5.0707,5.0707,5.0707,5.0707,5.0707,5.0707,5.0707,5.0707,5.0707,5.0707,5.1241,5.2082,5.3236,5.378,5.4664,5.5708,5.5708,5.5708,5.5708,5.5708,5.5708,5.5708,5.5708,5.6088,5.678,5.794,5.944,6.0704,6.0127,6.0319,6.0787,6.0787,6.0787,6.0979,6.1864,6.2666,6.3506,6.4352,6.5243,6.5904,6.5904,6.5904,6.5904,6.5904,6.6134,6.6667,6.7744,6.843,6.9199,7.0283,7.0706,7.0898,7.0898,7.0898,7.1014,7.1321,7.136,7.1475,7.1783,7.2052,7.1982,7.1398,7.2437,7.3553,7.4623,7.4976,7.5399,7.5976,7.6015,7.5745,7.5168,7.5168,7.4738,7.393,7.3091,7.2514,7.2175,7.1321,7.0898]}]]